[[{"header":{"parameterUnit":"m.s-1","parameterCategory":1,"la1":31.0,"la2":29.5877,"lo1":-88.7671,"lo2":-86.6584,"dx":0.0162,"dy":0.0185,"nx":115,"ny":88,"refTime":"2023-01-24T18:00:00:Z","depth":0,"parameterNumber":2,"parameterNumberName":"U-component_of_WINDS"},"data":[0.0,0.0,0.0,0.0,0.0,0.0,0.0,0.0,0.0,0.0,0.0,0.0,0.0,0.0,0.0,0.0,0.0,0.0,0.0,0.0,0.0,0.0,0.0,0.0,0.0,0.0,0.0,0.0,0.0,0.0,0.0,0.0,0.0,0.0,0.0,0.0,0.0,0.0,0.0,0.0,0.0,0.0,0.0,0.0,0.0,0.0,0.0,0.0,0.0,0.0,0.0,0.0,0.0,0.0,0.0,0.0,0.0,0.0,0.0,0.0,0.0,0.0,0.0,0.0,0.0,0.0,0.0,0.0,0.0,0.0,0.0,0.0,0.0,0.0,0.0,0.0,0.0,0.0,0.0,0.0,0.0,0.0,0.0,0.0,0.0,0.0,0.0,0.0,0.0,0.0,0.0,0.0,0.0,0.0,0.0,0.0,0.0,0.0,0.0,0.0,0.0,0.0,0.0,0.0,0.0,0.0,0.0,0.0,0.0,0.0,0.0,0.0,0.0,0.0,0.0,0.0,0.0,0.0,0.0,0.0,0.0,0.0,0.0,0.0,0.0,0.0,0.0,0.0,0.0,0.0,0.0,0.0,0.0,0.0,0.0,0.0,0.0,0.0,0.0,0.0,0.0,0.0,0.0,0.0,0.0,0.0,0.0,0.0,0.0,0.0,0.0,0.0,0.0,0.0,0.0,0.0,0.0,0.0,0.0,0.0,0.0,0.0,0.0,0.0,0.0,0.0,0.0,0.0,0.0,0.0,0.0,0.0,0.0,0.0,0.0,0.0,0.0,0.0,0.0,0.0,0.0,0.0,0.0,0.0,0.0,0.0,0.0,0.0,0.0,0.0,0.0,0.0,0.0,0.0,0.0,0.0,0.0,0.0,0.0,0.0,0.0,0.0,0.0,0.0,0.0,0.0,0.0,0.0,0.0,0.0,0.0,0.0,0.0,0.0,0.0,0.0,0.0,0.0,0.0,0.0,0.0,0.0,0.0,0.0,0.0,0.0,0.0,0.0,0.0,0.0,0.0,0.0,0.0,0.0,0.0,0.0,0.0,0.0,0.0,0.0,0.0,0.0,0.0,0.0,0.0,0.0,0.0,0.0,0.0,0.0,0.0,0.0,0.0,0.0,0.0,0.0,0.0,0.0,0.0,0.0,0.0,0.0,0.0,0.0,0.0,0.0,0.0,0.0,0.0,0.0,0.0,0.0,0.0,0.0,0.0,0.0,0.0,0.0,0.0,0.0,0.0,0.0,0.0,0.0,0.0,0.0,0.0,0.0,0.0,0.0,0.0,0.0,0.0,0.0,0.0,0.0,0.0,0.0,0.0,0.0,0.0,0.0,0.0,0.0,0.0,0.0,0.0,0.0,0.0,0.0,0.0,0.0,0.0,0.0,0.0,0.0,0.0,0.0,0.0,0.0,0.0,0.0,0.0,0.0,0.0,0.0,0.0,0.0,0.0,0.0,0.0,0.0,0.0,0.0,0.0,0.0,0.0,0.0,0.0,0.0,0.0,0.0,0.0,0.0,0.0,0.0,0.0,0.0,0.0,0.0,0.0,0.0,0.0,0.0,0.0,0.0,0.0,0.0,0.0,0.0,0.0,0.0,0.0,0.0,0.0,0.0,0.0,0.0,0.0,0.0,0.0,0.0,0.0,0.0,0.0,0.0,0.0,0.0,0.0,0.0,0.0,0.0,0.0,0.0,0.0,0.0,0.0,0.0,0.0,0.0,0.0,0.0,0.0,0.0,0.0,0.0,0.0,0.0,0.0,0.0,0.0,0.0,0.0,0.0,0.0,0.0,0.0,0.0,0.0,0.0,0.0,0.0,0.0,0.0,0.0,0.0,0.0,0.0,0.0,0.0,0.0,0.0,0.0,0.0,0.0,0.0,0.0,0.0,0.0,0.0,0.0,0.0,0.0,0.0,0.0,0.0,0.0,0.0,0.0,0.0,0.0,0.0,0.0,0.0,0.0,0.0,0.0,0.0,0.0,0.0,0.0,0.0,0.0,0.0,0.0,0.0,0.0,0.0,0.0,0.0,0.0,0.0,0.0,0.0,0.0,0.0,0.0,0.0,0.0,0.0,0.0,0.0,0.0,0.0,0.0,0.0,0.0,0.0,0.0,0.0,0.0,0.0,0.0,0.0,0.0,0.0,0.0,0.0,0.0,0.0,0.0,0.0,0.0,0.0,0.0,0.0,0.0,0.0,0.0,0.0,0.0,0.0,0.0,0.0,0.0,0.0,0.0,0.0,0.0,0.0,0.0,0.0,0.0,0.0,0.0,0.0,0.0,0.0,0.0,0.0,0.0,0.0,0.0,0.0,0.0,0.0,0.0,0.0,0.0,0.0,0.0,0.0,0.0,0.0,0.0,0.0,0.0,0.0,0.0,0.0,0.0,0.0,0.0,0.0,0.0,0.0,0.0,0.0,0.0,0.0,0.0,0.0,0.0,0.0,0.0,0.0,0.0,0.0,0.0,0.0,0.0,0.0,0.0,0.0,0.0,0.0,0.0,0.0,0.0,0.0,0.0,0.0,0.0,0.0,0.0,0.0,0.0,0.0,0.0,0.0,0.0,0.0,0.0,0.0,0.0,0.0,0.0,0.0,0.0,0.0,0.0,0.0,0.0,0.0,0.0,0.0,0.0,0.0,0.0,0.0,0.0,0.0,0.0,0.0,0.0,0.0,0.0,0.0,0.0,0.0,0.0,0.0,0.0,0.0,0.0,0.0,0.0,0.0,0.0,0.0,0.0,0.0,0.0,0.0,0.0,0.0,0.0,0.0,0.0,0.0,0.0,0.0,0.0,0.0,0.0,0.0,0.0,0.0,0.0,0.0,0.0,0.0,0.0,0.0,0.0,0.0,0.0,0.0,0.0,0.0,0.0,0.0,0.0,0.0,0.0,0.0,0.0,0.0,0.0,0.0,0.0,0.0,0.0,0.0,0.0,0.0,0.0,0.0,0.0,0.0,0.0,0.0,0.0,0.0,0.0,0.0,0.0,0.0,0.0,0.0,0.0,0.0,0.0,0.0,0.0,0.0,0.0,0.0,0.0,0.0,0.0,0.0,0.0,0.0,0.0,0.0,0.0,0.0,0.0,0.0,0.0,0.0,0.0,0.0,0.0,0.0,0.0,0.0,0.0,0.0,0.0,0.0,0.0,0.0,0.0,0.0,0.0,0.0,0.0,0.0,0.0,0.0,0.0,0.0,0.0,0.0,0.0,0.0,0.0,0.0,0.0,0.0,0.0,0.0,0.0,0.0,0.0,0.0,0.0,0.0,0.0,0.0,0.0,0.0,0.0,0.0,0.0,0.0,0.0,0.0,0.0,0.0,0.0,0.0,0.0,0.0,0.0,0.0,0.0,0.0,0.0,0.0,0.0,0.0,0.0,0.0,0.0,0.0,0.0,0.0,0.0,0.0,0.0,0.0,0.0,0.0,0.0,0.0,0.0,0.0,0.0,0.0,0.0,0.0,0.0,0.0,0.0,0.0,0.0,0.0,0.0,0.0,0.0,0.0,0.0,0.0,0.0,0.0,0.0,0.0,0.0,0.0,0.0,0.0,0.0,0.0,0.0,0.0,0.0,0.0,0.0,0.0,0.0,0.0,0.0,0.0,0.0,0.0,0.0,0.0,0.0,0.0,0.0,0.0,0.0,0.0,0.0,0.0,0.0,0.0,0.0,0.0,0.0,0.0,0.0,0.0,0.0,0.0,0.0,0.0,0.0,0.0,0.0,0.0,0.0,0.0,0.0,0.0,0.0,0.0,0.0,0.0,0.0,0.0,0.0,0.0,0.0,0.0,0.0,0.0,0.0,0.0,0.0,0.0,0.0,0.0,0.0,0.0,0.0,0.0,0.0,0.0,0.0,0.0,0.0,0.0,0.0,0.0,0.0,0.0,0.0,0.0,0.0,0.0,0.0,0.0,0.0,0.0,0.0,0.0,0.0,0.0,0.0,0.0,0.0,0.0,0.0,0.0,0.0,0.0,0.0,0.0,0.0,0.0,0.0,0.0,0.0,0.0,0.0,0.0,0.0,0.0,0.0,0.0,0.0,0.0,0.0,0.0,0.0,0.0,0.0,0.0,0.0,0.0,0.0,0.0,0.0,0.0,0.0,0.0,0.0,0.0,0.0,0.0,0.0,0.0,0.0,0.0,0.0,0.0,0.0,0.0,0.0,0.0,0.0,0.0,0.0,0.0,0.0,0.0,0.0,0.0,0.0,0.0,0.0,0.0,0.0,0.0,0.0,0.0,0.0,0.0,0.0,0.0,0.0,0.0,0.1096,0.0,0.0,0.0,0.0,0.0,0.0,0.0,0.0,0.0,0.0,0.0,0.0,0.0,0.0,0.0,0.0,0.0,0.0,0.0,0.0,0.0,0.0,0.0,0.0,0.0,0.0,0.0,0.0,0.0,0.0,0.0,0.0,0.0,0.0,0.0,0.0,0.0,0.0,0.0,0.0,0.0,0.0,0.0,0.0,0.0,0.0,0.0,0.0,0.0,0.0,0.0,0.0,0.0,0.0,0.0,0.0,0.0,0.0,0.0,0.0,0.0,0.0,0.0,0.0,0.0,0.0,0.0,0.0,0.0,0.0,0.0,0.0,0.0,0.0,0.0,0.0,0.0,0.0,0.0,0.0,0.0,0.0,0.0,0.0,0.0,0.0,0.0,0.0,0.0,0.0,0.0,0.0,0.0,0.0,0.0,0.0,0.0,0.0,0.0,0.0,0.0,0.0,0.0,0.0,0.0,0.0,0.0,0.0,0.0,0.0,0.1096,0.1096,0.1096,0.1096,0.1096,0.0,0.0,0.0,0.0,0.0,0.0,0.0,0.0,0.0,0.0,0.0,0.0,0.0,0.0,0.0,0.0,0.0,0.0,0.0,0.0,0.0,0.0,0.0,0.0,0.0,0.0,0.0,0.0,0.0,0.0,0.0,0.0,0.0,0.0,0.0,0.0,0.0,0.0,0.0,0.0,0.0,0.0,0.0,0.0,0.0,0.0,0.0,0.0,0.0,0.0,0.0,0.0,0.0,0.0,0.0,0.0,0.0,0.0,0.0,0.0,0.0,0.0,0.0,0.0,0.0,0.0,0.0,0.0,0.0,0.0,0.0,0.0,0.0,0.0,0.0,0.0,0.0,0.0,0.0,0.0,0.0,0.0,0.0,0.0,0.0,0.0,0.0,0.0,0.0,0.0,0.0,0.0,0.0,0.0,0.0,0.0,0.0,0.0,0.0,0.0,0.0,0.0,0.0,0.0,0.0,0.0,0.0,0.0,0.0,0.0,0.0,0.0,0.1187,0.1196,0.1152,0.0,0.0,0.0,0.0,0.0,0.0,0.0,0.0,0.0,0.0,0.0,0.0,0.0,0.0,0.0,0.0,0.0,0.0,0.0,0.0,0.0,0.0,0.0,0.0,0.0,0.0,0.0,0.0,0.0,0.0,0.0,0.0,0.0,0.0,0.0,0.0,0.0,0.0,0.0,0.0,0.0,0.0,0.0,0.0,0.0,0.0,0.0,0.0,0.0,0.0,0.0,0.0,0.0,0.0,0.0,0.0,0.0,0.0,0.0,0.0,0.0,0.0,0.0,0.0,0.0,0.0,0.0,0.0,0.0,0.0,0.0,0.0,0.0,0.0,0.0,0.0,0.0,0.0,0.0,0.0,0.0,0.0,0.0,0.0,0.0,0.0,0.0,0.0,0.0,0.0,0.0,0.0,0.0,0.0,0.0,0.0,0.0,0.0,0.0,0.0,0.0,0.0,0.0,0.0,0.0,0.0,0.0,0.0,0.0,0.0,0.1704,0.1301,0.1459,0.0,0.1301,0.0,0.0,0.0,0.0,0.0,0.0,0.0,0.0,0.0,0.0,0.0,0.0,0.0,0.0,0.0,0.0,0.0,0.0,0.0,0.0,0.0,0.0,0.0,0.0,0.0,0.0,0.0,0.0,0.0,0.0,0.0,0.0,0.0,0.0,0.0,0.0,0.0,0.0,0.0,0.0,0.0,0.0,0.0,0.0,0.0,0.0,0.0,0.0,0.0,0.0,0.0,0.0,0.0,0.0,0.0,0.0,0.0,0.0,0.0,0.0,0.0,0.0,0.0,0.0,0.0,0.0,0.0,0.0,0.0,0.0,0.0,0.0,0.0,0.0,0.0,0.0,0.0,0.0,0.0,0.0,0.0,0.0,0.0,0.0,0.0,0.0,0.0,0.0,0.0,0.0,0.0,0.0,0.0,0.0,0.0,0.0,0.0,0.0,0.0,0.0,0.0,0.0,0.0,0.0,0.0,0.0,0.0,0.0,0.0,0.0,0.1494,0.1318,0.1377,0.1386,0.0,0.0,0.0,0.0,0.0,0.0,0.0,0.0,0.0,0.0,0.0,0.0,0.0,0.0,0.0,0.0,0.0,0.0,0.0,0.0,0.0,0.0,0.0,0.0,0.0,0.0,0.0,0.0,0.0,0.0,0.0,0.0,0.0,0.0,0.0,0.0,0.0,0.0,0.0,0.0,0.0,0.0,0.0,0.0,0.0,0.0,0.0,0.0,0.0,0.0,0.0,0.0,0.0,0.0,0.0,0.0,0.0,0.0,0.0,0.0,0.0,0.0,0.0,0.0,0.0,0.0,0.0,0.0,0.0,0.0,0.0,0.0,0.0,0.0,0.0,0.0,0.0,0.0,0.0,0.0,0.0,0.0,0.0,0.0,0.0,0.0,0.0,0.0,0.0,0.0,0.0,0.0,0.0,0.0,0.0,0.0,0.0,0.0,0.0,0.0,0.0,0.0,0.0,0.0,0.0,0.0,0.0,0.0,0.0,0.0,0.1824,0.1804,0.1692,0.16,0.1499,0.1326,0.0,0.0,0.0,0.0,0.0,0.0,0.0,0.0,0.0,0.0,0.0,0.0,0.0,0.0,0.0,0.0,0.0,0.0,0.0,0.0,0.0,0.0,0.0,0.0,0.0,0.0,0.0,0.0,0.0,0.0,0.0,0.0,0.0,0.0,0.0,0.0,0.0,0.0,0.0,0.0,0.0,0.0,0.0,0.0,0.0,0.0,0.0,0.0,0.0,0.0,0.0,0.0,0.0,0.0,0.0,0.0,0.0,0.0,0.0,0.0,0.0,0.0,0.0,0.0,0.0,0.0,0.0,0.0,0.0,0.0,0.0,0.0,0.0,0.0,0.0,0.0,0.0,0.0,0.0,0.0,0.0,0.0,0.0,0.0,0.0,0.0,0.0,0.0,0.0,0.0,0.0,0.0,0.0,0.0,0.0,0.0,0.0,0.0,0.0,0.0,0.0,0.0,0.0,0.0,0.0,0.0,0.0,0.0,0.2128,0.286,0.3086,0.264,0.2397,0.1991,0.0,0.0,0.0,0.0,0.0,0.0,0.0,0.0,0.0,0.0,0.0,0.0,0.0,0.0,0.0,0.0,0.0,0.0,0.0,0.0,0.0,0.0,0.0,0.0,0.0,0.0,0.0,0.0,0.0,0.0,0.0,0.0,0.0,0.0,0.0,0.0,0.0,0.0,0.0,0.0,0.0,0.0,0.0,0.0,0.0,0.0,0.0,0.0,0.0,0.0,0.0,0.0,0.0,0.0,0.0,0.0,0.0,0.0,0.0,0.0,0.0,0.0,0.0,0.0,0.0,0.0,0.0,0.0,0.0,0.0,0.0,0.0,0.0,0.0,0.0,0.0,0.0,0.0,0.0,0.0,0.0,0.0,0.0,0.0,0.0,0.0,0.0,0.0,0.0,0.0,0.0,0.0,0.0,0.0,0.0,0.0,0.0,0.0,0.0,0.0,0.0,0.0,0.0,0.0,0.0,0.0,0.0,0.0,0.0,0.2693,0.3064,0.318,0.3025,0.2926,0.2743,0.0,0.0,0.0,0.0,0.0,0.0,0.0,0.0,0.0,0.0,0.0,0.0,0.0,0.0,0.0,0.0,0.0,0.0,0.0,0.0,0.0,0.0,0.0,0.0,0.0,0.0,0.0,0.0,0.0,0.0,0.0,0.0,0.0,0.0,0.0,0.0,0.0,0.0,0.0,0.0,0.0,0.0,0.0,0.0,0.0,0.0,0.0,0.0,0.0,0.0,0.0,0.0,0.0,0.0,0.0,0.0,0.0,0.0,0.0,0.0,0.0,0.0,0.0,0.0,0.0,0.0,0.0,0.0,0.0,0.0,0.0,0.0,0.0,0.0,0.0,0.0,0.0,0.0,0.0,0.0,0.0,0.0,0.0,0.0,0.0,0.0,0.0,0.0,0.0,0.0,0.0,0.0,0.0,0.0,0.0,0.0,0.0,0.0,0.0,0.0,0.0,0.0,0.0,0.0,0.0,0.0,0.0,0.0,0.0,0.344,0.0,0.3565,0.3499,0.3488,0.3356,0.0,0.0,0.0,0.0,0.0,0.0,0.0,0.0,0.0,0.0,0.0,0.0,0.0,0.0,0.0,0.0,0.0,0.0,0.0,0.0,0.0,0.0,0.0,0.0,0.0,0.0,0.0,0.0,0.0,0.0,0.0,0.0,0.0,0.0,0.0,0.0,0.0,0.0,0.0,0.0,0.0,0.0,0.0,0.0,0.0,0.0,0.0,0.0,0.0,0.0,0.0,0.0,0.0,0.0,0.0,0.0,0.0,0.0,0.0,0.0,0.0,0.0,0.0,0.0,0.0,0.0,0.0,0.0,0.0,0.0,0.0,0.0,0.0,0.0,0.0,0.0,0.0,0.0,0.0,0.0,0.0,0.0,0.0,0.0,0.0,0.0,0.0,0.0,0.0,0.0,0.0,0.0,0.0,0.0,0.0,0.0,0.0,0.0,0.0,0.0,0.0,0.0,0.0,0.0,0.0,0.0,0.0,0.0,0.4057,0.4387,0.4395,0.4307,0.4107,0.4123,0.3832,0.0,0.0,0.0,0.0,0.0,0.0,0.0,0.0,0.0,0.0,0.0,0.0,0.0,0.0,0.0,0.0,0.0,0.0,0.0,0.0,0.0,0.0,0.0,0.0,0.0,0.0,0.0,0.0,0.0,0.0,0.0,0.0,0.0,0.0,0.0,0.0,0.0,0.0,0.0,0.0,0.0,0.0,0.0,0.0,0.0,0.0,0.0,0.0,0.0,0.0,0.0,0.0,0.0,0.0,0.0,0.0,0.0,0.0,0.0,0.0,0.0,0.0,0.0,0.0,0.0,0.0,0.0,0.0,0.0,0.0,0.0,0.0,0.0,0.0,0.0,0.0,0.0,0.0,0.0,0.0,0.0,0.0,0.0,0.0,0.0,0.0,0.0,0.0,0.0,0.0,0.0,0.0,0.0,0.0,0.0,0.0,0.0,0.0,0.0,0.0,0.0,0.0,0.0,0.0,0.0,0.0,0.0,0.0,0.0,0.4884,0.5118,0.505,0.4673,0.4967,0.4875,0.0,0.0,0.0,0.0,0.0,0.0,0.0,0.0,0.0,0.0,0.0,0.0,0.0,0.0,0.0,0.0,0.0,0.0,0.0,0.0,0.0,0.0,0.0,0.0,0.0,0.0,0.0,0.0,0.0,0.0,0.0,0.0,0.0,0.0,0.0,0.0,0.0,0.0,0.0,0.0,0.0,0.0,0.0,0.0,0.0,0.0,0.0,0.0,0.0,0.0,0.0,0.0,0.0,0.0,0.0,0.0,0.0,0.0,0.0,0.0,0.0,0.0,0.0,0.0,0.0,0.0,0.0,0.0,0.0,0.0,0.0,0.0,0.0,0.0,0.0,0.0,0.0,0.0,0.0,0.0,0.0,0.0,0.0,0.0,0.0,0.0,0.0,0.0,0.0,0.0,0.0,0.0,0.0,0.0,0.0,0.0,0.0,0.0,0.0,0.0,0.0,0.0,0.0,0.0,0.0,0.0,0.0,0.0,0.0,0.5739,0.5712,0.5567,0.5282,0.5555,0.5505,0.5054,0.0,0.0,0.0,0.0,0.0,0.0,0.0,0.0,0.0,0.0,0.0,0.0,0.0,0.0,0.0,0.0,0.0,0.0,0.0,0.0,0.0,0.0,0.0,0.0,0.0,0.0,0.0,0.0,0.0,0.0,0.0,0.0,0.0,0.0,0.0,0.0,0.0,0.0,0.0,0.0,0.0,0.0,0.0,0.0,0.0,0.0,0.0,0.0,0.0,0.0,0.0,0.0,0.0,0.0,0.0,0.0,0.0,0.0,0.0,0.0,0.0,0.0,0.0,0.0,0.0,0.0,0.0,0.0,0.0,0.0,0.0,0.0,0.0,0.0,0.0,0.0,0.0,0.0,0.0,0.0,0.0,0.0,0.0,0.0,0.0,0.0,0.0,0.0,0.0,0.0,0.0,0.0,0.0,0.0,0.0,0.0,0.0,0.0,0.0,0.0,0.0,0.0,0.0,0.0,0.0,0.0,0.0,0.0,0.6825,0.6285,0.5997,0.5939,0.5933,0.5791,0.0,0.0,0.0,0.0,0.0,0.0,0.0,0.0,0.0,0.0,0.0,0.0,0.0,0.0,0.0,0.0,0.0,0.0,0.0,0.0,0.0,0.0,0.0,0.0,0.0,0.0,0.0,0.0,0.0,0.0,0.0,0.0,0.0,0.0,0.0,0.0,0.0,0.0,0.0,0.0,0.0,0.0,0.0,0.0,0.0,0.0,0.0,0.0,0.0,0.0,0.0,0.0,0.0,0.0,0.0,0.0,0.0,0.0,0.0,0.0,0.0,0.0,0.0,0.0,0.0,0.0,0.0,0.0,0.0,0.0,0.0,0.0,0.0,0.0,0.0,0.0,0.0,0.0,0.0,0.0,0.0,0.0,0.0,0.0,0.0,0.0,0.0,0.0,0.0,0.0,0.0,0.0,0.0,0.0,0.0,0.0,0.0,0.0,0.0,0.0,0.0,0.0,0.0,0.0,0.0,0.0,0.0,0.0,0.0,0.7084,0.7226,0.7003,0.6383,0.6476,0.6317,0.0,0.0,0.0,0.0,0.0,0.0,0.0,0.0,0.0,0.0,0.0,0.0,0.0,0.0,0.0,0.0,0.0,0.0,0.0,0.0,0.0,0.0,0.0,0.0,0.0,0.0,0.0,0.0,0.0,0.0,0.0,0.0,0.0,0.0,0.0,0.0,0.0,0.0,0.0,0.0,0.0,0.0,0.0,0.0,0.0,0.0,0.0,0.0,0.0,0.0,0.0,0.0,0.0,0.0,0.0,0.0,0.0,0.0,0.0,0.0,0.0,0.0,0.0,0.0,0.0,0.0,0.0,0.0,0.0,0.0,0.0,0.0,0.0,0.0,0.0,0.0,0.0,0.0,0.0,0.0,0.0,0.0,0.0,0.0,0.0,0.0,0.0,0.0,0.0,0.0,0.0,0.0,0.0,0.0,0.0,0.0,0.0,0.0,0.0,0.0,0.0,0.0,0.0,0.0,0.0,0.0,0.0,0.0,0.7289,0.7476,0.7991,0.8024,0.7442,0.7122,0.6699,0.0,0.0,0.0,0.0,0.0,0.0,0.0,0.0,0.0,0.0,0.0,0.0,0.0,0.0,0.0,0.0,0.0,0.0,0.0,0.0,0.0,0.0,0.0,0.0,0.0,0.0,0.0,0.0,0.0,0.0,0.0,0.0,0.0,0.0,0.0,0.0,0.0,0.0,0.0,0.0,0.0,0.0,0.0,0.0,0.0,0.0,0.0,0.0,0.0,0.0,0.0,0.0,0.0,0.0,0.0,0.0,0.0,0.0,0.0,0.0,0.0,0.0,0.0,0.0,0.0,0.0,0.0,0.0,0.0,0.0,0.0,0.0,0.0,0.0,0.0,0.0,0.0,0.0,0.0,0.0,0.0,0.0,0.0,0.0,0.0,0.0,0.0,0.0,0.0,0.0,0.0,0.0,0.0,0.0,0.0,0.0,0.0,0.0,0.0,0.0,0.0,0.0,0.0,0.0,0.0,0.0,0.0,0.0,0.7849,0.7881,0.8652,0.8939,0.8698,0.7753,0.6997,0.0,0.0,0.0,0.0,0.0,0.0,0.0,0.0,0.0,0.0,0.0,0.0,0.0,0.0,0.0,0.0,0.0,0.0,0.0,0.0,0.0,0.0,0.0,0.0,0.0,0.0,0.0,0.0,0.0,0.0,0.0,0.0,0.0,0.0,0.0,0.0,0.0,0.0,0.0,0.0,0.0,0.0,0.0,0.0,0.0,0.0,0.0,0.0,0.0,0.0,0.0,0.0,0.0,0.0,0.0,0.0,0.0,0.0,0.0,0.0,0.0,0.0,0.0,0.0,0.0,0.0,0.0,0.0,0.0,0.0,0.0,0.0,0.0,0.0,0.0,0.0,0.0,0.0,0.0,0.0,0.0,0.0,0.0,0.0,0.0,0.0,0.0,0.0,0.0,0.0,0.0,0.0,0.0,0.0,0.0,0.0,0.0,0.0,0.0,0.0,0.0,0.0,0.0,0.0,0.0,0.0,0.0,0.0,0.8031,0.8505,0.8984,0.9145,0.8937,0.7951,0.7281,0.0,0.0,0.0,0.0,0.0,0.0,0.0,0.0,0.0,0.0,0.0,0.0,0.0,0.0,0.0,0.0,0.0,0.0,0.0,0.0,0.0,0.0,0.0,0.0,0.0,0.0,0.0,0.0,0.0,0.0,0.0,0.0,0.0,0.0,0.0,0.0,0.0,0.0,0.0,0.0,0.0,0.0,0.0,0.0,0.0,0.0,0.0,0.0,0.975,0.0,0.0,0.0,0.0,0.0,0.0,0.0,0.0,0.0,0.0,0.0,0.0,0.0,0.0,0.0,0.0,0.0,0.0,0.0,0.0,0.0,0.0,0.0,0.0,0.0,0.0,0.0,0.0,0.0,0.0,0.0,0.0,0.0,0.0,0.0,0.0,0.0,0.0,0.0,0.0,0.0,0.0,0.0,0.0,0.0,0.0,0.0,0.0,0.0,0.0,0.0,0.0,0.0,0.0,0.0,0.0,0.0,0.0,0.0,0.8344,0.8826,0.9233,0.9388,0.9265,0.8493,0.7821,0.0,0.0,0.0,0.0,0.0,0.0,0.0,0.0,0.0,0.0,0.0,0.0,0.0,0.0,0.0,0.0,0.0,0.0,0.0,0.0,0.0,0.0,0.0,0.0,0.0,0.0,0.0,0.0,0.0,0.0,0.0,0.0,0.0,0.0,0.0,0.0,0.0,0.0,0.0,0.0,0.0,0.0,0.0,0.0,0.0,0.0,0.0,0.0,0.0,0.0,0.0,0.0,0.0,0.0,0.0,0.0,0.0,0.0,0.0,0.0,0.0,0.0,0.0,0.0,0.0,0.0,0.0,0.0,0.0,0.0,0.0,0.0,0.0,0.0,0.0,0.0,0.0,0.0,0.0,0.0,0.0,0.0,0.0,0.0,0.0,0.0,0.0,0.0,0.0,0.0,0.0,0.0,0.0,0.0,0.0,0.0,0.0,0.0,0.0,0.0,0.0,0.0,0.0,0.0,0.0,0.0,0.0,0.8051,0.8609,0.9077,0.9423,0.958,0.9493,0.8947,0.8308,0.76,0.0,0.0,0.0,0.0,0.0,0.0,0.0,0.0,0.0,0.0,0.0,0.0,0.0,0.0,0.0,0.0,0.0,0.0,0.0,0.0,0.0,0.0,0.0,0.0,0.0,0.0,0.0,0.0,0.0,0.0,0.0,0.0,0.0,0.0,0.0,0.0,0.0,0.0,0.9501,0.9467,0.0,0.0,0.0,0.0,0.0,0.0,0.0,0.0,1.0584,0.0,0.0,0.0,0.0,0.0,0.0,0.0,0.0,0.0,0.0,0.0,0.0,0.0,0.0,0.0,0.0,0.0,0.0,0.0,0.0,0.0,0.0,0.0,0.0,0.0,0.0,0.0,0.0,0.0,0.0,0.0,0.0,0.0,0.0,0.0,0.0,0.0,0.0,0.0,0.0,0.0,0.0,0.0,0.0,0.0,0.0,0.0,0.0,0.0,0.0,0.0,0.0,0.0,0.0,0.0,0.0,0.8184,0.8317,0.8758,0.9493,0.9569,0.9406,0.9034,0.8632,0.8291,0.7919,0.0,0.0,0.0,0.0,0.0,0.0,0.0,0.0,0.0,0.0,0.0,0.0,0.0,0.0,0.0,0.0,0.0,0.0,0.0,0.0,0.0,0.0,0.0,0.0,0.0,0.0,0.0,0.0,0.0,0.0,0.0,0.0,0.0,0.0,0.0,0.0,0.0,0.0,0.0,1.0422,1.0105,0.0,0.0,0.0,0.0,0.0,0.0,0.0,0.0,1.3023,0.0,0.0,0.0,0.0,0.0,0.0,0.0,0.0,0.0,0.0,0.0,0.0,0.0,0.0,0.0,0.0,0.0,0.0,0.0,0.0,0.0,0.0,0.0,0.0,0.0,0.0,0.0,0.0,0.0,0.0,0.0,0.0,0.0,0.0,0.0,0.0,0.0,0.0,0.0,0.0,0.0,0.0,0.0,0.0,0.0,0.0,0.0,0.0,0.0,0.0,0.0,0.0,0.0,0.0,0.0,0.8373,0.8713,0.9111,0.9575,0.9602,0.9428,0.9122,0.8745,0.8377,0.0,0.0,0.0,0.0,0.0,0.0,0.0,0.0,0.0,0.0,0.0,0.0,0.0,0.0,0.0,0.0,0.0,0.0,0.0,0.0,0.0,0.0,0.0,0.0,0.0,0.0,0.0,0.0,0.0,0.0,0.0,0.0,0.0,0.0,0.0,0.0,0.0,0.0,0.0,0.0,1.1433,1.1734,1.203,0.0,0.0,0.0,0.0,0.0,0.0,1.3346,1.3346,0.0,0.0,0.0,0.0,0.0,0.0,0.0,0.0,0.0,0.0,0.0,0.0,0.0,0.0,0.0,0.0,0.0,0.0,0.0,0.0,0.0,0.0,0.0,0.0,0.0,0.0,0.0,0.0,0.0,0.0,0.0,0.0,0.0,0.0,0.0,0.0,0.0,0.0,0.0,0.0,0.0,0.0,0.0,0.0,0.0,0.0,0.0,0.0,0.0,0.0,0.0,0.0,0.0,0.0,0.0,0.8467,0.9034,0.938,0.9519,0.9537,0.9415,0.9165,0.8701,0.8319,0.0,0.0,0.0,0.0,0.0,0.0,0.0,0.0,0.0,0.0,0.0,0.0,0.0,0.0,0.0,0.0,0.0,0.0,0.0,0.0,0.0,0.0,0.0,0.0,0.0,0.0,0.0,0.0,0.0,0.0,0.0,0.0,0.0,0.0,0.0,0.0,0.0,0.0,0.0,0.0,0.0,1.3095,1.3222,1.3378,0.0,0.0,0.0,0.0,1.341,1.3632,0.0,0.0,0.0,0.0,0.0,0.0,0.0,0.0,0.0,0.0,0.0,0.0,0.0,0.0,0.0,0.0,0.0,0.0,0.0,0.0,0.0,0.0,0.0,0.0,0.0,0.0,0.0,0.0,0.0,0.0,0.0,0.0,0.0,0.0,0.0,0.0,0.0,0.0,0.0,0.0,0.0,0.0,0.0,0.0,0.0,0.0,0.0,0.0,0.0,0.0,0.0,0.0,0.0,0.0,0.0,0.0,0.8656,0.908,0.9296,0.9344,0.9327,0.913,0.8692,0.8004,0.7683,0.0,0.0,0.0,0.0,0.0,0.0,0.0,0.0,0.0,0.0,0.0,0.0,0.0,0.0,0.0,0.0,0.0,0.0,0.0,0.0,0.0,0.0,0.0,0.0,0.0,0.0,0.0,0.0,0.0,0.0,0.0,0.0,0.0,0.0,0.0,0.0,0.0,0.0,0.0,0.0,0.0,1.298,1.3406,1.3137,1.2953,0.0,0.0,1.4824,1.4488,1.5453,0.0,0.0,0.0,0.0,0.0,0.0,0.0,0.0,0.0,0.0,0.0,0.0,0.0,0.0,0.0,0.0,0.0,0.0,0.0,0.0,0.0,0.0,0.0,0.0,0.0,0.0,0.0,0.0,0.0,0.0,0.0,0.0,0.0,0.0,0.0,0.0,0.0,0.0,0.0,0.0,0.0,0.0,0.0,0.0,0.0,0.0,0.0,0.0,0.0,0.0,0.0,0.0,0.0,0.0,0.0,0.8272,0.8533,0.9041,0.9268,0.9224,0.9138,0.8933,0.8604,0.7882,0.7557,0.0,0.0,0.0,0.0,0.0,0.0,0.0,0.0,0.0,0.0,0.0,0.0,0.0,0.0,0.0,0.0,0.0,0.0,0.0,0.0,0.0,0.0,0.0,0.0,0.0,0.0,0.0,0.0,0.0,0.0,0.0,0.0,0.0,0.0,0.0,0.0,0.0,0.0,0.0,0.0,0.0,0.0,1.4101,1.3957,0.0,0.0,0.0,1.444,1.4075,0.0,0.0,0.0,0.0,0.0,0.0,0.0,0.0,0.0,0.0,0.0,0.0,0.0,0.0,0.0,0.0,0.0,0.0,0.0,0.0,0.0,0.0,0.0,0.0,0.0,0.0,0.0,0.0,0.0,0.0,0.0,0.0,0.0,0.0,0.0,0.0,0.0,0.0,0.0,0.0,0.0,0.0,0.0,0.0,0.0,0.0,0.0,0.0,0.0,0.0,0.0,0.0,0.0,0.0,0.0,0.0,0.0,0.8412,0.9081,0.9361,0.9241,0.9072,0.8868,0.8639,0.8037,0.0,0.0,0.0,0.0,0.0,0.0,0.0,0.0,0.0,0.0,0.0,0.0,0.0,0.0,0.0,0.0,0.0,0.0,0.0,0.0,0.0,0.0,0.0,0.0,0.0,0.0,0.0,0.0,0.0,0.0,0.0,0.0,0.0,0.0,0.0,0.0,0.0,0.0,0.0,0.0,0.0,0.0,1.4557,1.447,1.4534,1.462,0.0,0.0,1.4347,1.4252,1.516,1.543,0.0,0.0,0.0,0.0,0.0,0.0,0.0,0.0,0.0,0.0,0.0,0.0,0.0,0.0,0.0,0.0,0.0,0.0,0.0,0.0,0.0,0.0,0.0,0.0,0.0,0.0,0.0,0.0,0.0,0.0,0.0,0.0,0.0,0.0,0.0,0.0,0.0,0.0,0.0,0.0,0.0,0.0,0.0,0.0,0.0,0.0,0.0,0.0,0.0,0.0,0.0,0.0,0.0,0.0,0.0,0.8409,0.9292,0.9636,0.9397,0.9258,0.9052,0.8796,0.8438,0.802,0.0,0.0,0.0,0.0,0.0,0.0,0.0,0.0,0.0,0.0,0.0,0.0,0.0,0.0,0.0,0.0,0.0,0.0,0.0,0.0,0.0,0.0,0.0,0.0,0.0,0.0,0.0,0.0,0.0,0.0,0.0,0.0,0.0,0.0,0.0,0.0,0.0,0.0,0.0,0.0,0.0,1.447,1.4097,1.4365,1.4722,0.0,0.0,1.5351,1.5936,1.6889,1.7037,1.5367,0.0,0.0,0.0,0.0,0.0,0.0,0.0,0.0,0.0,0.0,0.0,0.0,0.0,0.0,0.0,0.0,0.0,0.0,0.0,0.0,0.0,0.0,0.0,0.0,0.0,0.0,0.0,0.0,0.0,0.0,0.0,0.0,0.0,0.0,0.0,0.0,0.0,0.0,0.0,0.0,0.0,0.0,0.0,0.0,0.0,0.0,0.0,0.0,0.0,0.0,0.0,0.0,0.0,0.8284,0.8162,0.9066,0.9546,0.9525,0.9385,0.9294,0.9168,0.894,0.8452,0.0,0.0,0.0,0.0,0.0,0.0,0.0,0.0,0.0,0.0,0.0,0.0,0.0,0.0,0.0,0.0,0.0,0.0,0.0,0.0,0.0,0.0,0.0,0.0,0.0,0.0,0.0,0.0,1.4269,1.4333,1.3681,0.0,0.0,0.0,0.0,0.0,0.0,0.0,0.0,0.0,0.0,1.4505,1.525,1.5455,0.0,0.0,1.6645,1.6655,1.6254,1.6926,1.6894,1.5107,1.4837,0.0,0.0,0.0,0.0,0.0,0.0,0.0,0.0,0.0,0.0,0.0,0.0,0.0,0.0,0.0,0.0,0.0,0.0,0.0,0.0,0.0,0.0,0.0,0.0,0.0,0.0,0.0,0.0,0.0,0.0,0.0,0.0,0.0,0.0,0.0,0.0,0.0,0.0,0.0,0.0,0.0,0.0,0.0,0.0,0.0,0.0,0.0,0.0,0.0,0.0,0.0,0.0,0.8243,0.8097,0.9103,0.9681,0.9778,0.9608,0.951,0.9461,0.9396,0.8957,0.0,0.0,0.0,0.0,0.0,0.0,0.0,0.0,0.0,0.0,0.0,0.0,0.0,0.0,0.0,0.0,0.0,0.0,0.0,0.0,0.0,0.0,0.0,0.0,0.0,0.0,0.0,0.0,1.4699,1.4587,1.3823,0.0,0.0,0.0,0.0,0.0,0.0,0.0,0.0,0.0,0.0,1.4967,1.5933,1.6108,1.6287,1.6748,1.6826,1.6651,1.6126,1.6476,1.6433,1.5282,0.0,0.0,0.0,0.0,0.0,0.0,0.0,0.0,0.0,0.0,0.0,0.0,0.0,0.0,0.0,0.0,0.0,0.0,0.0,0.0,0.0,0.0,0.0,0.0,0.0,0.0,0.0,0.0,0.0,0.0,0.0,0.0,0.0,0.0,0.0,0.0,0.0,0.0,0.0,0.0,0.0,0.0,0.0,0.0,0.0,0.0,0.0,0.0,0.0,0.0,0.0,0.0,0.0,0.0,0.83,0.9527,1.017,1.017,0.9999,0.9803,0.9624,0.9786,0.9535,0.8797,0.0,0.0,0.0,0.0,0.0,0.0,0.0,0.0,0.0,0.0,0.0,0.0,0.0,0.0,0.0,0.0,0.0,0.0,0.0,0.0,0.0,0.0,0.0,0.0,0.0,0.0,1.2853,1.3553,1.4107,0.0,0.0,0.0,0.0,0.0,0.0,0.0,0.0,0.0,0.0,1.4929,1.594,1.5724,1.5976,1.6055,1.5817,1.5199,1.4964,1.565,1.5748,1.5828,0.0,0.0,0.0,0.0,0.0,0.0,0.0,0.0,0.0,0.0,0.0,0.0,0.0,0.0,0.0,0.0,0.0,0.0,0.0,0.0,0.0,0.0,0.0,0.0,0.0,0.0,0.0,0.7008,0.6452,0.0,0.0,0.0,0.0,0.0,0.0,0.0,0.0,0.0,0.0,0.0,0.8091,0.8322,0.0,0.0,0.0,0.0,0.0,0.0,0.0,0.0,0.0,0.0,0.0,0.0,0.8584,0.8558,0.9705,1.0339,1.0339,1.0282,1.0199,1.0142,1.0331,1.0087,0.9356,0.0,0.0,0.0,0.0,0.0,0.0,0.0,0.0,0.0,0.0,0.0,0.0,0.0,0.0,0.0,0.0,0.0,0.0,0.0,0.0,0.0,0.0,0.0,0.0,0.0,1.3966,0.0,0.0,0.0,0.0,0.0,0.0,0.0,0.0,0.0,0.0,0.0,1.4093,1.4182,1.419,1.4495,1.531,1.5177,1.5319,0.0,0.0,0.0,0.0,0.0,0.0,0.0,0.0,0.0,0.0,0.0,0.0,0.0,0.0,1.5459,1.4776,1.5205,1.5646,1.5682,0.0,0.0,0.0,0.0,0.0,0.0,0.0,0.0,0.0,0.0,0.0,0.0,0.0,0.0,0.0,0.0,0.6638,0.0,0.0,0.0,0.0,0.0,0.0,0.0,0.0,0.8196,0.8392,0.8501,0.8784,0.8906,0.0,0.8911,0.8425,0.0,0.0,0.0,0.0,0.0,0.0,0.0,0.0,0.8763,0.8714,0.9884,1.0531,1.0615,1.0623,1.059,1.0507,1.0574,1.0412,1.0006,0.9379,0.8983,0.0,0.0,0.0,0.0,0.0,0.0,0.0,0.0,0.0,0.0,0.0,0.0,0.0,0.0,0.0,0.0,0.0,0.0,0.0,0.0,0.0,0.0,0.0,1.4098,0.0,0.0,0.0,0.0,0.0,0.0,0.0,0.0,0.0,1.3179,1.3896,1.4428,1.4328,1.4095,1.4109,1.4725,0.0,0.0,0.0,0.0,0.0,0.0,0.0,1.592,1.5599,1.5742,1.6011,1.6397,1.6524,1.6683,1.7032,0.0,0.0,1.5968,1.6249,1.6757,1.6884,1.69,1.7032,1.7403,1.7467,1.753,0.0,0.0,0.0,0.0,0.0,0.0,0.0,0.0,0.4853,0.4795,0.0,0.5829,0.0,0.0,0.0,0.0,0.0,0.0,0.0,0.0,0.9239,0.93,0.8846,0.9047,0.9137,0.912,0.8865,0.8702,0.8677,0.8979,0.0,0.0,0.0,0.0,0.0,0.0,0.8822,0.8895,1.0095,1.0821,1.0992,1.1,1.0919,1.072,1.0531,1.0515,1.0664,1.021,1.0036,1.0255,0.9252,0.0,0.0,0.0,0.0,0.0,0.0,0.0,0.0,0.0,0.0,0.0,0.0,0.0,0.0,0.0,0.0,0.0,0.0,0.0,0.0,1.3857,0.0,0.0,0.0,0.0,0.0,0.0,0.0,0.0,0.0,0.0,1.3272,1.3774,1.4117,1.3828,0.0,0.0,0.0,0.0,1.5457,1.4026,1.4255,1.461,1.4671,1.5229,1.6032,1.7043,0.0,0.0,1.8711,1.8027,1.7562,1.7848,1.8755,1.8898,1.7181,1.6979,1.7091,1.7435,1.7578,1.7578,1.7848,1.8166,1.8119,0.389,0.0,0.0,0.0,0.0,0.4713,0.4488,0.4162,0.4929,0.4789,0.4198,0.6106,0.0,0.0,0.0,0.0,0.0,0.0,0.84,0.8612,0.89,0.9146,0.9381,0.9738,0.9925,1.0021,1.0071,1.0113,1.0113,1.034,0.9632,0.8012,0.0,0.0,0.0,0.0,0.9413,0.9828,1.0631,1.1094,1.1122,1.1151,1.1126,1.107,1.0993,1.0964,1.0919,1.077,1.0546,1.0316,0.9987,0.0,0.0,0.0,0.0,0.0,0.0,0.0,0.0,0.0,0.0,0.0,0.0,0.0,0.0,0.0,0.0,0.0,0.0,0.0,1.4314,1.498,1.4984,0.0,0.0,0.0,0.0,0.0,0.0,0.0,0.0,0.0,1.3862,1.3899,1.3931,0.0,0.0,1.3468,1.3215,1.3506,1.3707,1.3591,0.0,0.0,0.0,1.5361,1.5576,1.6076,1.7413,1.8466,1.8556,1.9297,1.9908,1.9987,2.0257,2.0289,1.9876,1.9693,1.9709,1.9876,2.0058,2.0248,2.0359,2.0575,2.0785,0.348,0.4171,0.403,0.4003,0.4046,0.405,0.3861,0.3624,0.4242,0.4112,0.3614,0.5362,0.6154,0.6274,0.7806,0.0,0.0,0.0,0.8908,0.9249,0.9307,0.9527,0.9843,1.0136,1.0363,1.0515,1.072,1.0834,1.0899,1.0802,1.0134,0.8984,0.0,0.0,0.8805,0.9462,0.9941,1.0282,1.0899,1.1228,1.13,1.1236,1.1195,1.1195,1.1086,1.0997,1.1,1.1,1.0993,1.1011,1.0767,1.0498,0.0,0.0,0.0,0.0,0.0,0.0,0.0,0.0,0.0,0.0,0.0,1.2273,0.0,0.0,0.0,0.0,1.4035,1.4554,1.4822,1.4981,0.0,0.0,0.0,0.0,0.0,0.0,0.0,1.3101,1.3779,1.4239,1.3979,1.3832,1.3794,1.3933,1.3566,1.3238,1.3153,0.0,1.3804,1.3979,1.4311,1.4784,1.5528,1.5681,1.5948,1.6739,1.8075,1.9075,1.9277,2.0081,2.0724,2.0851,2.0899,2.0899,2.0899,2.0899,2.0947,2.1074,2.1254,2.1454,2.1597,2.1814,2.2011,0.3131,0.3127,0.2807,0.2779,0.2922,0.2925,0.2985,0.3111,0.3111,0.305,0.3004,0.4074,0.489,0.5629,0.749,0.0,0.0,0.9437,0.9747,1.0186,1.0186,1.0202,1.0261,1.0371,1.055,1.0737,1.0935,1.1098,1.1163,1.0725,1.0474,1.0426,1.0442,1.0158,0.964,1.0085,1.0369,1.0417,1.0895,1.1281,1.1513,1.1292,1.1195,1.1187,1.0907,1.081,1.0992,1.1,1.132,1.1979,1.1535,1.1415,1.1723,0.0,0.0,0.0,0.0,0.0,0.0,0.0,0.0,0.0,0.0,0.0,0.0,0.0,0.0,0.0,1.5104,0.0,1.5457,1.4521,0.0,0.0,0.0,1.3632,1.4267,1.3979,1.3789,1.3904,0.0,0.0,0.0,0.0,1.3762,1.4352,1.4146,1.3867,1.3672,1.454,1.5177,1.4943,1.5213,1.5529,1.5917,1.6225,1.6881,1.8117,1.9294,1.9895,2.0199,2.0584,2.0698,2.0997,2.1069,2.1153,2.1121,2.1232,2.1216,2.1645,2.1507,2.1518,2.1798,2.1984,2.2107,0.2599,0.2592,0.25,0.2704,0.3144,0.312,0.3161,0.3185,0.3163,0.3147,0.3199,0.4422,0.559,0.6709,0.8055,0.8724,0.883,0.974,1.0168,1.0186,1.0186,1.0359,1.0558,1.0607,1.0794,1.1057,1.1114,1.1183,1.1195,1.1211,1.1037,1.0655,1.0769,1.0398,0.9494,0.9689,0.9996,1.0409,1.0688,1.1045,1.1476,1.1292,1.1195,1.1195,1.1114,1.1053,1.1,1.1,1.1204,1.1677,1.1573,1.1522,1.1554,1.1979,0.0,0.0,0.0,0.0,0.0,0.0,0.0,0.0,0.0,1.2357,1.2455,0.0,1.3444,0.0,1.5594,1.6803,1.7304,1.6868,0.0,0.0,1.5188,1.4701,1.3894,1.4388,1.4447,1.3412,1.3903,1.428,1.4208,1.4147,1.4461,1.5368,1.4811,1.4401,1.4733,1.5362,1.5834,1.5948,1.6332,1.6758,1.6971,1.7331,1.7651,1.8011,1.9013,1.9763,1.986,2.1133,2.2008,2.1856,2.2376,2.2798,2.2835,2.2883,2.2994,2.326,2.2359,2.1412,2.1534,2.2005,2.2477,0.243,0.243,0.243,0.2611,0.2918,0.2974,0.3002,0.3027,0.3156,0.3206,0.3285,0.449,0.54,0.6188,0.7344,0.7818,0.781,0.8487,0.8784,0.8825,0.8825,0.925,1.0074,1.0081,1.0529,1.1317,1.1346,1.1386,1.1468,1.1573,1.1497,1.1212,1.1383,1.0968,1.0015,0.9892,1.0014,1.0314,1.0647,1.1106,1.1589,1.1443,1.1171,1.0855,1.0766,1.059,1.0318,1.0276,1.0504,1.0924,1.1002,1.1075,1.1098,1.1466,1.1412,0.0,0.0,0.0,0.0,0.0,0.0,0.0,0.0,0.0,0.0,0.0,1.4548,0.0,1.6053,0.0,1.6664,1.5717,1.5044,1.4901,1.4436,1.4027,1.3718,1.4316,1.4497,1.3861,1.4505,1.5149,1.533,1.5258,1.5523,1.6492,1.6019,1.5707,1.5993,1.6404,1.6767,1.6968,1.717,1.7339,1.7467,1.7912,1.8247,1.8348,1.9114,1.9961,2.0435,2.1349,2.2182,2.2421,2.2907,2.3279,2.3279,2.3422,2.3581,2.3657,2.3197,2.2708,2.2787,2.3276,2.3721,0.2411,0.2405,0.2405,0.2402,0.2392,0.2626,0.2718,0.2769,0.2997,0.3101,0.318,0.4203,0.4691,0.4828,0.5993,0.6508,0.6501,0.6722,0.6881,0.6997,0.6997,0.7692,0.8945,0.9126,0.9908,1.1199,1.1414,1.1592,1.1806,1.1806,1.1774,1.1717,1.1817,1.1468,1.0675,1.0365,1.0194,1.0188,1.0683,1.1188,1.1622,1.1386,1.0936,1.0336,1.0176,0.9893,0.9445,0.9413,0.9623,1.0075,1.0255,1.0462,1.0689,1.0412,1.049,0.0,1.0607,0.0,0.0,0.0,0.0,0.0,0.0,0.0,0.0,1.4949,1.5391,1.6501,1.6143,1.5667,1.5163,1.3542,1.2893,1.3817,1.3156,1.2891,1.3653,1.3994,1.4304,1.4608,1.5162,1.5827,1.6546,1.6565,1.667,1.7339,1.7315,1.7186,1.7303,1.7465,1.7653,1.8004,1.7871,1.7822,1.784,1.8326,1.8724,1.8834,1.9502,2.0319,2.0914,2.1511,2.2045,2.2647,2.3113,2.3343,2.3292,2.3597,2.3819,2.3978,2.4243,2.4402,2.4386,2.4579,2.504,0.1929,0.1933,0.1931,0.1916,0.189,0.2115,0.2347,0.2557,0.2612,0.2638,0.2665,0.3147,0.3398,0.3594,0.5005,0.5521,0.537,0.6341,0.6657,0.644,0.644,0.6672,0.7159,0.8236,0.9053,0.9761,1.0801,1.1487,1.1806,1.1806,1.1587,1.1163,1.1188,1.0894,1.0325,0.0,0.0,0.0,1.0496,1.0794,1.0867,1.0298,0.9891,0.9736,0.9721,0.0,0.9559,0.9551,0.9722,1.0073,1.0136,0.0,0.0,0.0,0.0,0.0,0.0,0.0,0.0,0.0,0.0,0.0,1.3508,1.3555,1.3648,1.3672,1.398,1.4776,1.4679,1.4883,1.5663,1.5131,1.4635,1.4476,1.4219,1.3926,1.3586,1.3851,1.4318,1.4854,1.5343,1.6,1.6805,1.6988,1.7165,1.7661,1.7962,1.8173,1.8336,1.8227,1.8324,1.8766,1.8753,1.8778,1.8802,1.8911,1.9006,1.9148,1.9857,2.0193,1.9918,2.1667,2.2669,2.2222,2.3414,2.463,2.4676,2.4961,2.5169,2.5611,2.5929,2.5802,2.4498,2.4482,2.48,0.1831,0.0,0.1846,0.1836,0.0,0.1917,0.202,0.2156,0.2448,0.2562,0.2602,0.277,0.288,0.3011,0.3807,0.4082,0.3998,0.4654,0.4837,0.4684,0.4657,0.5065,0.5766,0.6461,0.7251,0.8155,0.9438,1.0165,1.0354,1.1156,1.1431,1.1256,1.1522,1.1521,1.1232,1.1187,1.0968,1.055,1.0729,1.0984,1.12,1.0875,1.0517,1.0176,0.0,0.0,0.0,0.0,0.0,0.0,0.0,0.0,0.0,0.0,0.0,1.2064,1.22,1.2471,1.294,1.2908,1.3033,1.3471,1.3398,1.3614,1.4195,1.457,1.4932,1.5285,1.4671,1.4496,1.5094,1.4396,1.3864,1.3859,1.3739,1.3538,1.3369,1.3781,1.4267,1.4589,1.517,1.5776,1.6344,1.6467,1.6683,1.7169,1.7394,1.7702,1.8257,1.8581,1.8826,1.9036,1.9104,1.9104,1.9104,1.9104,1.9104,1.92,1.952,1.9826,1.9858,2.1082,2.2045,2.2059,2.3049,2.3982,2.4699,2.5055,2.5541,2.6261,2.6725,2.6692,2.5771,2.5755,2.5914,0.1929,0.1894,0.1894,0.1891,0.1884,0.183,0.182,0.1844,0.0,0.0,0.0,0.2597,0.2651,0.2749,0.2846,0.2867,0.2847,0.2883,0.2901,0.2839,0.2808,0.3394,0.4382,0.4647,0.5329,0.6496,0.7766,0.8561,0.8891,1.025,1.1126,1.1549,1.2011,1.2257,1.2337,1.2135,1.1843,1.1438,1.1163,1.1212,1.1644,1.157,1.1236,1.0642,1.0599,1.0322,0.9729,0.9721,0.9705,0.9722,1.0119,1.0451,1.0637,1.0999,1.1319,1.152,1.1529,1.185,1.2522,1.2466,1.2683,1.3391,1.3306,1.3652,1.476,1.541,1.5763,1.5716,1.4702,1.4136,1.4288,1.3283,1.2758,1.3164,1.306,1.3051,1.3222,1.3771,1.4202,1.4389,1.4966,1.5555,1.593,1.6034,1.6123,1.6571,1.6774,1.6903,1.772,1.8524,1.896,1.8868,1.8816,1.888,1.888,1.888,1.8944,1.9072,1.9168,1.9424,2.0004,2.0387,2.095,2.1795,2.2245,2.298,2.4036,2.4773,2.5375,2.623,2.6862,2.7167,2.7134,2.7167,2.7121,0.1948,0.1895,0.1895,0.188,0.1885,0.1881,0.188,0.1905,0.1901,0.1918,0.1928,0.2219,0.24,0.2493,0.2768,0.2792,0.2582,0.2558,0.2406,0.0,0.2131,0.2237,0.2449,0.3529,0.4331,0.4906,0.6137,0.7556,0.8939,0.9267,1.0202,1.157,1.1854,1.2099,1.2499,1.2353,1.2304,1.2385,1.1473,1.1033,1.1106,1.0658,1.0373,1.0276,1.0284,1.0227,1.0121,1.0121,1.0117,1.0121,1.0188,1.0612,1.1449,1.1374,1.1759,1.2729,1.2833,1.2965,1.323,1.3391,1.3523,1.3627,1.3618,1.3556,1.341,1.3643,1.3731,1.3582,1.3576,1.3519,1.3529,1.3384,1.3334,1.3561,1.358,1.36,1.3608,1.3888,1.4255,1.4771,1.5136,1.5597,1.6202,1.6381,1.6466,1.6808,1.6754,1.6958,1.7249,1.827,1.872,1.8323,1.813,1.813,1.8162,1.8162,1.8366,1.9008,1.9188,1.9112,1.8829,1.9524,2.0241,2.0562,2.1415,2.2431,2.3373,2.463,2.5226,2.5472,2.6252,2.7,2.6833,2.6967,2.7134,0.2048,0.2004,0.2003,0.1994,0.2012,0.1964,0.1948,0.1966,0.1937,0.1888,0.1864,0.2072,0.2155,0.2198,0.2352,0.2341,0.2217,0.2217,0.2165,0.2055,0.2055,0.2031,0.2105,0.266,0.3018,0.328,0.447,0.5552,0.6353,0.7216,0.8274,0.9408,1.0557,1.168,1.2629,1.2532,1.2515,1.258,1.1987,1.1695,1.1687,1.1451,1.1281,1.1175,1.1175,1.1155,1.1065,1.1065,1.1053,1.1064,1.1187,1.1487,1.1933,1.2203,1.2576,1.3138,1.3312,1.3524,1.3712,1.3807,1.3816,1.3703,1.3797,1.3788,1.3599,1.359,1.3543,1.3448,1.3534,1.3599,1.3712,1.3721,1.3807,1.4005,1.4024,1.4024,1.4052,1.4213,1.4439,1.4741,1.4969,1.5221,1.5641,1.5661,1.5713,1.5856,1.6169,1.6451,1.6494,1.7271,1.7852,1.7518,1.7453,1.7453,1.7453,1.7453,1.7615,1.7937,1.8148,1.8164,1.7862,1.8457,1.8818,1.9048,1.9888,2.0925,2.1969,2.3385,2.4331,2.5138,2.5794,2.6398,2.6432,2.6499,2.6666,0.2096,0.2096,0.2096,0.2096,0.2095,0.2038,0.2012,0.202,0.2016,0.2,0.1928,0.2015,0.2027,0.2027,0.2028,0.2008,0.2027,0.2029,0.2041,0.2095,0.2096,0.21,0.2105,0.21,0.2103,0.2212,0.3114,0.3724,0.4188,0.5386,0.6454,0.7379,0.9417,1.1068,1.2198,1.2433,1.2556,1.2645,1.2491,1.2393,1.2304,1.2304,1.2239,1.2078,1.2054,1.1997,1.1906,1.1929,1.1898,1.1929,1.2126,1.2247,1.2361,1.2738,1.3024,1.3174,1.3444,1.3746,1.4012,1.4033,1.3958,1.3854,1.4033,1.4125,1.4147,1.4043,1.392,1.3844,1.3835,1.392,1.4109,1.4125,1.4201,1.4389,1.4449,1.4418,1.4436,1.4568,1.4672,1.4691,1.4804,1.4889,1.4898,1.4898,1.4964,1.5062,1.5421,1.5724,1.5861,1.6306,1.6577,1.6674,1.6729,1.6785,1.6806,1.6838,1.6967,1.7043,1.7159,1.7265,1.7216,1.7252,1.742,1.7837,1.8315,1.9186,2.0374,2.1665,2.2867,2.3788,2.48,2.5659,2.6078,2.6136,2.6185,0.2098,0.2096,0.2099,0.2096,0.2098,0.2093,0.2044,0.2022,0.2078,0.2042,0.2016,0.2042,0.2088,0.2088,0.2087,0.2088,0.2092,0.2092,0.2093,0.2098,0.2096,0.2111,0.2101,0.211,0.2125,0.2202,0.2316,0.3008,0.4106,0.4378,0.5382,0.7051,0.8823,0.9896,1.0492,1.1681,1.2446,1.2775,1.2767,1.2605,1.2328,1.2304,1.2296,1.228,1.228,1.2248,1.2239,1.2255,1.2255,1.2255,1.2279,1.2413,1.2662,1.2476,1.2591,1.3123,1.3243,1.356,1.416,1.4118,1.4069,1.422,1.4408,1.4531,1.454,1.4682,1.4616,1.4355,1.426,1.4345,1.4512,1.454,1.4597,1.4757,1.4804,1.4842,1.4814,1.4861,1.487,1.487,1.488,1.4898,1.4898,1.4917,1.4927,1.4964,1.5105,1.5251,1.5376,1.5504,1.5672,1.5793,1.5959,1.6171,1.6293,1.6354,1.6604,1.7204,1.7019,1.6797,1.6749,1.654,1.6312,1.7147,1.7493,1.7994,1.8659,1.9611,2.0825,2.2031,2.3243,2.4515,2.5656,2.6054,2.6083,0.2141,0.2093,0.2143,0.215,0.215,0.2152,0.2143,0.2134,0.2145,0.2143,0.2135,0.2145,0.2131,0.2098,0.2096,0.2106,0.209,0.2091,0.2101,0.215,0.215,0.2157,0.2133,0.2157,0.2165,0.2186,0.2175,0.2476,0.2991,0.3264,0.4166,0.5633,0.6698,0.7593,0.8623,1.0227,1.1127,1.1292,1.2264,1.2734,1.2605,1.2588,1.2572,1.2467,1.2458,1.2402,1.232,1.2304,1.2304,1.2304,1.2304,1.2336,1.2493,1.254,1.2622,1.2826,1.3281,1.3695,1.3985,1.4332,1.4559,1.4676,1.4729,1.4776,1.4776,1.4851,1.4814,1.4691,1.4644,1.4691,1.4757,1.4776,1.4814,1.4889,1.4898,1.4898,1.4898,1.4898,1.4898,1.4898,1.4898,1.4908,1.4917,1.5002,1.5158,1.5262,1.53,1.5328,1.5413,1.5422,1.5494,1.5585,1.5707,1.5783,1.5894,1.587,1.6088,1.6292,1.6309,1.623,1.6288,1.6269,1.626,1.6628,1.6991,1.7308,1.7675,1.8821,1.9947,2.0721,2.2044,2.3727,2.5388,2.5741,2.5845,0.2062,0.2125,0.2179,0.2189,0.2189,0.2189,0.2183,0.2178,0.2185,0.2213,0.2165,0.2214,0.2159,0.2114,0.2117,0.2135,0.212,0.2121,0.2133,0.2188,0.2189,0.2189,0.2189,0.2189,0.2189,0.2189,0.2188,0.2188,0.2223,0.2425,0.3096,0.4065,0.4766,0.5663,0.6827,0.8557,0.9525,0.9697,1.1002,1.167,1.1663,1.2033,1.2374,1.2621,1.2637,1.258,1.2458,1.2418,1.245,1.2418,1.245,1.245,1.245,1.2633,1.2723,1.273,1.3282,1.3766,1.3952,1.4415,1.4744,1.4856,1.4898,1.4898,1.4898,1.4898,1.4898,1.4889,1.4898,1.4889,1.4898,1.4898,1.4898,1.4898,1.4898,1.4898,1.4898,1.4936,1.4983,1.4983,1.5068,1.5068,1.5087,1.5233,1.5385,1.5532,1.5579,1.5627,1.5665,1.5674,1.5693,1.575,1.5769,1.574,1.5693,1.5742,1.5684,1.5788,1.5946,1.6047,1.5987,1.6138,1.6214,1.6461,1.6815,1.6956,1.6991,1.7991,1.896,1.9518,2.0839,2.2544,2.361,2.4205,2.4559,0.1838,0.2182,0.2188,0.2189,0.2189,0.2189,0.2171,0.2116,0.2175,0.2156,0.2117,0.2163,0.217,0.2109,0.2165,0.2183,0.2185,0.2183,0.2185,0.2189,0.2189,0.2189,0.2189,0.2189,0.2189,0.2189,0.2189,0.2189,0.2189,0.2223,0.2223,0.2423,0.3665,0.4501,0.5131,0.6731,0.7769,0.8097,0.8734,0.8939,0.9072,1.0207,1.1497,1.2545,1.2783,1.2767,1.2759,1.2775,1.2767,1.2775,1.275,1.2767,1.2759,1.267,1.2757,1.2997,1.321,1.3621,1.4165,1.4193,1.4355,1.4796,1.4833,1.4898,1.4898,1.4898,1.4898,1.4898,1.4917,1.4927,1.4917,1.4908,1.4908,1.4917,1.4917,1.4917,1.4927,1.5106,1.5172,1.521,1.5366,1.5494,1.5541,1.557,1.5598,1.5627,1.5627,1.5684,1.5845,1.5882,1.5958,1.6081,1.6129,1.611,1.593,1.5882,1.5968,1.6043,1.6091,1.6141,1.616,1.6214,1.6214,1.6223,1.6365,1.6391,1.6285,1.6673,1.7414,1.8336,1.9724,2.1143,2.2271,2.1895,2.2347,0.1834,0.2188,0.2189,0.2189,0.2189,0.2189,0.2171,0.211,0.2153,0.2102,0.2109,0.2108,0.212,0.211,0.2174,0.2189,0.2189,0.2189,0.2189,0.2189,0.2189,0.2189,0.2189,0.2189,0.2189,0.2189,0.2189,0.2189,0.2189,0.2189,0.2189,0.2256,0.2692,0.3026,0.3461,0.5165,0.6231,0.6464,0.7769,0.8607,0.864,0.9968,1.0969,1.1472,1.2338,1.2799,1.2799,1.2799,1.2799,1.2799,1.2799,1.2799,1.2783,1.2661,1.2628,1.2781,1.302,1.3294,1.3544,1.3849,1.4131,1.452,1.4572,1.4702,1.4833,1.4898,1.4898,1.4917,1.503,1.5087,1.5068,1.4983,1.4955,1.5068,1.5096,1.5144,1.5309,1.5394,1.5441,1.5485,1.556,1.5636,1.5794,1.5788,1.5845,1.5958,1.5996,1.6015,1.6072,1.6065,1.6129,1.616,1.6223,1.6195,1.6129,1.6065,1.6093,1.6176,1.6178,1.6169,1.6214,1.6214,1.6223,1.6223,1.6223,1.6223,1.6223,1.6323,1.6889,1.7968,1.9329,1.9946,2.1198,2.0901,2.1321,0.1746,0.2008,0.215,0.2189,0.2189,0.2189,0.2164,0.2098,0.2105,0.2114,0.2084,0.2087,0.2067,0.2091,0.2165,0.2182,0.2175,0.2183,0.2189,0.2189,0.2189,0.2189,0.2189,0.2189,0.2189,0.2189,0.2189,0.2189,0.2189,0.2189,0.2189,0.2189,0.2189,0.2189,0.249,0.3897,0.4699,0.5031,0.6372,0.7178,0.7374,0.8607,0.9305,0.9504,1.0704,1.1934,1.27,1.2799,1.2799,1.2799,1.2799,1.2799,1.2791,1.2726,1.2653,1.2686,1.2881,1.3075,1.3222,1.3552,1.3884,1.4202,1.4342,1.4506,1.4735,1.4889,1.4993,1.503,1.5181,1.5337,1.5276,1.5215,1.5196,1.5309,1.5337,1.5394,1.557,1.5646,1.5721,1.5788,1.5816,1.5873,1.5968,1.5996,1.6062,1.6204,1.6223,1.6223,1.6223,1.6223,1.6223,1.6223,1.6223,1.6223,1.6185,1.6141,1.6141,1.6204,1.6223,1.6223,1.6223,1.6223,1.6223,1.6223,1.6223,1.6223,1.6242,1.6271,1.6901,1.7888,1.8176,1.8566,1.9385,1.997,2.0113,0.157,0.1655,0.2041,0.2155,0.2154,0.2185,0.2152,0.211,0.2093,0.2056,0.2034,0.2068,0.204,0.2049,0.2142,0.2168,0.2121,0.2172,0.2186,0.2188,0.2189,0.2189,0.2189,0.2189,0.2189,0.2189,0.2189,0.2189,0.2189,0.2189,0.2189,0.2189,0.2189,0.2189,0.2189,0.2959,0.3329,0.3568,0.4313,0.4585,0.4512,0.6031,0.6837,0.6862,0.8166,1.0073,1.2468,1.2617,1.2601,1.2667,1.2766,1.2799,1.2799,1.2783,1.2791,1.2783,1.2824,1.2997,1.3325,1.3391,1.3531,1.3877,1.422,1.4421,1.4574,1.495,1.521,1.5238,1.5432,1.5598,1.5598,1.5598,1.5589,1.5598,1.5598,1.5608,1.5665,1.5788,1.5968,1.6129,1.6157,1.6204,1.6214,1.6185,1.6195,1.6204,1.6223,1.6223,1.6223,1.6223,1.6223,1.6223,1.6223,1.6223,1.6223,1.6223,1.6223,1.6223,1.6223,1.6223,1.6223,1.6223,1.6223,1.6223,1.6223,1.6223,1.6252,1.6299,1.6424,1.7155,1.7179,1.7476,1.8051,1.8564,1.823,0.1007,0.1305,0.1646,0.1784,0.1815,0.2032,0.2132,0.2095,0.2053,0.2019,0.2023,0.2026,0.2004,0.2033,0.2103,0.2131,0.2109,0.212,0.2168,0.2185,0.2188,0.2188,0.2189,0.2189,0.2189,0.2189,0.2189,0.2189,0.2189,0.2189,0.2189,0.2189,0.2189,0.2189,0.2225,0.2627,0.2972,0.3307,0.3754,0.4147,0.4526,0.5797,0.652,0.6692,0.7957,0.9228,0.9946,1.0853,1.1306,1.138,1.2272,1.2799,1.2807,1.2799,1.2799,1.2799,1.2799,1.284,1.2939,1.3013,1.3236,1.3643,1.4044,1.4457,1.4791,1.5177,1.5417,1.5479,1.5674,1.5797,1.5826,1.5949,1.5904,1.5816,1.5807,1.5863,1.5968,1.6062,1.6138,1.6195,1.6223,1.6223,1.6223,1.6223,1.6223,1.6223,1.6223,1.6223,1.6223,1.6223,1.6223,1.6223,1.6223,1.6223,1.6223,1.6223,1.6223,1.6223,1.6223,1.6223,1.6223,1.6223,1.6223,1.6223,1.6223,1.6242,1.6271,1.6384,1.6528,1.6708,1.7083,1.7226,1.7275,1.7322,1.7369,0.0636,0.0909,0.1414,0.1582,0.1647,0.1956,0.2093,0.2093,0.2031,0.2003,0.2017,0.2007,0.2012,0.2014,0.2077,0.2106,0.2093,0.2104,0.212,0.2136,0.2171,0.2177,0.2186,0.2189,0.2189,0.2189,0.2189,0.2189,0.2189,0.2189,0.2195,0.2203,0.2206,0.2213,0.2255,0.2702,0.3126,0.3387,0.3841,0.4239,0.4614,0.5353,0.5838,0.5942,0.6705,0.7157,0.7256,0.8439,0.9716,1.0833,1.2224,1.3002,1.3035,1.301,1.3002,1.3035,1.3002,1.3043,1.3035,1.3093,1.3143,1.3511,1.3874,1.4196,1.4583,1.4987,1.5257,1.5284,1.5406,1.556,1.5579,1.5802,1.5891,1.5824,1.5945,1.6072,1.6195,1.6223,1.6214,1.6223,1.6223,1.6223,1.6223,1.6223,1.6223,1.6223,1.6223,1.6223,1.6223,1.6223,1.6223,1.6223,1.6223,1.6223,1.6223,1.6223,1.6223,1.6223,1.6223,1.6223,1.6223,1.6223,1.6223,1.6223,1.6223,1.6273,1.6311,1.6509,1.6689,1.6878,1.7057,1.7227,1.7341,1.735,1.7388,0.0499,0.0572,0.1245,0.1548,0.1613,0.1957,0.2094,0.2098,0.2031,0.2004,0.2021,0.2003,0.2001,0.2026,0.2062,0.2085,0.2098,0.2084,0.2099,0.2104,0.2105,0.2114,0.2177,0.2185,0.2189,0.2189,0.2189,0.219,0.2196,0.2196,0.2207,0.2199,0.2203,0.2181,0.2301,0.2943,0.3254,0.3472,0.4033,0.435,0.4501,0.4572,0.4642,0.4677,0.4785,0.4894,0.5139,0.6384,0.8273,1.0828,1.2353,1.3072,1.3318,1.3402,1.3336,1.3362,1.3394,1.337,1.3386,1.3345,1.3378,1.3445,1.3762,1.395,1.4147,1.4588,1.4876,1.4885,1.4991,1.5061,1.5132,1.5354,1.5558,1.5638,1.5929,1.6169,1.6214,1.6223,1.6223,1.6223,1.6223,1.6223,1.6223,1.6223,1.6223,1.6223,1.6223,1.6223,1.6223,1.6223,1.6223,1.6223,1.6223,1.6223,1.6223,1.6223,1.6223,1.6223,1.6223,1.6223,1.6223,1.6223,1.6223,1.6223,1.6271,1.632,1.6443,1.6642,1.6821,1.7001,1.7171,1.7322,1.7388,1.7388,1.7388,0.0134,0.0235,0.0909,0.1245,0.131,0.1856,0.2105,0.209,0.2041,0.2014,0.2005,0.2024,0.2016,0.201,0.2024,0.2011,0.2031,0.2041,0.2056,0.2069,0.2052,0.2075,0.2152,0.2178,0.2188,0.2188,0.2189,0.22,0.2187,0.2185,0.2203,0.2198,0.2195,0.2201,0.2279,0.2457,0.2857,0.3375,0.3627,0.4109,0.4569,0.4644,0.4652,0.4652,0.4649,0.4649,0.476,0.6084,0.8177,1.0813,1.142,1.2288,1.3186,1.3324,1.3332,1.3435,1.3427,1.3419,1.3419,1.3419,1.3476,1.3555,1.3884,1.4178,1.4357,1.4691,1.4903,1.4947,1.4999,1.4981,1.4981,1.5088,1.5257,1.5567,1.5931,1.6188,1.6223,1.6223,1.6223,1.6223,1.6223,1.6223,1.6223,1.6223,1.6223,1.6223,1.6223,1.6223,1.6223,1.6223,1.6223,1.6223,1.6223,1.6223,1.6223,1.6223,1.6223,1.6223,1.6223,1.6223,1.6223,1.6223,1.6223,1.6223,1.6356,1.6451,1.6575,1.6755,1.6934,1.7123,1.7218,1.7369,1.7378,1.7388,1.7388,0.0,0.0,0.0767,0.1101,0.1167,0.1818,0.2102,0.2082,0.2041,0.2011,0.2,0.2016,0.2008,0.2008,0.2009,0.2023,0.2016,0.2019,0.2029,0.2042,0.2042,0.206,0.2093,0.2121,0.2175,0.2188,0.2189,0.2206,0.2195,0.22,0.2182,0.2204,0.221,0.2216,0.2266,0.2441,0.2812,0.3413,0.3626,0.403,0.466,0.4674,0.4679,0.4693,0.4701,0.4701,0.4844,0.5568,0.7352,0.9636,1.0416,1.1047,1.2455,1.2637,1.2924,1.3491,1.363,1.3595,1.363,1.363,1.3644,1.3725,1.3997,1.4117,1.4227,1.4439,1.4546,1.451,1.4546,1.4546,1.4546,1.4652,1.5044,1.5505,1.5824,1.6037,1.6188,1.6223,1.6223,1.6223,1.6223,1.6223,1.6223,1.6223,1.6223,1.6223,1.6223,1.6223,1.6223,1.6223,1.6223,1.6223,1.6223,1.6223,1.6223,1.6223,1.6223,1.6223,1.6223,1.6223,1.6252,1.6261,1.6254,1.6292,1.6441,1.6593,1.6745,1.6916,1.7067,1.719,1.7312,1.7369,1.7378,1.7388,1.7388,0.0,0.0066,0.0789,0.1085,0.1183,0.1808,0.2121,0.2095,0.2033,0.2007,0.2019,0.201,0.2008,0.2008,0.2008,0.2021,0.2012,0.2009,0.2016,0.2029,0.2045,0.21,0.2114,0.2112,0.2168,0.2186,0.2189,0.2207,0.2193,0.22,0.2182,0.2204,0.221,0.2224,0.2344,0.2638,0.3092,0.3459,0.3803,0.4159,0.4577,0.4589,0.4627,0.4674,0.4699,0.469,0.469,0.4984,0.6069,0.8672,0.8966,0.9946,1.1279,1.165,1.2402,1.3535,1.3847,1.3855,1.388,1.3847,1.3872,1.388,1.388,1.3904,1.394,1.4011,1.4011,1.4047,1.3904,1.3975,1.4047,1.4296,1.4795,1.5363,1.5541,1.5789,1.6072,1.6223,1.6223,1.6223,1.6223,1.6223,1.6223,1.6223,1.6223,1.6223,1.6223,1.6223,1.6223,1.6223,1.6223,1.6223,1.6223,1.6223,1.6223,1.6223,1.6223,1.6223,1.6223,1.6233,1.6318,1.6337,1.6349,1.6424,1.6585,1.6764,1.6963,1.7114,1.7199,1.7265,1.7359,1.7378,1.7388,1.7388,1.7388,0.0,0.0066,0.0748,0.1004,0.1134,0.1782,0.2102,0.2092,0.2031,0.2014,0.2004,0.2017,0.2008,0.2008,0.2008,0.2012,0.2019,0.2021,0.2027,0.2022,0.2049,0.211,0.2132,0.2163,0.2179,0.2189,0.2189,0.2206,0.2193,0.2202,0.2214,0.2205,0.2206,0.2213,0.229,0.2627,0.3059,0.3439,0.3807,0.416,0.4461,0.4518,0.4531,0.4624,0.4671,0.4671,0.4649,0.4674,0.5026,0.5789,0.6942,0.8636,1.0689,1.1406,1.2201,1.3361,1.3833,1.3904,1.3904,1.3904,1.3904,1.3904,1.3904,1.3904,1.3904,1.3904,1.3904,1.3904,1.3904,1.3904,1.394,1.4261,1.4688,1.5079,1.5399,1.5718,1.6072,1.6223,1.6223,1.6223,1.6223,1.6223,1.6223,1.6223,1.6223,1.6223,1.6223,1.6223,1.6223,1.6223,1.6223,1.6223,1.6223,1.6223,1.6223,1.6233,1.6252,1.628,1.629,1.6311,1.6422,1.6507,1.6547,1.666,1.6793,1.6972,1.7142,1.7218,1.7322,1.7359,1.7388,1.7388,1.7388,1.7388,1.7388,0.0,0.0,0.0737,0.1022,0.1118,0.1768,0.2088,0.2074,0.2026,0.2011,0.203,0.2013,0.2008,0.2008,0.2008,0.2008,0.2012,0.2023,0.202,0.2056,0.208,0.2134,0.216,0.2178,0.2189,0.2189,0.2189,0.2206,0.2192,0.22,0.2207,0.2187,0.219,0.2187,0.219,0.2451,0.2876,0.3332,0.3575,0.3925,0.4412,0.4455,0.4471,0.4564,0.4622,0.4638,0.4619,0.4638,0.4671,0.4908,0.5535,0.6942,0.9105,1.0185,1.1263,1.2559,1.3611,1.3825,1.3904,1.3904,1.3904,1.3904,1.3904,1.3904,1.3904,1.3904,1.3904,1.3904,1.3904,1.3904,1.3904,1.4047,1.4403,1.491,1.5186,1.5576,1.6037,1.6223,1.6223,1.6223,1.6223,1.6223,1.6223,1.6223,1.6223,1.6223,1.6223,1.6223,1.6223,1.6223,1.6223,1.6223,1.6223,1.6223,1.6223,1.6242,1.629,1.6346,1.6367,1.6481,1.6604,1.6698,1.6793,1.6887,1.6972,1.7105,1.7256,1.7331,1.7388,1.7388,1.7388,1.7388,1.7388,1.7388,1.7388,0.0,0.0,0.0725,0.1007,0.1104,0.1752,0.2066,0.2015,0.2012,0.2028,0.2012,0.2008,0.2008,0.2008,0.2008,0.2009,0.2024,0.2023,0.203,0.2095,0.211,0.2161,0.2182,0.2186,0.2189,0.2189,0.2189,0.2204,0.2184,0.2193,0.2189,0.2193,0.2193,0.2193,0.2193,0.2303,0.2693,0.3292,0.3456,0.3794,0.433,0.4403,0.4412,0.4447,0.4578,0.4591,0.4581,0.4597,0.4633,0.4682,0.4696,0.5389,0.6583,0.81,0.9867,1.1442,1.2781,1.3468,1.3825,1.3904,1.3904,1.3904,1.3904,1.3904,1.3904,1.3904,1.3904,1.3904,1.3904,1.3904,1.3904,1.394,1.4261,1.4724,1.4937,1.5328,1.5895,1.6153,1.6223,1.6223,1.6223,1.6223,1.6223,1.6223,1.6223,1.6223,1.6223,1.6223,1.6223,1.6223,1.6223,1.6223,1.6223,1.6223,1.6223,1.6337,1.6365,1.646,1.649,1.666,1.6802,1.6878,1.6963,1.7038,1.7133,1.7256,1.7331,1.735,1.7388,1.7388,1.7388,1.7388,1.7388,1.7388,1.7388,0.0,0.0063,0.0717,0.0992,0.1116,0.1742,0.2023,0.2015,0.2017,0.2013,0.2009,0.2008,0.2008,0.2008,0.2008,0.202,0.2022,0.2061,0.2095,0.2116,0.2165,0.2185,0.2186,0.2189,0.2189,0.2189,0.2189,0.2195,0.2197,0.2196,0.2201,0.2199,0.2199,0.2199,0.2309,0.2525,0.2767,0.3241,0.3518,0.3901,0.4218,0.4352,0.4338,0.4371,0.4517,0.4542,0.4509,0.4556,0.4613,0.4627,0.4674,0.4838,0.5426,0.6656,0.86,1.0689,1.1843,1.2666,1.3432,1.386,1.3868,1.3904,1.3904,1.3904,1.3904,1.3904,1.3904,1.3904,1.3904,1.3904,1.3904,1.3904,1.4118,1.451,1.4839,1.5195,1.5647,1.5966,1.6153,1.6188,1.6188,1.6223,1.6223,1.6223,1.6223,1.6223,1.6223,1.6223,1.6223,1.6223,1.6223,1.6223,1.6223,1.6223,1.6223,1.6384,1.6498,1.6602,1.667,1.6849,1.6972,1.7038,1.7114,1.718,1.7218,1.7312,1.7369,1.7388,1.7388,1.7388,1.7388,1.7388,1.7388,1.7388,1.7388,0.0095,0.0312,0.0805,0.1112,0.1328,0.1791,0.2008,0.2008,0.2008,0.2008,0.2008,0.2008,0.2008,0.2012,0.2026,0.2022,0.2065,0.2091,0.2119,0.2165,0.2182,0.2189,0.2189,0.2189,0.2189,0.2189,0.2189,0.2189,0.2189,0.2189,0.2189,0.2189,0.2189,0.2189,0.2224,0.2371,0.2779,0.3137,0.3451,0.3796,0.4249,0.4333,0.4341,0.4349,0.4409,0.4444,0.4428,0.4442,0.455,0.46,0.4638,0.4668,0.4908,0.5535,0.6833,0.8997,1.0653,1.1836,1.2774,1.3317,1.3904,1.3904,1.3904,1.3904,1.3904,1.3904,1.3904,1.3904,1.3904,1.3904,1.3904,1.3904,1.4082,1.4403,1.4652,1.5008,1.547,1.5753,1.5966,1.6143,1.6188,1.6223,1.6223,1.6223,1.6223,1.6223,1.6223,1.6223,1.6223,1.6223,1.6223,1.6252,1.6271,1.6292,1.632,1.6471,1.6623,1.6736,1.6849,1.7029,1.7114,1.7171,1.7218,1.7265,1.7341,1.7378,1.7388,1.7388,1.7388,1.7388,1.7388,1.7388,1.7388,1.7388,1.7388,0.0188,0.0525,0.0864,0.1205,0.1514,0.1853,0.2008,0.2008,0.2008,0.2008,0.2008,0.2008,0.2012,0.2026,0.2024,0.2064,0.2109,0.2114,0.2167,0.2181,0.2188,0.2189,0.2189,0.2189,0.2189,0.2189,0.2189,0.2189,0.2189,0.2189,0.2189,0.2189,0.2189,0.2189,0.2224,0.2225,0.2625,0.2993,0.3228,0.3564,0.4119,0.436,0.4368,0.4319,0.4365,0.4398,0.4376,0.4401,0.4461,0.4526,0.4608,0.4638,0.4688,0.4701,0.528,0.6761,0.9466,1.0904,1.198,1.3067,1.3904,1.3904,1.3904,1.3904,1.3904,1.3904,1.3904,1.3904,1.3904,1.3904,1.3904,1.3904,1.4047,1.4261,1.4474,1.4724,1.5221,1.5612,1.586,1.6037,1.6153,1.6223,1.6223,1.6223,1.6223,1.6223,1.6223,1.6223,1.6223,1.6223,1.6233,1.629,1.6346,1.6405,1.65,1.6642,1.6802,1.6944,1.7067,1.7218,1.7275,1.735,1.7359,1.7341,1.7359,1.7388,1.7388,1.7388,1.7388,1.7388,1.7388,1.7388,1.7388,1.7388,1.7388,0.0219,0.0525,0.0864,0.1205,0.1544,0.1853,0.2008,0.2008,0.2008,0.2008,0.2008,0.201,0.2023,0.2023,0.2071,0.2099,0.2116,0.2167,0.2181,0.2189,0.2189,0.2189,0.2189,0.2189,0.2189,0.2189,0.2189,0.2189,0.2189,0.2189,0.2189,0.2189,0.2189,0.2189,0.2189,0.2189,0.2558,0.3094,0.3228,0.3598,0.4182,0.4362,0.4354,0.4338,0.436,0.4373,0.4349,0.4376,0.4442,0.4526,0.4583,0.4635,0.4688,0.4701,0.4738,0.5785,0.7661,1.0149,1.137,1.2745,1.3789,1.3789,1.3904,1.3904,1.3904,1.3904,1.3904,1.3904,1.3904,1.3904,1.3904,1.3904,1.394,1.4082,1.4296,1.4581,1.5044,1.5363,1.5647,1.6037,1.6188,1.6223,1.6223,1.6223,1.6223,1.6223,1.6223,1.6223,1.6242,1.6226,1.6299,1.6365,1.6498,1.6556,1.6679,1.6821,1.6963,1.7123,1.7237,1.735,1.7388,1.7388,1.7388,1.7378,1.7388,1.7388,1.7388,1.7388,1.7388,1.7388,1.7388,1.7388,1.7388,1.7388,1.7388,0.0311,0.0803,0.0957,0.1328,0.1761,0.1946,0.2008,0.2008,0.2008,0.2008,0.2012,0.2026,0.2026,0.2067,0.2101,0.2119,0.2167,0.2182,0.2188,0.2189,0.2189,0.2189,0.2189,0.2189,0.2189,0.2189,0.2189,0.2189,0.2189,0.2189,0.2189,0.2189,0.2189,0.2189,0.2189,0.2189,0.2591,0.3127,0.3598,0.3969,0.4213,0.433,0.4335,0.4311,0.4368,0.436,0.4346,0.4401,0.445,0.4493,0.4575,0.4635,0.4685,0.4701,0.4738,0.488,0.6728,0.8641,1.0185,1.1736,1.2853,1.3718,1.386,1.3904,1.3904,1.3904,1.3904,1.3904,1.3904,1.3904,1.3904,1.3904,1.3904,1.3975,1.4118,1.4474,1.483,1.5079,1.5399,1.5824,1.6223,1.6223,1.6223,1.6223,1.6223,1.6223,1.6223,1.6233,1.629,1.632,1.6377,1.6479,1.6594,1.6745,1.6878,1.701,1.7114,1.7246,1.7265,1.7359,1.7369,1.7388,1.7388,1.7388,1.7388,1.7388,1.7388,1.7388,1.7388,1.7388,1.7388,1.7388,1.7388,1.7388,1.7388,0.0463,0.0988,0.1019,0.139,0.1977,0.2008,0.2008,0.2008,0.2008,0.2012,0.2027,0.2024,0.2069,0.2104,0.2117,0.2168,0.2186,0.2189,0.2189,0.2189,0.2189,0.2189,0.2189,0.2189,0.2189,0.2189,0.2189,0.2189,0.2189,0.2189,0.2189,0.2189,0.2189,0.2189,0.2189,0.2255,0.2524,0.3194,0.3902,0.4238,0.4308,0.4308,0.4311,0.4324,0.4354,0.4376,0.4354,0.442,0.4477,0.4518,0.4583,0.4638,0.4688,0.4701,0.4701,0.4883,0.6003,0.7087,0.8817,1.0509,1.198,1.2996,1.3825,1.3904,1.3904,1.3904,1.3904,1.3904,1.3904,1.3904,1.3904,1.3904,1.3904,1.3904,1.394,1.4332,1.4724,1.4972,1.5257,1.5683,1.6037,1.6223,1.6223,1.6223,1.6223,1.6223,1.6223,1.6242,1.6356,1.6443,1.6575,1.6706,1.6783,1.6944,1.7095,1.7218,1.7312,1.7312,1.7359,1.7388,1.7388,1.7388,1.7388,1.7388,1.7388,1.7388,1.7388,1.7388,1.7388,1.7388,1.7388,1.7388,1.7388,1.7388,1.7388,0.0679,0.1019,0.1019,0.139,0.2008,0.2008,0.2008,0.2008,0.2008,0.2023,0.2022,0.2072,0.2099,0.2116,0.217,0.2183,0.2189,0.2189,0.2189,0.2189,0.2189,0.2189,0.2189,0.2189,0.2189,0.2189,0.2189,0.2189,0.2189,0.2189,0.2189,0.2189,0.2189,0.2189,0.2223,0.229,0.2591,0.3194,0.3902,0.4238,0.4272,0.4305,0.4305,0.4322,0.4362,0.4395,0.4395,0.4463,0.4504,0.4583,0.4608,0.463,0.4677,0.4696,0.4699,0.4847,0.4956,0.5931,0.7304,0.961,1.137,1.213,1.296,1.3904,1.3904,1.3904,1.3904,1.3904,1.3904,1.3904,1.3904,1.3904,1.3904,1.3904,1.394,1.4189,1.4546,1.4874,1.5186,1.5612,1.5895,1.6117,1.6226,1.6235,1.6242,1.6233,1.6318,1.6337,1.65,1.6642,1.6831,1.6944,1.702,1.7161,1.7284,1.7369,1.735,1.7341,1.7378,1.7388,1.7388,1.7388,1.7388,1.7388,1.7388,1.7388,1.7388,1.7388,1.7388,1.7388,1.7388,1.7388,1.7388,1.7388,1.7388,0.0833,0.1297,0.1297,0.1575,0.2008,0.2008,0.2008,0.2008,0.2008,0.2035,0.208,0.209,0.212,0.217,0.2179,0.2189,0.2189,0.2189,0.2189,0.2189,0.2189,0.2189,0.2189,0.2189,0.2189,0.2189,0.2189,0.2189,0.2189,0.2189,0.2189,0.2189,0.2189,0.2189,0.2223,0.2391,0.2759,0.3161,0.3698,0.407,0.4272,0.4305,0.4305,0.4313,0.4409,0.4422,0.4425,0.4567,0.4545,0.4551,0.4627,0.4649,0.4657,0.4682,0.4699,0.4701,0.4701,0.5062,0.6003,0.8528,1.0839,1.2888,1.3575,1.3904,1.3904,1.3904,1.3904,1.3904,1.3904,1.3904,1.3904,1.3904,1.3904,1.3904,1.3975,1.4118,1.4439,1.4803,1.515,1.5576,1.5895,1.6188,1.6245,1.6301,1.6254,1.6261,1.6356,1.6479,1.6651,1.6831,1.701,1.7123,1.719,1.7209,1.7359,1.7388,1.7388,1.7388,1.7388,1.7388,1.7388,1.7388,1.7388,1.7388,1.7388,1.7388,1.7388,1.7388,1.7388,1.7388,1.7388,1.7388,1.7388,1.7388,1.7388,0.0988,0.1483,0.1606,0.1761,0.2008,0.2008,0.2008,0.2008,0.2008,0.2041,0.2098,0.2104,0.2133,0.2185,0.2189,0.2189,0.2189,0.2189,0.2189,0.2189,0.2189,0.2189,0.2189,0.2189,0.2189,0.2189,0.2189,0.2189,0.2189,0.2189,0.2189,0.2189,0.2189,0.2189,0.229,0.2526,0.2862,0.3194,0.3598,0.3969,0.4238,0.4327,0.4338,0.4357,0.445,0.4491,0.4537,0.4611,0.463,0.4616,0.4627,0.4655,0.4655,0.466,0.4693,0.4701,0.4701,0.4701,0.5462,0.7557,1.0407,1.2388,1.3611,1.3789,1.3904,1.3904,1.3904,1.3904,1.3904,1.3904,1.3904,1.3904,1.3904,1.3904,1.3904,1.4047,1.4439,1.4795,1.515,1.5541,1.5897,1.6337,1.6377,1.6462,1.6528,1.6528,1.6651,1.6745,1.6859,1.7029,1.718,1.7227,1.7284,1.7331,1.7388,1.7388,1.7388,1.7388,1.7388,1.7388,1.7388,1.7388,1.7388,1.7388,1.7388,1.7388,1.7388,1.7388,1.7388,1.7388,1.7388,1.7388,1.7388,1.7388,1.7388,0.1205,0.1544,0.1853,0.1977,0.2008,0.2008,0.2008,0.2009,0.2015,0.2048,0.2105,0.2159,0.2183,0.2189,0.2189,0.2189,0.2189,0.2189,0.2189,0.2189,0.2189,0.2189,0.2189,0.2189,0.2189,0.2189,0.2189,0.2189,0.2189,0.2189,0.2189,0.2189,0.2189,0.2189,0.2223,0.2526,0.286,0.3194,0.3598,0.3902,0.4249,0.4349,0.4362,0.4392,0.448,0.4559,0.4578,0.4644,0.4655,0.4619,0.4657,0.4666,0.4624,0.4668,0.4699,0.4701,0.4701,0.4701,0.492,0.7666,0.997,1.1736,1.2924,1.3539,1.3789,1.3904,1.3904,1.3904,1.3904,1.3904,1.3904,1.3904,1.3904,1.3904,1.3904,1.4047,1.4439,1.4795,1.515,1.5559,1.6098,1.6517,1.6556,1.6651,1.6764,1.6859,1.6991,1.7076,1.7114,1.7152,1.7275,1.7303,1.735,1.7359,1.7388,1.7388,1.7388,1.7388,1.7388,1.7388,1.7388,1.7388,1.7388,1.7388,1.7388,1.7388,1.7388,1.7388,1.7388,1.7388,1.7388,1.7388,1.7388,1.7388,1.7388,0.1328,0.1822,0.1946,0.2008,0.2008,0.2008,0.2008,0.2015,0.2049,0.2088,0.2128,0.2172,0.2189,0.2189,0.2189,0.2189,0.2189,0.2189,0.2189,0.2189,0.2189,0.2189,0.2189,0.2189,0.2189,0.2189,0.2189,0.2189,0.2189,0.2189,0.2189,0.2189,0.2189,0.2189,0.2223,0.2391,0.2591,0.3127,0.3396,0.3667,0.421,0.433,0.4346,0.4352,0.4461,0.4553,0.4567,0.4649,0.466,0.4624,0.4668,0.4668,0.4633,0.4668,0.4699,0.4701,0.4701,0.4701,0.5462,0.7485,0.9898,1.1155,1.2201,1.3067,1.3646,1.3868,1.3904,1.3904,1.3904,1.3904,1.3904,1.3904,1.3904,1.3904,1.394,1.4118,1.4439,1.4795,1.5159,1.5595,1.6089,1.6597,1.684,1.6897,1.7001,1.7057,1.7161,1.7227,1.7237,1.7275,1.735,1.7359,1.7378,1.7378,1.7388,1.7388,1.7388,1.7388,1.7388,1.7388,1.7388,1.7388,1.7388,1.7388,1.7388,1.7388,1.7388,1.7388,1.7388,1.7388,1.7388,1.7388,1.7388,1.7388,1.7388,0.1514,0.2008,0.2008,0.2008,0.2008,0.2008,0.2013,0.203,0.2074,0.2113,0.211,0.2174,0.2189,0.2189,0.2189,0.2189,0.2189,0.2189,0.2189,0.2189,0.2189,0.2189,0.2189,0.2189,0.2189,0.2189,0.2189,0.2189,0.2189,0.2189,0.2189,0.2189,0.2189,0.2189,0.2223,0.229,0.2558,0.3026,0.3295,0.3564,0.4078,0.433,0.4343,0.4371,0.4431,0.4531,0.4567,0.4611,0.4655,0.4638,0.4652,0.4671,0.4649,0.466,0.4696,0.4701,0.4701,0.4701,0.5389,0.6039,0.8023,0.9538,1.1155,1.2488,1.3253,1.3503,1.3789,1.3904,1.3904,1.3904,1.3904,1.3904,1.3904,1.3904,1.394,1.4118,1.4581,1.4937,1.5266,1.5702,1.6182,1.67,1.7086,1.7171,1.7246,1.7275,1.7312,1.7322,1.7359,1.7369,1.7388,1.7388,1.7388,1.7388,1.7388,1.7388,1.7388,1.7388,1.7388,1.7388,1.7388,1.7388,1.7388,1.7388,1.7388,1.7388,1.7388,1.7388,1.7388,1.7388,1.7388,1.7388,1.7388,1.7388,1.7388,0.1668,0.1946,0.1977,0.1977,0.1977,0.1977,0.2023,0.202,0.2082,0.2114,0.2114,0.2178,0.2189,0.2189,0.2189,0.2189,0.2189,0.2189,0.2189,0.2189,0.2189,0.2189,0.2189,0.2189,0.2189,0.2189,0.2189,0.2189,0.2189,0.2189,0.2189,0.2189,0.2189,0.2189,0.2189,0.2256,0.2591,0.3026,0.3262,0.3631,0.4143,0.4349,0.4368,0.4395,0.4436,0.4534,0.4575,0.4613,0.4622,0.4635,0.4668,0.4655,0.4652,0.4671,0.469,0.4701,0.4701,0.4701,0.481,0.5389,0.5858,0.7806,1.1191,1.213,1.2631,1.3103,1.3753,1.3904,1.3904,1.3904,1.3904,1.3904,1.3904,1.3904,1.3904,1.4261,1.4795,1.515,1.5434,1.5864,1.6383,1.6831,1.7152,1.7312,1.7246,1.7331,1.7331,1.7341,1.7378,1.7378,1.7388,1.7388,1.7388,1.7388,1.7388,1.7388,1.7388,1.7388,1.7388,1.7388,1.7388,1.7388,1.7388,1.7388,1.7388,1.7388,1.7388,1.7388,1.7388,1.7388,1.7388,1.7388,1.7388,1.7388,1.7388,0.1205,0.1297,0.1544,0.1637,0.1668,0.1915,0.2004,0.2081,0.2095,0.2124,0.2175,0.2183,0.2189,0.2189,0.2189,0.2189,0.2189,0.2189,0.2189,0.2189,0.2189,0.2189,0.2189,0.2189,0.2189,0.2189,0.2189,0.2189,0.2189,0.2189,0.2189,0.2189,0.2189,0.2189,0.2189,0.2189,0.2658,0.3026,0.3161,0.3636,0.4073,0.4299,0.4365,0.4403,0.4412,0.4509,0.4575,0.46,0.4616,0.4668,0.4688,0.4682,0.4685,0.4693,0.4701,0.4701,0.4701,0.4738,0.4883,0.5716,0.6076,0.6362,0.9646,1.155,1.213,1.2781,1.3718,1.3904,1.3904,1.3904,1.3904,1.3904,1.3904,1.3904,1.394,1.4261,1.4759,1.5079,1.5408,1.6042,1.6538,1.6783,1.7123,1.7227,1.7218,1.7312,1.7388,1.7388,1.7388,1.7388,1.7388,1.7388,1.7388,1.7388,1.7388,1.7388,1.7388,1.7388,1.7388,1.7388,1.7388,1.7388,1.7388,1.7388,1.7388,1.7388,1.7388,1.7388,1.7388,1.7388,1.7388,1.7388,1.7388,1.7388,1.7388,0.1019,0.1019,0.1205,0.139,0.1546,0.1865,0.202,0.2091,0.2096,0.2164,0.2185,0.2189,0.2189,0.2189,0.2189,0.2189,0.2189,0.2189,0.2189,0.2189,0.2189,0.2189,0.2189,0.2189,0.2189,0.2189,0.2189,0.2189,0.2189,0.2189,0.2189,0.2189,0.2189,0.2189,0.2189,0.2223,0.249,0.286,0.3199,0.3577,0.392,0.4254,0.4357,0.4403,0.4401,0.4439,0.4559,0.4578,0.4572,0.4663,0.4677,0.4701,0.4701,0.4701,0.4701,0.4701,0.4701,0.4701,0.4847,0.5389,0.5353,0.5822,0.7842,0.9502,1.1335,1.2388,1.3289,1.3904,1.3904,1.3904,1.3904,1.3904,1.3904,1.3904,1.4047,1.4225,1.4581,1.4937,1.5524,1.6132,1.65,1.6727,1.6906,1.702,1.7171,1.7303,1.7388,1.7388,1.7388,1.7388,1.7388,1.7388,1.7388,1.7388,1.7388,1.7388,1.7388,1.7388,1.7388,1.7388,1.7388,1.7388,1.7388,1.7388,1.7388,1.7388,1.7388,1.7388,1.7388,1.7388,1.7388,1.7388,1.7388,1.7388,1.7388,0.0926,0.0895,0.0988,0.1174,0.1516,0.1816,0.2035,0.2096,0.21,0.2134,0.2182,0.2189,0.2189,0.2189,0.2189,0.2189,0.2189,0.2189,0.2189,0.2189,0.2189,0.2189,0.2189,0.2189,0.2189,0.2189,0.2189,0.2189,0.2189,0.2189,0.2189,0.2189,0.2189,0.2189,0.2189,0.2189,0.2391,0.2627,0.2999,0.3375,0.3804,0.4114,0.4323,0.4471,0.4443,0.4379,0.4498,0.4537,0.451,0.4608,0.4652,0.4685,0.4701,0.4701,0.4701,0.4701,0.4701,0.4701,0.4701,0.4989,0.492,0.5244,0.6148,0.8059,1.0006,1.1879,1.2924,1.3789,1.3904,1.3904,1.3904,1.3904,1.3904,1.3904,1.3975,1.4332,1.4768,1.5159,1.5728,1.6211,1.6384,1.6594,1.6868,1.7001,1.7123,1.7312,1.7388,1.7388,1.7388,1.7388,1.7388,1.7388,1.7388,1.7388,1.7388,1.7388,1.7388,1.7388,1.7388,1.7388,1.7388,1.7388,1.7388,1.7388,1.7388,1.7388,1.7388,1.7388,1.7388,1.7388,1.7388,1.7388,1.7388,1.7388,1.7388,0.0463,0.0278,0.0803,0.105,0.1206,0.1755,0.2037,0.2098,0.2123,0.2119,0.2183,0.2189,0.2189,0.2189,0.2189,0.2189,0.2189,0.2189,0.2189,0.2189,0.2189,0.2189,0.2189,0.2189,0.2189,0.2189,0.2189,0.2189,0.2189,0.2189,0.2189,0.2189,0.2189,0.2189,0.2189,0.2189,0.229,0.2425,0.2662,0.3167,0.3717,0.3898,0.4051,0.4322,0.4422,0.4433,0.4491,0.4504,0.4529,0.4605,0.4616,0.4652,0.4696,0.4699,0.4701,0.4701,0.4701,0.4701,0.4701,0.4701,0.4701,0.5098,0.6076,0.763,0.9321,1.1119,1.2488,1.3361,1.3904,1.3904,1.3904,1.3904,1.3904,1.3904,1.3904,1.4403,1.4946,1.5452,1.5932,1.6129,1.6264,1.6481,1.6774,1.6972,1.7105,1.7237,1.7331,1.7388,1.7388,1.7388,1.7388,1.7388,1.7388,1.7388,1.7388,1.7388,1.7388,1.7388,1.7388,1.7388,1.7388,1.7388,1.7388,1.7388,1.7388,1.7388,1.7388,1.7388,1.7388,1.7388,1.7388,1.7388,1.7388,1.7388,1.7388,0.0185,0.0093,0.071,0.0992,0.1125,0.1741,0.2056,0.2086,0.2117,0.2139,0.2188,0.2189,0.2189,0.2189,0.2189,0.2189,0.2189,0.2189,0.2189,0.2189,0.2189,0.2189,0.2189,0.2189,0.2189,0.2189,0.2189,0.2189,0.2189,0.2189,0.2189,0.2189,0.2189,0.2189,0.2189,0.2189,0.2189,0.2223,0.2425,0.286,0.3497,0.371,0.4045,0.4351,0.4469,0.4474,0.4485,0.4499,0.451,0.4551,0.4619,0.466,0.4696,0.4701,0.4701,0.4701,0.4701,0.4701,0.4701,0.4701,0.4701,0.5098,0.528,0.6547,0.7955,0.9754,1.1915,1.2817,1.3753,1.3904,1.3904,1.3904,1.3904,1.3904,1.3975,1.4261,1.4946,1.5585,1.5949,1.6171,1.6309,1.6415,1.6679,1.6849,1.701,1.7303,1.7378,1.7388,1.7388,1.7388,1.7388,1.7388,1.7388,1.7388,1.7388,1.7388,1.7388,1.7388,1.7388,1.7388,1.7388,1.7388,1.7388,1.7388,1.7388,1.7388,1.7388,1.7388,1.7388,1.7388,1.7388,1.7388,1.7388,1.7388,1.7388,0.0,0.0,0.071,0.0997,0.1107,0.1795,0.2113,0.211,0.2174,0.2188,0.2188,0.2189,0.2189,0.2189,0.2189,0.2189,0.2189,0.2189,0.2189,0.2189,0.2189,0.2189,0.2189,0.2189,0.2189,0.2189,0.2189,0.2189,0.2189,0.2189,0.2189,0.2189,0.2189,0.2189,0.2189,0.2189,0.2189,0.2189,0.2357,0.2591,0.3028,0.3535,0.3989,0.4276,0.4466,0.4431,0.4458,0.4471,0.4471,0.4515,0.4608,0.4666,0.4693,0.4701,0.4701,0.4701,0.4701,0.4701,0.4701,0.4701,0.4701,0.4738,0.4701,0.5462,0.6942,0.8745,1.0875,1.2316,1.3218,1.3868,1.3868,1.3904,1.3904,1.3975,1.4047,1.4225,1.4972,1.5692,1.5975,1.6188,1.6237,1.636,1.6566,1.6736,1.6907,1.7199,1.7378,1.7388,1.7388,1.7388,1.7388,1.7388,1.7388,1.7388,1.7388,1.7388,1.7388,1.7388,1.7388,1.7388,1.7388,1.7388,1.7388,1.7388,1.7388,1.7388,1.7388,1.7388,1.7388,1.7388,1.7388,1.7388,1.7388,1.7388,1.7388,0.0,0.0,0.071,0.0997,0.1139,0.1795,0.2114,0.2112,0.2175,0.2189,0.2189,0.2189,0.2189,0.2189,0.2189,0.2189,0.2189,0.2189,0.2189,0.2189,0.2189,0.2189,0.2189,0.2189,0.2189,0.2189,0.2189,0.2189,0.2189,0.2189,0.2189,0.2189,0.2189,0.2189,0.2189,0.2189,0.2189,0.2189,0.2256,0.2457,0.2793,0.3272,0.3736,0.4079,0.4412,0.4406,0.4414,0.4414,0.4414,0.445,0.4561,0.4641,0.4679,0.4696,0.4701,0.4701,0.4701,0.4701,0.4701,0.4701,0.4701,0.4701,0.481,0.528,0.6725,0.8172,1.0042,1.1586,1.2559,1.3611,1.3797,1.3868,1.3904,1.4082,1.4225,1.4546,1.5088,1.5656,1.6072,1.6037,1.5959,1.6215,1.6538,1.6644,1.6656,1.6992,1.735,1.7359,1.7388,1.7388,1.7378,1.7388,1.7388,1.7388,1.7388,1.7388,1.7388,1.7388,1.7388,1.7388,1.7388,1.7388,1.7388,1.7388,1.7388,1.7388,1.7388,1.7388,1.7388,1.7388,1.7388,1.7388,1.7388,1.7388,1.7388]},{"header":{"parameterUnit":"m.s-1","parameterCategory":1,"la1":31.0,"la2":29.5877,"lo1":-88.7671,"lo2":-86.6584,"dx":0.0162,"dy":0.0185,"nx":115,"ny":88,"refTime":"2023-01-24T18:00:00:Z","depth":0,"parameterNumber":3,"parameterNumberName":"V-component_of_WINDS"},"data":[0.0,0.0,0.0,0.0,0.0,0.0,0.0,0.0,0.0,0.0,0.0,0.0,0.0,0.0,0.0,0.0,0.0,0.0,0.0,0.0,0.0,0.0,0.0,0.0,0.0,0.0,0.0,0.0,0.0,0.0,0.0,0.0,0.0,0.0,0.0,0.0,0.0,0.0,0.0,0.0,0.0,0.0,0.0,0.0,0.0,0.0,0.0,0.0,0.0,0.0,0.0,0.0,0.0,0.0,0.0,0.0,0.0,0.0,0.0,0.0,0.0,0.0,0.0,0.0,0.0,0.0,0.0,0.0,0.0,0.0,0.0,0.0,0.0,0.0,0.0,0.0,0.0,0.0,0.0,0.0,0.0,0.0,0.0,0.0,0.0,0.0,0.0,0.0,0.0,0.0,0.0,0.0,0.0,0.0,0.0,0.0,0.0,0.0,0.0,0.0,0.0,0.0,0.0,0.0,0.0,0.0,0.0,0.0,0.0,0.0,0.0,0.0,0.0,0.0,0.0,0.0,0.0,0.0,0.0,0.0,0.0,0.0,0.0,0.0,0.0,0.0,0.0,0.0,0.0,0.0,0.0,0.0,0.0,0.0,0.0,0.0,0.0,0.0,0.0,0.0,0.0,0.0,0.0,0.0,0.0,0.0,0.0,0.0,0.0,0.0,0.0,0.0,0.0,0.0,0.0,0.0,0.0,0.0,0.0,0.0,0.0,0.0,0.0,0.0,0.0,0.0,0.0,0.0,0.0,0.0,0.0,0.0,0.0,0.0,0.0,0.0,0.0,0.0,0.0,0.0,0.0,0.0,0.0,0.0,0.0,0.0,0.0,0.0,0.0,0.0,0.0,0.0,0.0,0.0,0.0,0.0,0.0,0.0,0.0,0.0,0.0,0.0,0.0,0.0,0.0,0.0,0.0,0.0,0.0,0.0,0.0,0.0,0.0,0.0,0.0,0.0,0.0,0.0,0.0,0.0,0.0,0.0,0.0,0.0,0.0,0.0,0.0,0.0,0.0,0.0,0.0,0.0,0.0,0.0,0.0,0.0,0.0,0.0,0.0,0.0,0.0,0.0,0.0,0.0,0.0,0.0,0.0,0.0,0.0,0.0,0.0,0.0,0.0,0.0,0.0,0.0,0.0,0.0,0.0,0.0,0.0,0.0,0.0,0.0,0.0,0.0,0.0,0.0,0.0,0.0,0.0,0.0,0.0,0.0,0.0,0.0,0.0,0.0,0.0,0.0,0.0,0.0,0.0,0.0,0.0,0.0,0.0,0.0,0.0,0.0,0.0,0.0,0.0,0.0,0.0,0.0,0.0,0.0,0.0,0.0,0.0,0.0,0.0,0.0,0.0,0.0,0.0,0.0,0.0,0.0,0.0,0.0,0.0,0.0,0.0,0.0,0.0,0.0,0.0,0.0,0.0,0.0,0.0,0.0,0.0,0.0,0.0,0.0,0.0,0.0,0.0,0.0,0.0,0.0,0.0,0.0,0.0,0.0,0.0,0.0,0.0,0.0,0.0,0.0,0.0,0.0,0.0,0.0,0.0,0.0,0.0,0.0,0.0,0.0,0.0,0.0,0.0,0.0,0.0,0.0,0.0,0.0,0.0,0.0,0.0,0.0,0.0,0.0,0.0,0.0,0.0,0.0,0.0,0.0,0.0,0.0,0.0,0.0,0.0,0.0,0.0,0.0,0.0,0.0,0.0,0.0,0.0,0.0,0.0,0.0,0.0,0.0,0.0,0.0,0.0,0.0,0.0,0.0,0.0,0.0,0.0,0.0,0.0,0.0,0.0,0.0,0.0,0.0,0.0,0.0,0.0,0.0,0.0,0.0,0.0,0.0,0.0,0.0,0.0,0.0,0.0,0.0,0.0,0.0,0.0,0.0,0.0,0.0,0.0,0.0,0.0,0.0,0.0,0.0,0.0,0.0,0.0,0.0,0.0,0.0,0.0,0.0,0.0,0.0,0.0,0.0,0.0,0.0,0.0,0.0,0.0,0.0,0.0,0.0,0.0,0.0,0.0,0.0,0.0,0.0,0.0,0.0,0.0,0.0,0.0,0.0,0.0,0.0,0.0,0.0,0.0,0.0,0.0,0.0,0.0,0.0,0.0,0.0,0.0,0.0,0.0,0.0,0.0,0.0,0.0,0.0,0.0,0.0,0.0,0.0,0.0,0.0,0.0,0.0,0.0,0.0,0.0,0.0,0.0,0.0,0.0,0.0,0.0,0.0,0.0,0.0,0.0,0.0,0.0,0.0,0.0,0.0,0.0,0.0,0.0,0.0,0.0,0.0,0.0,0.0,0.0,0.0,0.0,0.0,0.0,0.0,0.0,0.0,0.0,0.0,0.0,0.0,0.0,0.0,0.0,0.0,0.0,0.0,0.0,0.0,0.0,0.0,0.0,0.0,0.0,0.0,0.0,0.0,0.0,0.0,0.0,0.0,0.0,0.0,0.0,0.0,0.0,0.0,0.0,0.0,0.0,0.0,0.0,0.0,0.0,0.0,0.0,0.0,0.0,0.0,0.0,0.0,0.0,0.0,0.0,0.0,0.0,0.0,0.0,0.0,0.0,0.0,0.0,0.0,0.0,0.0,0.0,0.0,0.0,0.0,0.0,0.0,0.0,0.0,0.0,0.0,0.0,0.0,0.0,0.0,0.0,0.0,0.0,0.0,0.0,0.0,0.0,0.0,0.0,0.0,0.0,0.0,0.0,0.0,0.0,0.0,0.0,0.0,0.0,0.0,0.0,0.0,0.0,0.0,0.0,0.0,0.0,0.0,0.0,0.0,0.0,0.0,0.0,0.0,0.0,0.0,0.0,0.0,0.0,0.0,0.0,0.0,0.0,0.0,0.0,0.0,0.0,0.0,0.0,0.0,0.0,0.0,0.0,0.0,0.0,0.0,0.0,0.0,0.0,0.0,0.0,0.0,0.0,0.0,0.0,0.0,0.0,0.0,0.0,0.0,0.0,0.0,0.0,0.0,0.0,0.0,0.0,0.0,0.0,0.0,0.0,0.0,0.0,0.0,0.0,0.0,0.0,0.0,0.0,0.0,0.0,0.0,0.0,0.0,0.0,0.0,0.0,0.0,0.0,0.0,0.0,0.0,0.0,0.0,0.0,0.0,0.0,0.0,0.0,0.0,0.0,0.0,0.0,0.0,0.0,0.0,0.0,0.0,0.0,0.0,0.0,0.0,0.0,0.0,0.0,0.0,0.0,0.0,0.0,0.0,0.0,0.0,0.0,0.0,0.0,0.0,0.0,0.0,0.0,0.0,0.0,0.0,0.0,0.0,0.0,0.0,0.0,0.0,0.0,0.0,0.0,0.0,0.0,0.0,0.0,0.0,0.0,0.0,0.0,0.0,0.0,0.0,0.0,0.0,0.0,0.0,0.0,0.0,0.0,0.0,0.0,0.0,0.0,0.0,0.0,0.0,0.0,0.0,0.0,0.0,0.0,0.0,0.0,0.0,0.0,0.0,0.0,0.0,0.0,0.0,0.0,0.0,0.0,0.0,0.0,0.0,0.0,0.0,0.0,0.0,0.0,0.0,0.0,0.0,0.0,0.0,0.0,0.0,0.0,0.0,0.0,0.0,0.0,0.0,0.0,0.0,0.0,0.0,0.0,0.0,0.0,0.0,0.0,0.0,0.0,0.0,0.0,0.0,0.0,0.0,0.0,0.0,0.0,0.0,0.0,0.0,0.0,0.0,0.0,0.0,0.0,0.0,0.0,0.0,0.0,0.0,0.0,0.0,0.0,0.0,0.0,0.0,0.0,0.0,0.0,0.0,0.0,0.0,0.0,0.0,0.0,0.0,0.0,0.0,0.0,0.0,0.0,0.0,0.0,0.0,0.0,0.0,0.0,0.0,0.0,0.0,0.0,0.0,0.0,0.0,0.0,0.0,0.0,0.0,0.0,0.0,0.0,0.0,0.0,0.0,0.0,0.0,0.0,0.0,0.0,0.0,0.0,0.0,0.0,0.0,0.0,0.0,0.0,0.0,0.0,0.0,0.0,0.0,0.0,0.0,0.0,0.0,0.0,0.0,0.0,0.0,0.0,0.0,0.0,0.0,0.0,0.0,0.0,0.0,0.0,0.0,0.0,0.0,0.0,0.0,0.0,0.0,0.0,0.0,0.0,0.0,0.0,0.0,0.0,0.0,0.0,0.0,0.0,0.0,0.0,0.0,0.0,0.0,0.0,0.0,0.0,0.0,0.0,0.0,0.0,0.0,0.0,0.0,0.0,0.0,0.0,0.0,0.0,0.0,0.0,0.0,1.543,0.0,0.0,0.0,0.0,0.0,0.0,0.0,0.0,0.0,0.0,0.0,0.0,0.0,0.0,0.0,0.0,0.0,0.0,0.0,0.0,0.0,0.0,0.0,0.0,0.0,0.0,0.0,0.0,0.0,0.0,0.0,0.0,0.0,0.0,0.0,0.0,0.0,0.0,0.0,0.0,0.0,0.0,0.0,0.0,0.0,0.0,0.0,0.0,0.0,0.0,0.0,0.0,0.0,0.0,0.0,0.0,0.0,0.0,0.0,0.0,0.0,0.0,0.0,0.0,0.0,0.0,0.0,0.0,0.0,0.0,0.0,0.0,0.0,0.0,0.0,0.0,0.0,0.0,0.0,0.0,0.0,0.0,0.0,0.0,0.0,0.0,0.0,0.0,0.0,0.0,0.0,0.0,0.0,0.0,0.0,0.0,0.0,0.0,0.0,0.0,0.0,0.0,0.0,0.0,0.0,0.0,0.0,0.0,0.0,0.0,1.543,1.543,1.543,1.543,1.543,0.0,0.0,0.0,0.0,0.0,0.0,0.0,0.0,0.0,0.0,0.0,0.0,0.0,0.0,0.0,0.0,0.0,0.0,0.0,0.0,0.0,0.0,0.0,0.0,0.0,0.0,0.0,0.0,0.0,0.0,0.0,0.0,0.0,0.0,0.0,0.0,0.0,0.0,0.0,0.0,0.0,0.0,0.0,0.0,0.0,0.0,0.0,0.0,0.0,0.0,0.0,0.0,0.0,0.0,0.0,0.0,0.0,0.0,0.0,0.0,0.0,0.0,0.0,0.0,0.0,0.0,0.0,0.0,0.0,0.0,0.0,0.0,0.0,0.0,0.0,0.0,0.0,0.0,0.0,0.0,0.0,0.0,0.0,0.0,0.0,0.0,0.0,0.0,0.0,0.0,0.0,0.0,0.0,0.0,0.0,0.0,0.0,0.0,0.0,0.0,0.0,0.0,0.0,0.0,0.0,0.0,0.0,0.0,0.0,0.0,0.0,0.0,1.5972,1.5971,1.5974,0.0,0.0,0.0,0.0,0.0,0.0,0.0,0.0,0.0,0.0,0.0,0.0,0.0,0.0,0.0,0.0,0.0,0.0,0.0,0.0,0.0,0.0,0.0,0.0,0.0,0.0,0.0,0.0,0.0,0.0,0.0,0.0,0.0,0.0,0.0,0.0,0.0,0.0,0.0,0.0,0.0,0.0,0.0,0.0,0.0,0.0,0.0,0.0,0.0,0.0,0.0,0.0,0.0,0.0,0.0,0.0,0.0,0.0,0.0,0.0,0.0,0.0,0.0,0.0,0.0,0.0,0.0,0.0,0.0,0.0,0.0,0.0,0.0,0.0,0.0,0.0,0.0,0.0,0.0,0.0,0.0,0.0,0.0,0.0,0.0,0.0,0.0,0.0,0.0,0.0,0.0,0.0,0.0,0.0,0.0,0.0,0.0,0.0,0.0,0.0,0.0,0.0,0.0,0.0,0.0,0.0,0.0,0.0,0.0,0.0,1.7692,1.7765,1.7674,0.0,1.7765,0.0,0.0,0.0,0.0,0.0,0.0,0.0,0.0,0.0,0.0,0.0,0.0,0.0,0.0,0.0,0.0,0.0,0.0,0.0,0.0,0.0,0.0,0.0,0.0,0.0,0.0,0.0,0.0,0.0,0.0,0.0,0.0,0.0,0.0,0.0,0.0,0.0,0.0,0.0,0.0,0.0,0.0,0.0,0.0,0.0,0.0,0.0,0.0,0.0,0.0,0.0,0.0,0.0,0.0,0.0,0.0,0.0,0.0,0.0,0.0,0.0,0.0,0.0,0.0,0.0,0.0,0.0,0.0,0.0,0.0,0.0,0.0,0.0,0.0,0.0,0.0,0.0,0.0,0.0,0.0,0.0,0.0,0.0,0.0,0.0,0.0,0.0,0.0,0.0,0.0,0.0,0.0,0.0,0.0,0.0,0.0,0.0,0.0,0.0,0.0,0.0,0.0,0.0,0.0,0.0,0.0,0.0,0.0,0.0,0.0,1.7985,1.7999,1.7994,1.7993,0.0,0.0,0.0,0.0,0.0,0.0,0.0,0.0,0.0,0.0,0.0,0.0,0.0,0.0,0.0,0.0,0.0,0.0,0.0,0.0,0.0,0.0,0.0,0.0,0.0,0.0,0.0,0.0,0.0,0.0,0.0,0.0,0.0,0.0,0.0,0.0,0.0,0.0,0.0,0.0,0.0,0.0,0.0,0.0,0.0,0.0,0.0,0.0,0.0,0.0,0.0,0.0,0.0,0.0,0.0,0.0,0.0,0.0,0.0,0.0,0.0,0.0,0.0,0.0,0.0,0.0,0.0,0.0,0.0,0.0,0.0,0.0,0.0,0.0,0.0,0.0,0.0,0.0,0.0,0.0,0.0,0.0,0.0,0.0,0.0,0.0,0.0,0.0,0.0,0.0,0.0,0.0,0.0,0.0,0.0,0.0,0.0,0.0,0.0,0.0,0.0,0.0,0.0,0.0,0.0,0.0,0.0,0.0,0.0,0.0,1.8622,1.8624,1.8634,1.8642,1.8651,1.8664,0.0,0.0,0.0,0.0,0.0,0.0,0.0,0.0,0.0,0.0,0.0,0.0,0.0,0.0,0.0,0.0,0.0,0.0,0.0,0.0,0.0,0.0,0.0,0.0,0.0,0.0,0.0,0.0,0.0,0.0,0.0,0.0,0.0,0.0,0.0,0.0,0.0,0.0,0.0,0.0,0.0,0.0,0.0,0.0,0.0,0.0,0.0,0.0,0.0,0.0,0.0,0.0,0.0,0.0,0.0,0.0,0.0,0.0,0.0,0.0,0.0,0.0,0.0,0.0,0.0,0.0,0.0,0.0,0.0,0.0,0.0,0.0,0.0,0.0,0.0,0.0,0.0,0.0,0.0,0.0,0.0,0.0,0.0,0.0,0.0,0.0,0.0,0.0,0.0,0.0,0.0,0.0,0.0,0.0,0.0,0.0,0.0,0.0,0.0,0.0,0.0,0.0,0.0,0.0,0.0,0.0,0.0,0.0,2.0358,2.0268,2.0195,2.014,2.0249,2.0332,0.0,0.0,0.0,0.0,0.0,0.0,0.0,0.0,0.0,0.0,0.0,0.0,0.0,0.0,0.0,0.0,0.0,0.0,0.0,0.0,0.0,0.0,0.0,0.0,0.0,0.0,0.0,0.0,0.0,0.0,0.0,0.0,0.0,0.0,0.0,0.0,0.0,0.0,0.0,0.0,0.0,0.0,0.0,0.0,0.0,0.0,0.0,0.0,0.0,0.0,0.0,0.0,0.0,0.0,0.0,0.0,0.0,0.0,0.0,0.0,0.0,0.0,0.0,0.0,0.0,0.0,0.0,0.0,0.0,0.0,0.0,0.0,0.0,0.0,0.0,0.0,0.0,0.0,0.0,0.0,0.0,0.0,0.0,0.0,0.0,0.0,0.0,0.0,0.0,0.0,0.0,0.0,0.0,0.0,0.0,0.0,0.0,0.0,0.0,0.0,0.0,0.0,0.0,0.0,0.0,0.0,0.0,0.0,0.0,2.037,2.0278,2.022,2.0244,2.0258,2.0323,0.0,0.0,0.0,0.0,0.0,0.0,0.0,0.0,0.0,0.0,0.0,0.0,0.0,0.0,0.0,0.0,0.0,0.0,0.0,0.0,0.0,0.0,0.0,0.0,0.0,0.0,0.0,0.0,0.0,0.0,0.0,0.0,0.0,0.0,0.0,0.0,0.0,0.0,0.0,0.0,0.0,0.0,0.0,0.0,0.0,0.0,0.0,0.0,0.0,0.0,0.0,0.0,0.0,0.0,0.0,0.0,0.0,0.0,0.0,0.0,0.0,0.0,0.0,0.0,0.0,0.0,0.0,0.0,0.0,0.0,0.0,0.0,0.0,0.0,0.0,0.0,0.0,0.0,0.0,0.0,0.0,0.0,0.0,0.0,0.0,0.0,0.0,0.0,0.0,0.0,0.0,0.0,0.0,0.0,0.0,0.0,0.0,0.0,0.0,0.0,0.0,0.0,0.0,0.0,0.0,0.0,0.0,0.0,0.0,2.0217,0.0,2.0156,2.0167,2.0169,2.0192,0.0,0.0,0.0,0.0,0.0,0.0,0.0,0.0,0.0,0.0,0.0,0.0,0.0,0.0,0.0,0.0,0.0,0.0,0.0,0.0,0.0,0.0,0.0,0.0,0.0,0.0,0.0,0.0,0.0,0.0,0.0,0.0,0.0,0.0,0.0,0.0,0.0,0.0,0.0,0.0,0.0,0.0,0.0,0.0,0.0,0.0,0.0,0.0,0.0,0.0,0.0,0.0,0.0,0.0,0.0,0.0,0.0,0.0,0.0,0.0,0.0,0.0,0.0,0.0,0.0,0.0,0.0,0.0,0.0,0.0,0.0,0.0,0.0,0.0,0.0,0.0,0.0,0.0,0.0,0.0,0.0,0.0,0.0,0.0,0.0,0.0,0.0,0.0,0.0,0.0,0.0,0.0,0.0,0.0,0.0,0.0,0.0,0.0,0.0,0.0,0.0,0.0,0.0,0.0,0.0,0.0,0.0,0.0,2.0222,2.0153,2.0191,2.021,2.0132,2.0209,2.0186,0.0,0.0,0.0,0.0,0.0,0.0,0.0,0.0,0.0,0.0,0.0,0.0,0.0,0.0,0.0,0.0,0.0,0.0,0.0,0.0,0.0,0.0,0.0,0.0,0.0,0.0,0.0,0.0,0.0,0.0,0.0,0.0,0.0,0.0,0.0,0.0,0.0,0.0,0.0,0.0,0.0,0.0,0.0,0.0,0.0,0.0,0.0,0.0,0.0,0.0,0.0,0.0,0.0,0.0,0.0,0.0,0.0,0.0,0.0,0.0,0.0,0.0,0.0,0.0,0.0,0.0,0.0,0.0,0.0,0.0,0.0,0.0,0.0,0.0,0.0,0.0,0.0,0.0,0.0,0.0,0.0,0.0,0.0,0.0,0.0,0.0,0.0,0.0,0.0,0.0,0.0,0.0,0.0,0.0,0.0,0.0,0.0,0.0,0.0,0.0,0.0,0.0,0.0,0.0,0.0,0.0,0.0,0.0,0.0,2.1803,2.179,2.1766,2.181,2.1785,2.1765,0.0,0.0,0.0,0.0,0.0,0.0,0.0,0.0,0.0,0.0,0.0,0.0,0.0,0.0,0.0,0.0,0.0,0.0,0.0,0.0,0.0,0.0,0.0,0.0,0.0,0.0,0.0,0.0,0.0,0.0,0.0,0.0,0.0,0.0,0.0,0.0,0.0,0.0,0.0,0.0,0.0,0.0,0.0,0.0,0.0,0.0,0.0,0.0,0.0,0.0,0.0,0.0,0.0,0.0,0.0,0.0,0.0,0.0,0.0,0.0,0.0,0.0,0.0,0.0,0.0,0.0,0.0,0.0,0.0,0.0,0.0,0.0,0.0,0.0,0.0,0.0,0.0,0.0,0.0,0.0,0.0,0.0,0.0,0.0,0.0,0.0,0.0,0.0,0.0,0.0,0.0,0.0,0.0,0.0,0.0,0.0,0.0,0.0,0.0,0.0,0.0,0.0,0.0,0.0,0.0,0.0,0.0,0.0,0.0,2.4372,2.3455,2.2968,2.2995,2.2971,2.2822,2.2566,0.0,0.0,0.0,0.0,0.0,0.0,0.0,0.0,0.0,0.0,0.0,0.0,0.0,0.0,0.0,0.0,0.0,0.0,0.0,0.0,0.0,0.0,0.0,0.0,0.0,0.0,0.0,0.0,0.0,0.0,0.0,0.0,0.0,0.0,0.0,0.0,0.0,0.0,0.0,0.0,0.0,0.0,0.0,0.0,0.0,0.0,0.0,0.0,0.0,0.0,0.0,0.0,0.0,0.0,0.0,0.0,0.0,0.0,0.0,0.0,0.0,0.0,0.0,0.0,0.0,0.0,0.0,0.0,0.0,0.0,0.0,0.0,0.0,0.0,0.0,0.0,0.0,0.0,0.0,0.0,0.0,0.0,0.0,0.0,0.0,0.0,0.0,0.0,0.0,0.0,0.0,0.0,0.0,0.0,0.0,0.0,0.0,0.0,0.0,0.0,0.0,0.0,0.0,0.0,0.0,0.0,0.0,0.0,2.7566,2.5325,2.4109,2.4043,2.3964,2.3556,0.0,0.0,0.0,0.0,0.0,0.0,0.0,0.0,0.0,0.0,0.0,0.0,0.0,0.0,0.0,0.0,0.0,0.0,0.0,0.0,0.0,0.0,0.0,0.0,0.0,0.0,0.0,0.0,0.0,0.0,0.0,0.0,0.0,0.0,0.0,0.0,0.0,0.0,0.0,0.0,0.0,0.0,0.0,0.0,0.0,0.0,0.0,0.0,0.0,0.0,0.0,0.0,0.0,0.0,0.0,0.0,0.0,0.0,0.0,0.0,0.0,0.0,0.0,0.0,0.0,0.0,0.0,0.0,0.0,0.0,0.0,0.0,0.0,0.0,0.0,0.0,0.0,0.0,0.0,0.0,0.0,0.0,0.0,0.0,0.0,0.0,0.0,0.0,0.0,0.0,0.0,0.0,0.0,0.0,0.0,0.0,0.0,0.0,0.0,0.0,0.0,0.0,0.0,0.0,0.0,0.0,0.0,0.0,0.0,2.8347,2.8915,2.8689,2.7511,2.6847,2.6122,0.0,0.0,0.0,0.0,0.0,0.0,0.0,0.0,0.0,0.0,0.0,0.0,0.0,0.0,0.0,0.0,0.0,0.0,0.0,0.0,0.0,0.0,0.0,0.0,0.0,0.0,0.0,0.0,0.0,0.0,0.0,0.0,0.0,0.0,0.0,0.0,0.0,0.0,0.0,0.0,0.0,0.0,0.0,0.0,0.0,0.0,0.0,0.0,0.0,0.0,0.0,0.0,0.0,0.0,0.0,0.0,0.0,0.0,0.0,0.0,0.0,0.0,0.0,0.0,0.0,0.0,0.0,0.0,0.0,0.0,0.0,0.0,0.0,0.0,0.0,0.0,0.0,0.0,0.0,0.0,0.0,0.0,0.0,0.0,0.0,0.0,0.0,0.0,0.0,0.0,0.0,0.0,0.0,0.0,0.0,0.0,0.0,0.0,0.0,0.0,0.0,0.0,0.0,0.0,0.0,0.0,0.0,0.0,2.9302,2.9779,3.2428,3.3264,3.1997,2.9383,2.7637,0.0,0.0,0.0,0.0,0.0,0.0,0.0,0.0,0.0,0.0,0.0,0.0,0.0,0.0,0.0,0.0,0.0,0.0,0.0,0.0,0.0,0.0,0.0,0.0,0.0,0.0,0.0,0.0,0.0,0.0,0.0,0.0,0.0,0.0,0.0,0.0,0.0,0.0,0.0,0.0,0.0,0.0,0.0,0.0,0.0,0.0,0.0,0.0,0.0,0.0,0.0,0.0,0.0,0.0,0.0,0.0,0.0,0.0,0.0,0.0,0.0,0.0,0.0,0.0,0.0,0.0,0.0,0.0,0.0,0.0,0.0,0.0,0.0,0.0,0.0,0.0,0.0,0.0,0.0,0.0,0.0,0.0,0.0,0.0,0.0,0.0,0.0,0.0,0.0,0.0,0.0,0.0,0.0,0.0,0.0,0.0,0.0,0.0,0.0,0.0,0.0,0.0,0.0,0.0,0.0,0.0,0.0,0.0,3.1336,3.161,3.5443,3.7143,3.6317,3.1682,2.873,0.0,0.0,0.0,0.0,0.0,0.0,0.0,0.0,0.0,0.0,0.0,0.0,0.0,0.0,0.0,0.0,0.0,0.0,0.0,0.0,0.0,0.0,0.0,0.0,0.0,0.0,0.0,0.0,0.0,0.0,0.0,0.0,0.0,0.0,0.0,0.0,0.0,0.0,0.0,0.0,0.0,0.0,0.0,0.0,0.0,0.0,0.0,0.0,0.0,0.0,0.0,0.0,0.0,0.0,0.0,0.0,0.0,0.0,0.0,0.0,0.0,0.0,0.0,0.0,0.0,0.0,0.0,0.0,0.0,0.0,0.0,0.0,0.0,0.0,0.0,0.0,0.0,0.0,0.0,0.0,0.0,0.0,0.0,0.0,0.0,0.0,0.0,0.0,0.0,0.0,0.0,0.0,0.0,0.0,0.0,0.0,0.0,0.0,0.0,0.0,0.0,0.0,0.0,0.0,0.0,0.0,0.0,0.0,3.2137,3.4112,3.6287,3.7374,3.7223,3.3684,3.1072,0.0,0.0,0.0,0.0,0.0,0.0,0.0,0.0,0.0,0.0,0.0,0.0,0.0,0.0,0.0,0.0,0.0,0.0,0.0,0.0,0.0,0.0,0.0,0.0,0.0,0.0,0.0,0.0,0.0,0.0,0.0,0.0,0.0,0.0,0.0,0.0,0.0,0.0,0.0,0.0,0.0,0.0,0.0,0.0,0.0,0.0,0.0,0.0,2.688,0.0,0.0,0.0,0.0,0.0,0.0,0.0,0.0,0.0,0.0,0.0,0.0,0.0,0.0,0.0,0.0,0.0,0.0,0.0,0.0,0.0,0.0,0.0,0.0,0.0,0.0,0.0,0.0,0.0,0.0,0.0,0.0,0.0,0.0,0.0,0.0,0.0,0.0,0.0,0.0,0.0,0.0,0.0,0.0,0.0,0.0,0.0,0.0,0.0,0.0,0.0,0.0,0.0,0.0,0.0,0.0,0.0,0.0,0.0,3.3387,3.5481,3.7553,3.8641,3.8591,3.6245,3.3794,0.0,0.0,0.0,0.0,0.0,0.0,0.0,0.0,0.0,0.0,0.0,0.0,0.0,0.0,0.0,0.0,0.0,0.0,0.0,0.0,0.0,0.0,0.0,0.0,0.0,0.0,0.0,0.0,0.0,0.0,0.0,0.0,0.0,0.0,0.0,0.0,0.0,0.0,0.0,0.0,0.0,0.0,0.0,0.0,0.0,0.0,0.0,0.0,0.0,0.0,0.0,0.0,0.0,0.0,0.0,0.0,0.0,0.0,0.0,0.0,0.0,0.0,0.0,0.0,0.0,0.0,0.0,0.0,0.0,0.0,0.0,0.0,0.0,0.0,0.0,0.0,0.0,0.0,0.0,0.0,0.0,0.0,0.0,0.0,0.0,0.0,0.0,0.0,0.0,0.0,0.0,0.0,0.0,0.0,0.0,0.0,0.0,0.0,0.0,0.0,0.0,0.0,0.0,0.0,0.0,0.0,0.0,3.2293,3.469,3.6747,3.8874,4.0001,4.0022,3.8465,3.6167,3.3084,0.0,0.0,0.0,0.0,0.0,0.0,0.0,0.0,0.0,0.0,0.0,0.0,0.0,0.0,0.0,0.0,0.0,0.0,0.0,0.0,0.0,0.0,0.0,0.0,0.0,0.0,0.0,0.0,0.0,0.0,0.0,0.0,0.0,0.0,0.0,0.0,0.0,0.0,2.4512,2.5069,0.0,0.0,0.0,0.0,0.0,0.0,0.0,0.0,2.7527,0.0,0.0,0.0,0.0,0.0,0.0,0.0,0.0,0.0,0.0,0.0,0.0,0.0,0.0,0.0,0.0,0.0,0.0,0.0,0.0,0.0,0.0,0.0,0.0,0.0,0.0,0.0,0.0,0.0,0.0,0.0,0.0,0.0,0.0,0.0,0.0,0.0,0.0,0.0,0.0,0.0,0.0,0.0,0.0,0.0,0.0,0.0,0.0,0.0,0.0,0.0,0.0,0.0,0.0,0.0,0.0,3.2823,3.3434,3.5538,3.9259,3.9763,4.0043,4.0128,3.8537,3.6732,3.4734,0.0,0.0,0.0,0.0,0.0,0.0,0.0,0.0,0.0,0.0,0.0,0.0,0.0,0.0,0.0,0.0,0.0,0.0,0.0,0.0,0.0,0.0,0.0,0.0,0.0,0.0,0.0,0.0,0.0,0.0,0.0,0.0,0.0,0.0,0.0,0.0,0.0,0.0,0.0,2.6459,2.654,0.0,0.0,0.0,0.0,0.0,0.0,0.0,0.0,2.9862,0.0,0.0,0.0,0.0,0.0,0.0,0.0,0.0,0.0,0.0,0.0,0.0,0.0,0.0,0.0,0.0,0.0,0.0,0.0,0.0,0.0,0.0,0.0,0.0,0.0,0.0,0.0,0.0,0.0,0.0,0.0,0.0,0.0,0.0,0.0,0.0,0.0,0.0,0.0,0.0,0.0,0.0,0.0,0.0,0.0,0.0,0.0,0.0,0.0,0.0,0.0,0.0,0.0,0.0,0.0,3.3581,3.4946,3.706,3.9882,3.9996,4.0038,4.0109,3.8552,3.6833,0.0,0.0,0.0,0.0,0.0,0.0,0.0,0.0,0.0,0.0,0.0,0.0,0.0,0.0,0.0,0.0,0.0,0.0,0.0,0.0,0.0,0.0,0.0,0.0,0.0,0.0,0.0,0.0,0.0,0.0,0.0,0.0,0.0,0.0,0.0,0.0,0.0,0.0,0.0,0.0,2.7989,2.8415,2.9728,0.0,0.0,0.0,0.0,0.0,0.0,2.9933,2.9933,0.0,0.0,0.0,0.0,0.0,0.0,0.0,0.0,0.0,0.0,0.0,0.0,0.0,0.0,0.0,0.0,0.0,0.0,0.0,0.0,0.0,0.0,0.0,0.0,0.0,0.0,0.0,0.0,0.0,0.0,0.0,0.0,0.0,0.0,0.0,0.0,0.0,0.0,0.0,0.0,0.0,0.0,0.0,0.0,0.0,0.0,0.0,0.0,0.0,0.0,0.0,0.0,0.0,0.0,0.0,3.396,3.6234,3.8241,3.9936,4.0012,4.0081,4.0099,3.8161,3.6485,0.0,0.0,0.0,0.0,0.0,0.0,0.0,0.0,0.0,0.0,0.0,0.0,0.0,0.0,0.0,0.0,0.0,0.0,0.0,0.0,0.0,0.0,0.0,0.0,0.0,0.0,0.0,0.0,0.0,0.0,0.0,0.0,0.0,0.0,0.0,0.0,0.0,0.0,0.0,0.0,0.0,3.0342,3.2069,3.1326,0.0,0.0,0.0,0.0,3.0118,3.0618,0.0,0.0,0.0,0.0,0.0,0.0,0.0,0.0,0.0,0.0,0.0,0.0,0.0,0.0,0.0,0.0,0.0,0.0,0.0,0.0,0.0,0.0,0.0,0.0,0.0,0.0,0.0,0.0,0.0,0.0,0.0,0.0,0.0,0.0,0.0,0.0,0.0,0.0,0.0,0.0,0.0,0.0,0.0,0.0,0.0,0.0,0.0,0.0,0.0,0.0,0.0,0.0,0.0,0.0,0.0,0.0,3.4718,3.6505,3.8262,3.9977,4.0101,4.0147,4.0244,3.7155,3.5386,0.0,0.0,0.0,0.0,0.0,0.0,0.0,0.0,0.0,0.0,0.0,0.0,0.0,0.0,0.0,0.0,0.0,0.0,0.0,0.0,0.0,0.0,0.0,0.0,0.0,0.0,0.0,0.0,0.0,0.0,0.0,0.0,0.0,0.0,0.0,0.0,0.0,0.0,0.0,0.0,0.0,3.1239,3.2922,3.1765,3.108,0.0,0.0,3.3294,3.2589,3.481,0.0,0.0,0.0,0.0,0.0,0.0,0.0,0.0,0.0,0.0,0.0,0.0,0.0,0.0,0.0,0.0,0.0,0.0,0.0,0.0,0.0,0.0,0.0,0.0,0.0,0.0,0.0,0.0,0.0,0.0,0.0,0.0,0.0,0.0,0.0,0.0,0.0,0.0,0.0,0.0,0.0,0.0,0.0,0.0,0.0,0.0,0.0,0.0,0.0,0.0,0.0,0.0,0.0,0.0,0.0,3.4129,3.5713,3.7841,3.9554,4.0766,4.0385,4.0191,4.0263,3.6982,3.5174,0.0,0.0,0.0,0.0,0.0,0.0,0.0,0.0,0.0,0.0,0.0,0.0,0.0,0.0,0.0,0.0,0.0,0.0,0.0,0.0,0.0,0.0,0.0,0.0,0.0,0.0,0.0,0.0,0.0,0.0,0.0,0.0,0.0,0.0,0.0,0.0,0.0,0.0,0.0,0.0,0.0,0.0,3.297,3.2437,0.0,0.0,0.0,3.2481,3.1661,0.0,0.0,0.0,0.0,0.0,0.0,0.0,0.0,0.0,0.0,0.0,0.0,0.0,0.0,0.0,0.0,0.0,0.0,0.0,0.0,0.0,0.0,0.0,0.0,0.0,0.0,0.0,0.0,0.0,0.0,0.0,0.0,0.0,0.0,0.0,0.0,0.0,0.0,0.0,0.0,0.0,0.0,0.0,0.0,0.0,0.0,0.0,0.0,0.0,0.0,0.0,0.0,0.0,0.0,0.0,0.0,0.0,3.6344,3.9236,4.1056,4.1683,4.092,4.0525,4.0535,3.7708,0.0,0.0,0.0,0.0,0.0,0.0,0.0,0.0,0.0,0.0,0.0,0.0,0.0,0.0,0.0,0.0,0.0,0.0,0.0,0.0,0.0,0.0,0.0,0.0,0.0,0.0,0.0,0.0,0.0,0.0,0.0,0.0,0.0,0.0,0.0,0.0,0.0,0.0,0.0,0.0,0.0,0.0,3.2985,3.3279,3.3081,3.3128,0.0,0.0,3.2224,3.201,3.4,3.4606,0.0,0.0,0.0,0.0,0.0,0.0,0.0,0.0,0.0,0.0,0.0,0.0,0.0,0.0,0.0,0.0,0.0,0.0,0.0,0.0,0.0,0.0,0.0,0.0,0.0,0.0,0.0,0.0,0.0,0.0,0.0,0.0,0.0,0.0,0.0,0.0,0.0,0.0,0.0,0.0,0.0,0.0,0.0,0.0,0.0,0.0,0.0,0.0,0.0,0.0,0.0,0.0,0.0,0.0,0.0,3.6425,4.035,4.2475,4.2609,4.1759,4.1365,4.138,3.9699,3.7631,0.0,0.0,0.0,0.0,0.0,0.0,0.0,0.0,0.0,0.0,0.0,0.0,0.0,0.0,0.0,0.0,0.0,0.0,0.0,0.0,0.0,0.0,0.0,0.0,0.0,0.0,0.0,0.0,0.0,0.0,0.0,0.0,0.0,0.0,0.0,0.0,0.0,0.0,0.0,0.0,0.0,3.3279,3.4243,3.3537,3.3808,0.0,0.0,3.4428,3.5792,3.7933,3.821,3.4464,0.0,0.0,0.0,0.0,0.0,0.0,0.0,0.0,0.0,0.0,0.0,0.0,0.0,0.0,0.0,0.0,0.0,0.0,0.0,0.0,0.0,0.0,0.0,0.0,0.0,0.0,0.0,0.0,0.0,0.0,0.0,0.0,0.0,0.0,0.0,0.0,0.0,0.0,0.0,0.0,0.0,0.0,0.0,0.0,0.0,0.0,0.0,0.0,0.0,0.0,0.0,0.0,0.0,3.7174,3.7201,4.1322,4.3736,4.422,4.3451,4.3031,4.3018,4.1948,3.9656,0.0,0.0,0.0,0.0,0.0,0.0,0.0,0.0,0.0,0.0,0.0,0.0,0.0,0.0,0.0,0.0,0.0,0.0,0.0,0.0,0.0,0.0,0.0,0.0,0.0,0.0,0.0,0.0,3.2002,3.2145,3.0682,0.0,0.0,0.0,0.0,0.0,0.0,0.0,0.0,0.0,0.0,3.4327,3.5495,3.63,0.0,0.0,3.7828,3.7353,3.6506,3.796,3.7889,3.3981,3.3374,0.0,0.0,0.0,0.0,0.0,0.0,0.0,0.0,0.0,0.0,0.0,0.0,0.0,0.0,0.0,0.0,0.0,0.0,0.0,0.0,0.0,0.0,0.0,0.0,0.0,0.0,0.0,0.0,0.0,0.0,0.0,0.0,0.0,0.0,0.0,0.0,0.0,0.0,0.0,0.0,0.0,0.0,0.0,0.0,0.0,0.0,0.0,0.0,0.0,0.0,0.0,0.0,3.8063,3.8094,4.2712,4.5425,4.6003,4.5201,4.4623,4.4393,4.4088,4.2025,0.0,0.0,0.0,0.0,0.0,0.0,0.0,0.0,0.0,0.0,0.0,0.0,0.0,0.0,0.0,0.0,0.0,0.0,0.0,0.0,0.0,0.0,0.0,0.0,0.0,0.0,0.0,0.0,3.2965,3.2715,3.1046,0.0,0.0,0.0,0.0,0.0,0.0,0.0,0.0,0.0,0.0,3.5912,3.605,3.738,3.8196,3.7782,3.7791,3.7398,3.6221,3.7006,3.6854,3.4373,0.0,0.0,0.0,0.0,0.0,0.0,0.0,0.0,0.0,0.0,0.0,0.0,0.0,0.0,0.0,0.0,0.0,0.0,0.0,0.0,0.0,0.0,0.0,0.0,0.0,0.0,0.0,0.0,0.0,0.0,0.0,0.0,0.0,0.0,0.0,0.0,0.0,0.0,0.0,0.0,0.0,0.0,0.0,0.0,0.0,0.0,0.0,0.0,0.0,0.0,0.0,0.0,0.0,0.0,3.9049,4.4699,4.7717,4.7717,4.6915,4.6118,4.5397,4.6042,4.4857,4.15,0.0,0.0,0.0,0.0,0.0,0.0,0.0,0.0,0.0,0.0,0.0,0.0,0.0,0.0,0.0,0.0,0.0,0.0,0.0,0.0,0.0,0.0,0.0,0.0,0.0,0.0,2.8784,3.0396,3.1732,0.0,0.0,0.0,0.0,0.0,0.0,0.0,0.0,0.0,0.0,3.6097,3.813,3.563,3.5988,3.638,3.5631,3.4239,3.3659,3.515,3.532,3.5498,0.0,0.0,0.0,0.0,0.0,0.0,0.0,0.0,0.0,0.0,0.0,0.0,0.0,0.0,0.0,0.0,0.0,0.0,0.0,0.0,0.0,0.0,0.0,0.0,0.0,0.0,0.0,3.1775,3.1893,0.0,0.0,0.0,0.0,0.0,0.0,0.0,0.0,0.0,0.0,0.0,3.5576,3.6685,0.0,0.0,0.0,0.0,0.0,0.0,0.0,0.0,0.0,0.0,0.0,0.0,4.0387,4.0153,4.566,4.864,4.864,4.8372,4.811,4.7843,4.8602,4.7455,4.4136,0.0,0.0,0.0,0.0,0.0,0.0,0.0,0.0,0.0,0.0,0.0,0.0,0.0,0.0,0.0,0.0,0.0,0.0,0.0,0.0,0.0,0.0,0.0,0.0,0.0,3.1367,0.0,0.0,0.0,0.0,0.0,0.0,0.0,0.0,0.0,0.0,0.0,3.3101,3.4292,3.5512,3.6274,3.6234,3.7683,3.914,0.0,0.0,0.0,0.0,0.0,0.0,0.0,0.0,0.0,0.0,0.0,0.0,0.0,0.0,3.4722,3.3187,3.4151,3.5194,3.5221,0.0,0.0,0.0,0.0,0.0,0.0,0.0,0.0,0.0,0.0,0.0,0.0,0.0,0.0,0.0,0.0,3.337,0.0,0.0,0.0,0.0,0.0,0.0,0.0,0.0,3.6874,3.795,3.8246,3.9624,4.0277,0.0,4.0196,3.7903,0.0,0.0,0.0,0.0,0.0,0.0,0.0,0.0,4.1227,4.0998,4.65,4.9677,4.9939,4.9977,4.9824,4.9563,4.9748,4.8984,4.7073,4.3772,4.094,0.0,0.0,0.0,0.0,0.0,0.0,0.0,0.0,0.0,0.0,0.0,0.0,0.0,0.0,0.0,0.0,0.0,0.0,0.0,0.0,0.0,0.0,0.0,3.1992,0.0,0.0,0.0,0.0,0.0,0.0,0.0,0.0,0.0,3.3139,3.3861,3.4994,3.655,3.7142,3.7178,3.656,0.0,0.0,0.0,0.0,0.0,0.0,0.0,3.5757,3.5087,3.5408,3.6015,3.6827,3.7113,3.747,3.8255,0.0,0.0,3.5864,3.6551,3.7693,3.7978,3.8014,3.8255,3.903,3.9173,3.9316,0.0,0.0,0.0,0.0,0.0,0.0,0.0,0.0,3.5805,3.4946,0.0,3.5066,0.0,0.0,0.0,0.0,0.0,0.0,0.0,0.0,4.3003,4.3869,4.1729,4.2565,4.2985,4.2908,4.1485,4.0721,4.0607,4.0501,0.0,0.0,0.0,0.0,0.0,0.0,4.1614,4.1958,4.7494,5.0774,5.1576,5.1614,5.1232,5.0436,4.9677,4.9601,5.0168,4.7149,4.5268,4.4978,3.9678,0.0,0.0,0.0,0.0,0.0,0.0,0.0,0.0,0.0,0.0,0.0,0.0,0.0,0.0,0.0,0.0,0.0,0.0,0.0,0.0,3.2012,0.0,0.0,0.0,0.0,0.0,0.0,0.0,0.0,0.0,0.0,3.5031,3.6177,3.7509,3.8448,0.0,0.0,0.0,0.0,3.7781,3.423,3.3329,3.3303,3.349,3.461,3.622,3.8506,0.0,0.0,4.2211,4.0548,3.9387,4.0029,4.2063,4.2384,3.8702,3.8193,3.8442,3.9102,3.9423,3.9423,4.0029,4.0743,4.0636,3.8005,0.0,0.0,0.0,0.0,3.673,3.7742,3.939,3.9262,3.9004,3.8718,3.9531,0.0,0.0,0.0,0.0,0.0,0.0,3.9308,3.9981,4.1757,4.3143,4.4251,4.5692,4.6691,4.727,4.7379,4.745,4.745,4.8,4.4597,3.7393,0.0,0.0,0.0,0.0,4.4164,4.6113,5.0015,5.2193,5.2467,5.2461,5.2346,5.2079,5.1855,5.1582,5.1232,5.0265,4.8316,4.5245,4.3477,0.0,0.0,0.0,0.0,0.0,0.0,0.0,0.0,0.0,0.0,0.0,0.0,0.0,0.0,0.0,0.0,0.0,0.0,0.0,3.258,3.4761,3.4929,0.0,0.0,0.0,0.0,0.0,0.0,0.0,0.0,0.0,3.8477,3.7174,3.641,0.0,0.0,3.5667,3.4426,3.5945,3.7661,3.8988,0.0,0.0,0.0,4.0213,3.9669,4.0941,4.2762,4.4103,4.4319,4.4513,4.4714,4.4892,4.5499,4.557,4.4642,4.4296,4.4332,4.4642,4.5117,4.5545,4.5795,4.6212,4.6547,4.2436,4.1196,3.9168,3.87,3.9324,3.9362,4.0323,4.1953,4.1895,4.1516,4.1052,4.1963,4.1025,3.8793,3.947,0.0,0.0,0.0,4.1796,4.3281,4.3787,4.4819,4.6309,4.7685,4.8754,4.9601,5.0436,5.0971,5.1276,5.0818,4.7805,4.2378,0.0,0.0,4.1538,4.4513,4.6768,4.8372,5.1276,5.2964,5.3307,5.3002,5.2811,5.2811,5.2155,5.1735,5.1614,5.1614,5.0497,4.8172,4.7105,4.4802,0.0,0.0,0.0,0.0,0.0,0.0,0.0,0.0,0.0,0.0,0.0,3.2235,0.0,0.0,0.0,0.0,3.4521,3.4391,3.4447,3.5779,0.0,0.0,0.0,0.0,0.0,0.0,0.0,3.5512,3.8051,4.0209,4.0961,3.94,3.8419,3.9074,3.8044,3.7124,3.6823,0.0,3.9948,4.1704,4.1053,4.1176,4.3399,4.2721,4.2163,4.3114,4.418,4.5075,4.5414,4.6046,4.6616,4.6902,4.7009,4.7009,4.7009,4.7009,4.7116,4.7402,4.7877,4.8258,4.8579,4.8996,4.9293,4.6222,4.5792,4.1115,4.006,4.146,4.1499,4.2356,4.3796,4.3796,4.2939,4.165,4.305,4.1903,3.8971,3.9571,0.0,0.0,4.4399,4.5611,4.7794,4.7794,4.787,4.8017,4.8793,4.9633,5.0512,5.1308,5.2073,5.2658,5.0594,4.941,4.918,4.9257,4.7919,4.5474,4.7575,4.8913,4.9142,5.1397,5.3072,5.4021,5.3269,5.2811,5.2772,5.1314,5.0856,5.1576,5.1614,5.1865,5.2278,5.0215,4.8479,4.7239,0.0,0.0,0.0,0.0,0.0,0.0,0.0,0.0,0.0,0.0,0.0,0.0,0.0,0.0,0.0,3.8343,0.0,3.7316,3.6053,0.0,0.0,0.0,3.5981,3.8287,3.8934,3.9415,3.9954,0.0,0.0,0.0,0.0,4.2433,4.4172,4.3376,4.244,4.1846,4.2834,4.3689,4.3398,4.2516,4.2235,4.3882,4.4352,4.515,4.6141,4.5661,4.6169,4.6804,4.6849,4.697,4.7649,4.7532,4.758,4.7509,4.7759,4.7723,4.8687,4.8448,4.8401,4.896,4.9305,4.9507,4.6216,4.6099,4.4891,4.4606,4.4968,4.497,4.5202,4.5553,4.5593,4.536,4.5043,4.592,4.6147,4.5919,4.6574,4.693,4.7069,4.7608,4.7837,4.7794,4.7794,4.8476,4.9671,4.9901,5.0779,5.2161,5.2429,5.2614,5.2811,5.2887,5.1926,5.013,5.0665,4.8787,4.4546,4.5583,4.7155,4.9104,5.0283,5.1964,5.3989,5.3269,5.2811,5.2811,5.2429,5.2002,5.1614,5.1614,5.133,5.0704,5.0127,4.8815,4.6556,4.3011,0.0,0.0,0.0,0.0,0.0,0.0,0.0,0.0,0.0,3.3496,3.2081,0.0,3.4295,0.0,3.8779,4.0944,4.1201,4.041,0.0,0.0,3.7889,3.762,3.8632,4.0985,4.1957,4.0452,4.2552,4.4031,4.3726,4.354,4.4506,4.721,4.4185,4.1973,4.3016,4.4534,4.6231,4.7924,4.899,5.0083,5.063,5.1704,5.2091,5.2587,5.2773,5.3123,5.3295,5.2887,5.2402,5.2042,5.1693,5.1508,5.1364,5.1471,5.1721,5.2243,5.0293,4.8234,4.8437,4.9424,5.0411,4.7359,4.7359,4.7359,4.735,4.7293,4.6546,4.6191,4.619,4.622,4.6217,4.6251,4.6895,4.7624,4.8434,4.9142,4.9187,4.8793,4.9552,4.9817,4.9731,4.9731,5.0368,5.1524,5.1563,5.2191,5.3384,5.3378,5.3569,5.3951,5.4448,5.3945,5.2607,5.341,5.1461,4.6991,4.6538,4.7111,4.8525,5.0092,5.2111,5.4524,5.3836,5.2696,5.1206,5.0785,4.9824,4.8285,4.8214,4.8125,4.7911,4.7893,4.7034,4.514,4.2423,4.0128,0.0,0.0,0.0,0.0,0.0,0.0,0.0,0.0,0.0,0.0,0.0,3.747,0.0,4.095,0.0,4.1969,4.1415,4.1332,4.2006,4.1051,4.1028,4.2776,4.4225,4.47,4.3878,4.5313,4.6624,4.7181,4.6958,4.7776,5.0664,4.8312,4.6604,4.7538,4.876,5.0204,5.2029,5.2744,5.3264,5.3757,5.4022,5.4239,5.4246,5.4354,5.4382,5.4205,5.3852,5.3387,5.2821,5.2527,5.2363,5.2363,5.2684,5.3041,5.3135,5.2101,5.1078,5.1257,5.2279,5.3278,4.9081,4.8964,4.8964,4.8886,4.8691,4.7153,4.6522,4.6519,4.6505,4.6537,4.6571,4.7157,4.7896,4.8746,4.9482,4.985,5.0009,5.0847,5.1614,5.2268,5.2268,5.2644,5.3278,5.3286,5.3623,5.4286,5.4282,5.4683,5.5396,5.5396,5.5244,5.4976,5.5594,5.3951,5.0086,4.8634,4.7832,4.7674,5.0124,5.2493,5.4677,5.3569,5.1588,4.876,4.7876,4.6418,4.4317,4.4164,4.4439,4.4979,4.4978,4.465,4.3993,4.1567,3.9934,0.0,3.7067,0.0,0.0,0.0,0.0,0.0,0.0,0.0,0.0,4.2361,4.2286,4.2159,4.3758,4.4013,4.2161,4.1601,4.2502,4.5282,4.4502,4.4864,4.7612,4.7432,4.7339,4.8063,4.8178,4.9073,5.1017,5.0887,5.1305,5.3264,5.319,5.2698,5.3153,5.3552,5.423,5.5307,5.4899,5.475,5.4703,5.4378,5.4283,5.4121,5.4133,5.3456,5.352,5.3241,5.2895,5.2554,5.2607,5.2506,5.2315,5.3077,5.3577,5.3934,5.4371,5.4728,5.4692,5.5205,5.624,5.051,4.9884,4.9845,4.9455,4.8791,4.843,4.8302,4.8292,4.8328,4.8326,4.8325,4.8413,4.8984,4.9831,5.0534,5.1187,5.191,5.2588,5.3021,5.3166,5.3166,5.361,5.4374,5.4301,5.4646,5.5357,5.5243,5.5224,5.5396,5.5396,5.4365,5.2378,5.2493,5.1117,4.8443,0.0,0.0,0.0,4.9245,5.0779,5.1123,4.8449,4.6658,4.6052,4.5856,0.0,4.5092,4.5053,4.4777,4.4179,4.4124,0.0,0.0,0.0,0.0,0.0,0.0,0.0,0.0,0.0,0.0,0.0,4.3252,4.2828,4.2798,4.2791,4.3266,4.4403,4.4928,4.5807,4.7154,4.6055,4.5805,4.7164,4.6508,4.627,4.7185,4.8206,4.8924,4.8968,5.0085,5.1231,5.2205,5.2187,5.2828,5.4556,5.528,5.5827,5.6432,5.6097,5.6395,5.7647,5.761,5.7685,5.7759,5.7559,5.7322,5.7645,5.7363,5.7122,5.7135,5.6537,5.5932,5.5523,5.5497,5.5482,5.5504,5.6147,5.6781,5.7439,5.8153,5.7867,5.4942,5.4906,5.562,5.2429,0.0,5.2037,5.1764,0.0,5.0901,5.0702,5.0657,4.9823,4.9934,5.0714,5.0745,5.1208,5.2022,5.2792,5.336,5.3797,5.4567,5.4944,5.4918,5.4959,5.5119,5.5443,5.5366,5.5544,5.5814,5.5651,5.5522,5.5527,5.5451,5.4956,5.4115,5.4498,5.4059,5.2843,5.2772,5.1741,4.9633,5.0474,5.1538,5.269,5.1162,4.948,4.7876,0.0,0.0,0.0,0.0,0.0,0.0,0.0,0.0,0.0,0.0,0.0,4.5821,4.4652,4.478,4.6758,4.6645,4.7097,4.8678,4.8415,4.738,4.5452,4.5948,4.6735,4.7483,4.7431,4.7975,4.9467,4.8698,4.8649,4.9868,4.9333,4.9024,4.9678,5.0659,5.1336,5.1407,5.2257,5.3259,5.3986,5.4072,5.4781,5.6267,5.6893,5.7452,5.8015,5.783,5.7833,5.8586,5.8687,5.8687,5.8687,5.8687,5.8687,5.8656,5.8551,5.8406,5.8395,5.7923,5.7522,5.7558,5.759,5.7631,5.7923,5.8492,5.9091,5.9331,5.9937,5.9951,5.7882,5.7846,5.8203,5.438,5.4225,5.4225,5.4147,5.3951,5.325,5.2937,5.2819,0.0,0.0,0.0,5.2866,5.3372,5.4149,5.4887,5.5277,5.5474,5.6176,5.6527,5.653,5.6532,5.65,5.6471,5.6293,5.6311,5.6463,5.6145,5.6029,5.6136,5.5983,5.6254,5.6926,5.7589,5.7976,5.8039,5.7243,5.5868,5.3957,5.2378,5.2607,5.4632,5.4288,5.2722,4.9933,4.9862,4.8563,4.5894,4.5736,4.566,4.5496,4.541,4.5495,4.5732,4.5486,4.5609,4.6203,4.6241,4.7529,5.0341,5.0113,5.0985,5.3707,5.3245,5.1624,4.8752,4.982,5.0569,5.042,5.0236,5.0439,5.1086,5.0792,5.1168,5.2677,5.226,5.2101,5.2783,5.349,5.3822,5.3934,5.4425,5.5153,5.5899,5.6032,5.6576,5.791,5.8258,5.8465,5.8876,5.875,5.857,5.8723,5.8781,5.876,5.876,5.876,5.8739,5.8698,5.8667,5.8582,5.8511,5.8378,5.8552,5.9077,5.9201,5.938,5.9677,6.0178,6.0605,6.0325,6.0688,6.1108,6.1123,6.1108,6.0915,5.5786,5.5124,5.5124,5.4694,5.399,5.3873,5.3834,5.3716,5.2778,5.2465,5.2738,5.3509,5.4283,5.5022,5.5126,5.5594,5.6308,5.6465,5.6511,0.0,5.66,5.6948,5.7526,5.6687,5.7023,5.827,5.7486,5.7395,5.7868,5.7896,5.7857,5.7838,5.794,5.8329,5.8803,5.8116,5.7886,5.8109,5.383,5.1767,5.2111,5.001,4.8672,4.8214,4.8252,4.7985,4.7488,4.7488,4.7089,4.6369,4.6314,4.69,4.815,4.7605,4.8397,5.1054,5.135,5.1881,5.3063,5.3707,5.4238,5.4655,5.4617,5.3746,5.197,5.2635,5.2855,5.2167,5.2612,5.3111,5.327,5.3185,5.348,5.4389,5.4465,5.442,5.4579,5.5314,5.5745,5.5611,5.6241,5.6966,5.7568,5.772,5.8021,5.8858,5.9036,5.914,5.9178,5.8952,5.8811,5.8895,5.8955,5.8955,5.8945,5.8945,5.8922,5.8719,5.8619,5.8931,5.9719,5.9536,5.9627,6.0466,6.0791,6.1007,6.0987,6.1249,6.147,6.1496,6.1379,6.1182,6.1255,6.1197,6.1123,5.7737,5.7387,5.7348,5.7113,5.6722,5.6255,5.5786,5.5434,5.5474,5.4928,5.4226,5.5039,5.5622,5.5933,5.5966,5.6436,5.7223,5.7223,5.7498,5.7932,5.7932,5.8168,5.8439,5.8025,5.8203,5.8893,5.8423,5.833,5.8602,5.8502,5.8638,5.8981,5.9302,5.9569,5.9734,5.8956,5.872,5.9026,5.6396,5.5021,5.4982,5.3874,5.3072,5.2575,5.2575,5.234,5.192,5.192,5.1723,5.1361,5.1254,5.1548,5.2208,5.1825,5.2258,5.3689,5.3767,5.4117,5.4996,5.5375,5.5413,5.4958,5.5337,5.5299,5.4541,5.4382,5.4193,5.3814,5.4155,5.4541,5.4996,5.5034,5.5375,5.6171,5.6247,5.6247,5.636,5.7005,5.7512,5.7516,5.8143,5.8723,5.9017,5.9093,5.916,5.9566,5.9563,5.9445,5.9474,5.9253,5.9081,5.914,5.9159,5.9159,5.9159,5.9159,5.9111,5.9014,5.9358,5.9761,6.0423,6.0489,6.1073,6.1819,6.2129,6.2199,6.2253,6.2236,6.2166,6.1928,6.17,6.1444,6.143,6.1401,6.1328,5.9103,5.9103,5.9103,5.9103,5.9064,5.8363,5.7621,5.6956,5.7738,5.727,5.61,5.68,5.7151,5.7151,5.719,5.7504,5.805,5.8089,5.8441,5.9064,5.9103,5.922,5.9338,5.922,5.9299,5.9607,5.9411,5.9297,5.9423,5.9326,5.9534,6.0095,6.0522,6.0639,6.0461,5.9775,5.939,5.9331,5.8765,5.8307,5.7886,5.7886,5.7581,5.6976,5.6861,5.6594,5.6014,5.5969,5.5976,5.5969,5.5847,5.5821,5.5756,5.531,5.5042,5.5007,5.4941,5.539,5.633,5.6285,5.5981,5.5564,5.6285,5.6785,5.6739,5.6323,5.583,5.5527,5.5489,5.583,5.6588,5.6785,5.7088,5.7846,5.7952,5.796,5.8036,5.8567,5.8984,5.9059,5.9514,5.9856,5.9893,5.9893,5.9877,5.9853,5.9761,5.9723,5.9848,5.9809,5.9775,5.987,5.9692,5.9514,5.9589,5.9702,5.9787,5.9806,6.0464,6.0962,6.13,6.1817,6.2419,6.3114,6.3221,6.3248,6.3409,6.3144,6.2719,6.2376,6.2064,6.1756,6.1623,6.1853,6.1875,5.9142,5.9103,5.9181,5.9103,5.9142,5.9025,5.8519,5.7894,5.8596,5.848,5.7738,5.848,5.8869,5.8869,5.883,5.8869,5.8986,5.8986,5.9025,5.9142,5.9103,5.9533,6.0159,5.9494,5.9923,6.1132,6.062,6.055,6.1112,6.1172,6.1131,6.1,6.0848,6.0762,6.0662,6.0444,6.0331,6.0262,6.0224,5.946,5.8001,5.7886,5.7848,5.7772,5.7772,5.7778,5.7581,5.7657,5.7657,5.7657,5.7612,5.7623,5.7409,5.613,5.5223,5.5059,5.503,5.5677,5.7058,5.6626,5.6558,5.7164,5.7922,5.8415,5.8453,5.9022,5.8756,5.7573,5.7194,5.7535,5.8339,5.8453,5.868,5.9325,5.9514,5.9666,5.9552,5.9742,5.978,5.978,5.9818,5.9893,5.9893,5.9969,6.0007,6.0159,6.0164,6.0328,6.0821,6.0909,6.1149,6.148,6.0751,6.0089,6.0541,6.0767,6.0902,6.1385,6.176,6.2145,6.2643,6.3103,6.3646,6.3992,6.4303,6.4206,6.4016,6.3771,6.3385,6.2976,6.2581,6.2135,6.1842,6.2227,6.268,6.0353,5.9924,6.0431,6.0626,6.0626,6.0665,6.0431,6.0157,6.047,6.0431,6.0196,6.047,6.0079,5.9142,5.9103,5.9377,5.9846,5.9885,6.0159,6.0626,6.0626,6.0821,6.1095,6.0821,6.1055,6.1641,6.1328,6.1317,6.1568,6.1632,6.15,6.1304,6.1158,6.1014,6.0877,6.0707,6.0588,6.0558,6.0448,6.0071,5.946,5.9383,5.9147,5.8651,5.8612,5.8345,5.7963,5.7886,5.7886,5.7886,5.7886,5.788,5.7846,5.7156,5.6498,5.5971,5.6266,5.677,5.7423,5.8022,5.8529,5.8862,5.9211,5.9401,5.9401,5.9704,5.9552,5.9059,5.887,5.9059,5.9325,5.9401,5.9552,5.9856,5.9893,5.9893,5.9893,5.9893,5.9893,5.9893,5.9893,5.9931,5.9969,6.031,6.0795,6.1212,6.1363,6.1477,6.1818,6.1856,6.1999,6.2218,6.1704,6.1443,6.1737,6.1783,6.1929,6.2158,6.2638,6.3183,6.341,6.406,6.4465,6.4734,6.468,6.4596,6.4416,6.405,6.3626,6.3419,6.3013,6.2524,6.2543,6.2821,6.337,6.0942,6.0861,6.1446,6.1719,6.1719,6.1719,6.1563,6.1407,6.1602,6.1444,6.1055,6.1483,6.086,5.9611,5.9689,6.0196,6.0705,6.0744,6.1095,6.168,6.1719,6.1719,6.1719,6.1719,6.1719,6.1719,6.168,6.168,6.1718,6.171,6.1641,6.1506,6.1417,6.1262,6.1104,6.0886,6.0782,6.0794,6.0651,6.0565,6.0527,6.0494,6.0147,5.9536,5.9453,5.9185,5.8612,5.8581,5.8574,5.8581,5.8574,5.8574,5.8574,5.8335,5.7836,5.7274,5.7389,5.7757,5.8114,5.9047,5.969,5.9864,5.9893,5.9893,5.9893,5.9893,5.9893,5.9856,5.9893,5.9856,5.9893,5.9893,5.9893,5.9893,5.9893,5.9893,5.9893,6.0045,6.0235,6.0235,6.0576,6.0576,6.0652,6.1098,6.1705,6.2151,6.234,6.253,6.2682,6.2719,6.2795,6.3023,6.3098,6.2985,6.2795,6.2702,6.2757,6.3174,6.3658,6.3915,6.397,6.4576,6.488,6.4817,6.4726,6.469,6.468,6.4328,6.4009,6.3841,6.3545,6.3334,6.357,6.3889,6.4715,6.0167,6.1524,6.168,6.1719,6.1719,6.1719,6.1211,6.0588,6.1328,6.0782,5.9689,6.0977,6.1172,6.0393,6.1055,6.1563,6.1602,6.1563,6.1602,6.1719,6.1719,6.1719,6.1719,6.1719,6.1719,6.1719,6.1719,6.1719,6.1719,6.1718,6.1718,6.1671,6.1571,6.1476,6.1348,6.1154,6.107,6.0988,6.094,6.0949,6.093,6.079,6.0559,6.0311,6.03,6.0224,6.0186,6.0262,6.0224,6.0262,6.0148,6.0224,6.0186,5.9446,5.8908,5.8775,5.8087,5.8273,5.9429,5.9261,5.9222,5.9758,5.991,5.9893,5.9893,5.9893,5.9893,5.9893,5.9969,6.0007,5.9969,5.9931,5.9931,5.9969,5.9969,5.9969,6.0007,6.0727,6.0993,6.1144,6.1629,6.1999,6.2189,6.2303,6.2416,6.253,6.253,6.2757,6.3402,6.3553,6.3856,6.4349,6.4538,6.4463,6.3743,6.3553,6.3894,6.4197,6.4387,6.4737,6.4813,6.488,6.488,6.4917,6.4882,6.4835,6.4862,6.4763,6.4568,6.4475,6.4513,6.4473,6.4795,6.6035,6.6667,6.1105,6.168,6.1719,6.1719,6.1719,6.1719,6.1211,6.0432,6.0704,6.0198,5.9455,6.0354,6.0705,6.0432,6.1289,6.1719,6.1719,6.1719,6.1719,6.1719,6.1719,6.1719,6.1719,6.1719,6.1719,6.1719,6.1719,6.1719,6.1719,6.1719,6.1719,6.1716,6.166,6.1605,6.1543,6.1345,6.1207,6.1183,6.107,6.0997,6.0993,6.079,6.0657,6.0603,6.0473,6.0377,6.0377,6.0377,6.0377,6.0377,6.0377,6.0377,6.03,5.9568,5.9095,5.9022,5.873,5.8749,5.9253,5.9543,5.9718,5.9906,5.9974,5.9942,5.991,5.9893,5.9893,5.9969,6.0424,6.0652,6.0576,6.0235,6.0121,6.0576,6.0689,6.0879,6.1401,6.1743,6.1932,6.1961,6.2265,6.2568,6.3052,6.3174,6.3402,6.3856,6.4008,6.4084,6.4311,6.4434,6.4538,6.4813,6.4917,6.4804,6.4538,6.4434,6.4547,6.4728,6.4888,6.485,6.488,6.488,6.4917,6.4917,6.4917,6.4917,6.4917,6.5013,6.4868,6.5065,6.5122,6.5752,6.6098,6.7052,6.7494,6.1538,6.1334,6.1564,6.1719,6.1719,6.1719,6.1016,6.008,6.0276,5.9611,5.8752,5.9768,6.0121,5.9885,6.1055,6.1524,6.1328,6.1563,6.1719,6.1719,6.1719,6.1719,6.1719,6.1719,6.1719,6.1719,6.1719,6.1719,6.1719,6.1719,6.1719,6.1719,6.1719,6.1719,6.1668,6.1517,6.1422,6.1356,6.1271,6.1221,6.1158,6.0997,6.0895,6.0864,6.0704,6.0514,6.0398,6.0377,6.0377,6.0377,6.0377,6.0377,6.0339,5.9873,5.9529,5.9522,5.9481,5.9438,5.9486,5.9892,6.0137,6.0022,6.0029,5.999,5.9934,6.0137,6.0273,6.0424,6.1031,6.1515,6.141,6.1022,6.0947,6.1401,6.1515,6.1743,6.2303,6.2606,6.2909,6.3174,6.3288,6.3515,6.3894,6.4008,6.4273,6.4842,6.4917,6.4917,6.4917,6.4917,6.4917,6.4917,6.4917,6.4917,6.4766,6.4737,6.4737,6.4842,6.4917,6.4917,6.4917,6.4917,6.4917,6.4917,6.4917,6.4917,6.4993,6.5107,6.535,6.5613,6.6385,6.7088,6.7465,6.7824,6.8311,6.123,6.068,6.1333,6.172,6.1681,6.1602,6.0665,5.9494,5.9924,5.887,5.7347,5.9222,5.934,5.8675,6.0392,6.1133,6.0744,6.125,6.1641,6.168,6.1719,6.1719,6.1719,6.1719,6.1719,6.1719,6.1719,6.1719,6.1719,6.1719,6.1719,6.1719,6.1719,6.1719,6.1719,6.1609,6.159,6.1654,6.1685,6.1705,6.1632,6.158,6.1496,6.1415,6.1255,6.101,6.0606,6.0495,6.0418,6.0405,6.0384,6.0377,6.0377,6.03,6.0339,6.03,6.0332,6.0335,6.0263,6.0248,6.0257,6.0259,6.0098,6.0211,6.0415,6.0806,6.1144,6.1258,6.1894,6.2416,6.2416,6.2416,6.2378,6.2416,6.2416,6.2454,6.2682,6.3174,6.3894,6.4538,6.4652,6.4842,6.488,6.4766,6.4804,6.4842,6.4917,6.4917,6.4917,6.4917,6.4917,6.4917,6.4917,6.4917,6.4917,6.4917,6.4917,6.4917,6.4917,6.4917,6.4917,6.4917,6.4917,6.4917,6.4917,6.4917,6.5031,6.5221,6.5874,6.6333,6.7335,6.8187,6.8562,6.883,6.9242,6.1554,6.1353,6.1579,6.1693,6.1614,6.106,6.0118,5.9064,5.8792,5.7816,5.7034,5.8011,5.8286,5.8207,5.9299,6.0079,6.0393,6.0705,6.1133,6.1602,6.168,6.168,6.1719,6.1719,6.1719,6.1719,6.1719,6.1719,6.1719,6.1719,6.1719,6.1719,6.1719,6.1719,6.1796,6.1702,6.1882,6.2451,6.2504,6.2754,6.3237,6.3093,6.3023,6.3005,6.2818,6.2684,6.2574,6.1352,6.0634,6.066,6.0486,6.0377,6.0415,6.0377,6.0377,6.0377,6.0377,6.0408,6.0387,6.0411,6.0643,6.0912,6.0982,6.1246,6.1609,6.1877,6.1978,6.2084,6.2719,6.3212,6.3326,6.3818,6.3789,6.3288,6.325,6.3477,6.3894,6.4273,6.4576,6.4804,6.4917,6.4917,6.4917,6.4917,6.4917,6.4917,6.4917,6.4917,6.4917,6.4917,6.4917,6.4917,6.4917,6.4917,6.4917,6.4917,6.4917,6.4917,6.4917,6.4917,6.4917,6.4917,6.4917,6.4917,6.4917,6.4993,6.5107,6.5562,6.6291,6.7011,6.7883,6.8613,6.9285,6.9636,6.9825,6.1403,6.1712,6.1702,6.1698,6.1618,6.075,5.9924,5.9025,5.8168,5.7348,5.6878,5.7465,5.7621,5.766,5.8557,5.9377,5.9924,6.0237,6.0705,6.1174,6.1211,6.1368,6.1641,6.1719,6.1719,6.1719,6.1719,6.1719,6.1719,6.1719,6.1875,6.2109,6.2187,6.2383,6.2616,6.2676,6.293,6.3308,6.336,6.3609,6.3974,6.3995,6.3913,6.3904,6.3789,6.374,6.3689,6.2519,6.178,6.1633,6.1452,6.1332,6.1325,6.137,6.1332,6.1325,6.1332,6.1363,6.1325,6.1433,6.1502,6.1902,6.1942,6.2109,6.2541,6.2727,6.2943,6.3057,6.3711,6.4196,6.4272,6.4579,6.4638,6.4212,6.4101,6.4311,6.4804,6.4917,6.488,6.4917,6.4917,6.4917,6.4917,6.4917,6.4917,6.4917,6.4917,6.4917,6.4917,6.4917,6.4917,6.4917,6.4917,6.4917,6.4917,6.4917,6.4917,6.4917,6.4917,6.4917,6.4917,6.4917,6.4917,6.4917,6.4917,6.5267,6.5419,6.6215,6.6935,6.7693,6.8413,6.9096,6.9711,6.9749,6.9901,6.0974,6.1677,6.1706,6.1699,6.158,6.0789,5.9963,5.9142,5.8168,5.7387,5.6995,5.7348,5.7309,5.7112,5.8127,5.8791,5.9142,5.969,6.0119,6.0237,6.0276,6.0549,6.1368,6.1602,6.1719,6.1719,6.1719,6.1758,6.1914,6.1914,6.2226,6.2969,6.3086,6.3439,6.3904,6.419,6.4097,6.4242,6.4209,6.4228,6.4374,6.4369,6.4364,6.4361,6.4393,6.4424,6.4404,6.4097,6.3644,6.322,6.282,6.2675,6.2823,6.2884,6.2739,6.2693,6.2846,6.2732,6.2808,6.2617,6.277,6.2915,6.2887,6.2925,6.3161,6.3662,6.3957,6.3995,6.4612,6.5077,6.506,6.5048,6.496,6.4981,6.4789,6.485,6.488,6.4917,6.4917,6.4917,6.4917,6.4917,6.4917,6.4917,6.4917,6.4917,6.4917,6.4917,6.4917,6.4917,6.4917,6.4917,6.4917,6.4917,6.4917,6.4917,6.4917,6.4917,6.4917,6.4917,6.4917,6.4917,6.4917,6.4917,6.5107,6.5457,6.595,6.6746,6.7466,6.8186,6.8868,6.9636,6.9901,6.9901,6.9901,6.1484,6.1679,6.1712,6.1706,6.1587,6.0753,6.0276,5.9846,5.8441,5.766,5.7426,5.7073,5.6839,5.6683,5.7073,5.7582,5.8168,5.8441,5.887,5.9261,5.8753,5.9417,6.0665,6.1407,6.168,6.168,6.1719,6.2031,6.2618,6.2579,6.3086,6.3946,6.3868,6.4025,6.4256,6.4328,6.4624,6.5069,6.5133,6.5418,6.5857,6.5891,6.6008,6.6008,6.5969,6.5969,6.6,6.5813,6.4838,6.3341,6.3155,6.3032,6.305,6.3021,6.3059,6.3037,6.2999,6.2961,6.2961,6.2961,6.3228,6.377,6.378,6.3955,6.4595,6.4761,6.4873,6.4903,6.5131,6.5215,6.5215,6.5191,6.5111,6.4998,6.495,6.4926,6.4917,6.4917,6.4917,6.4917,6.4917,6.4917,6.4917,6.4917,6.4917,6.4917,6.4917,6.4917,6.4917,6.4917,6.4917,6.4917,6.4917,6.4917,6.4917,6.4917,6.4917,6.4917,6.4917,6.4917,6.4917,6.4917,6.4917,6.4917,6.5448,6.5827,6.648,6.72,6.7921,6.8679,6.9219,6.9825,6.9863,6.9901,6.9901,6.0508,6.1172,6.1167,6.1162,6.1122,6.0598,6.0198,5.9612,5.8441,5.7582,5.727,5.6839,5.6605,5.6605,5.6644,5.7034,5.7738,5.7816,5.8089,5.848,5.848,5.8987,5.9924,6.0744,6.1328,6.168,6.1719,6.2187,6.2852,6.3008,6.3478,6.4103,6.4298,6.4454,6.4882,6.4837,6.5213,6.581,6.5759,6.5892,6.6634,6.632,6.6398,6.6592,6.6709,6.6709,6.666,6.6564,6.5801,6.4716,6.4397,6.4292,6.4074,6.4078,6.4061,6.3984,6.3954,6.3962,6.3954,6.3954,6.4191,6.4573,6.4635,6.4848,6.5184,6.5298,6.5274,6.5282,6.5274,6.5274,6.5274,6.525,6.5161,6.5053,6.4976,6.4924,6.4926,6.4917,6.4917,6.4917,6.4917,6.4917,6.4917,6.4917,6.4917,6.4917,6.4917,6.4917,6.4917,6.4917,6.4917,6.4917,6.4917,6.4917,6.4917,6.4917,6.4917,6.4917,6.4917,6.4917,6.5031,6.5069,6.5192,6.5343,6.5789,6.6395,6.7162,6.7845,6.8451,6.9105,6.9598,6.9825,6.9863,6.9901,6.9901,5.9023,6.039,6.0307,6.0264,6.0262,6.0246,5.9806,5.9064,5.8207,5.7465,5.6917,5.6683,5.6605,5.6605,5.6605,5.6995,5.7621,5.7543,5.7738,5.8089,5.8558,5.922,5.9611,6.0471,6.1133,6.1641,6.1719,6.2226,6.2813,6.3008,6.3478,6.4103,6.4298,6.4688,6.5075,6.5337,6.5865,6.6003,6.571,6.5649,6.5974,6.5621,6.5657,6.632,6.667,6.6554,6.6554,6.6571,6.6442,6.6153,6.6153,6.5815,6.5639,6.5654,6.5516,6.5251,6.5146,6.5184,6.5299,6.5146,6.5261,6.5299,6.5299,6.5413,6.5406,6.5391,6.5391,6.5383,6.5413,6.5398,6.5383,6.5329,6.5218,6.5086,6.5044,6.4984,6.4915,6.4917,6.4917,6.4917,6.4917,6.4917,6.4917,6.4917,6.4917,6.4917,6.4917,6.4917,6.4917,6.4917,6.4917,6.4917,6.4917,6.4917,6.4917,6.4917,6.4917,6.4917,6.4917,6.4955,6.5296,6.5372,6.5571,6.5874,6.6518,6.7238,6.8034,6.8641,6.9143,6.9408,6.9787,6.9863,6.9901,6.9901,6.9901,6.0078,6.0351,5.9644,5.9366,5.9403,5.9387,5.9259,5.8986,5.8168,5.766,5.7387,5.6878,5.6605,5.6605,5.6605,5.6722,5.6917,5.6995,5.7151,5.7894,5.8675,5.9494,6.0118,6.0977,6.1446,6.1719,6.1719,6.2187,6.2813,6.3047,6.3399,6.4142,6.4181,6.4376,6.4569,6.5064,6.5162,6.4948,6.5162,6.5101,6.4807,6.4608,6.4803,6.5618,6.6281,6.6281,6.5969,6.632,6.6647,6.6585,6.6396,6.6157,6.5857,6.5736,6.5633,6.5487,6.5429,6.5413,6.5413,6.5413,6.5413,6.5413,6.5413,6.5413,6.5413,6.5413,6.5413,6.5413,6.5413,6.5413,6.5406,6.5337,6.5242,6.5153,6.5078,6.5001,6.4915,6.4917,6.4917,6.4917,6.4917,6.4917,6.4917,6.4917,6.4917,6.4917,6.4917,6.4917,6.4917,6.4917,6.4917,6.4917,6.4917,6.4917,6.4917,6.4955,6.5031,6.5145,6.5183,6.5419,6.5713,6.6054,6.6367,6.6821,6.7352,6.8072,6.8754,6.9219,6.9636,6.9787,6.9901,6.9901,6.9901,6.9901,6.9901,5.9219,5.918,5.8745,5.8546,5.8583,5.8919,5.8869,5.8479,5.8011,5.7582,5.723,5.6761,5.6605,5.6605,5.6605,5.6605,5.6722,5.7034,5.7855,5.887,5.9573,6.0157,6.0899,6.1407,6.1719,6.1719,6.1719,6.2187,6.2774,6.3008,6.3204,6.3634,6.3712,6.3634,6.3712,6.4172,6.4271,6.4249,6.4197,6.4177,6.4106,6.3711,6.3945,6.4761,6.5579,6.5813,6.554,6.5813,6.6281,6.6538,6.6606,6.6396,6.6094,6.5937,6.5761,6.5566,6.5435,6.539,6.5413,6.5413,6.5413,6.5413,6.5413,6.5413,6.5413,6.5413,6.5413,6.5413,6.5413,6.5413,6.5413,6.5383,6.5305,6.5232,6.5128,6.5036,6.4924,6.4917,6.4917,6.4917,6.4917,6.4917,6.4917,6.4917,6.4917,6.4917,6.4917,6.4917,6.4917,6.4917,6.4917,6.4917,6.4917,6.4917,6.4917,6.4993,6.5183,6.541,6.5646,6.6101,6.6594,6.6973,6.7352,6.7731,6.8072,6.8603,6.9209,6.9673,6.9901,6.9901,6.9901,6.9901,6.9901,6.9901,6.9901,5.8047,5.789,5.7769,5.7686,5.7802,5.8372,5.8244,5.7699,5.7621,5.719,5.6722,5.6605,5.6605,5.6605,5.6605,5.6644,5.7073,5.7933,5.9067,6.0002,6.0432,6.0938,6.1524,6.1641,6.1719,6.1719,6.1719,6.2148,6.254,6.2813,6.2696,6.2813,6.2813,6.2813,6.2813,6.3005,6.3263,6.3469,6.3304,6.3167,6.3407,6.2971,6.3088,6.3595,6.4956,6.5151,6.4995,6.5229,6.5735,6.6437,6.6631,6.6618,6.6471,6.6264,6.6024,6.573,6.5563,6.5465,6.539,6.5413,6.5413,6.5413,6.5413,6.5413,6.5413,6.5413,6.5413,6.5413,6.5413,6.5413,6.5413,6.5406,6.5337,6.5234,6.5185,6.5095,6.4958,6.4935,6.4917,6.4917,6.4917,6.4917,6.4917,6.4917,6.4917,6.4917,6.4917,6.4917,6.4917,6.4917,6.4917,6.4917,6.4917,6.4917,6.4917,6.5372,6.5486,6.5865,6.6139,6.6821,6.739,6.7693,6.8034,6.8337,6.8716,6.9209,6.9512,6.9749,6.9901,6.9901,6.9901,6.9901,6.9901,6.9901,6.9901,5.8555,5.7851,5.7144,5.6827,5.6825,5.7005,5.7034,5.68,5.6878,5.6761,5.6644,5.6605,5.6605,5.6605,5.6605,5.6956,5.7894,5.9026,6.0002,6.0588,6.1055,6.1602,6.1641,6.1719,6.1719,6.1719,6.1719,6.1875,6.1953,6.1914,6.207,6.1992,6.1992,6.1992,6.2223,6.2527,6.2595,6.2494,6.2557,6.2652,6.2279,6.2231,6.2036,6.2503,6.4099,6.4449,6.3982,6.4644,6.5462,6.5657,6.632,6.6582,6.6615,6.6464,6.6162,6.5857,6.5699,6.5545,6.5472,6.5383,6.5421,6.5413,6.5413,6.5413,6.5413,6.5413,6.5413,6.5413,6.5413,6.5413,6.5413,6.5413,6.5368,6.5282,6.5248,6.5166,6.5019,6.4941,6.4935,6.4926,6.4926,6.4917,6.4917,6.4917,6.4917,6.4917,6.4917,6.4917,6.4917,6.4917,6.4917,6.4917,6.4917,6.4917,6.4917,6.5562,6.6016,6.6433,6.6859,6.7579,6.8072,6.8337,6.8641,6.8906,6.9219,6.9598,6.9825,6.9901,6.9901,6.9901,6.9901,6.9901,6.9901,6.9901,6.9901,5.8008,5.7187,5.6752,5.663,5.6625,5.6612,5.6605,5.6605,5.6605,5.6605,5.6605,5.6605,5.6605,5.6722,5.7112,5.7894,5.9143,5.9885,6.0666,6.1055,6.1524,6.1719,6.1719,6.1719,6.1719,6.1719,6.1719,6.1719,6.1719,6.1719,6.1719,6.1719,6.1719,6.1719,6.1757,6.2064,6.2086,6.1795,6.1974,6.2071,6.1729,6.1958,6.2075,6.2192,6.3049,6.3556,6.3322,6.3517,6.4566,6.5268,6.5813,6.6242,6.6538,6.6606,6.6407,6.6109,6.5863,6.566,6.5524,6.5456,6.5413,6.5413,6.5413,6.5413,6.5413,6.5413,6.5413,6.5413,6.5413,6.5413,6.5413,6.5413,6.5375,6.5305,6.525,6.5169,6.5061,6.4993,6.4941,6.4897,6.4926,6.4917,6.4917,6.4917,6.4917,6.4917,6.4917,6.4917,6.4917,6.4917,6.4917,6.5031,6.5107,6.5343,6.5457,6.6063,6.667,6.7125,6.7579,6.83,6.8802,6.9029,6.9219,6.9408,6.9711,6.9863,6.9901,6.9901,6.9901,6.9901,6.9901,6.9901,6.9901,6.9901,6.9901,5.7382,5.6599,5.6595,5.6628,5.662,5.661,5.6605,5.6605,5.6605,5.6605,5.6605,5.6605,5.6722,5.7112,5.7972,5.9104,6.0393,6.0549,6.1094,6.1485,6.168,6.1719,6.1719,6.1719,6.1719,6.1719,6.1719,6.1719,6.1719,6.1719,6.1719,6.1719,6.1719,6.1719,6.1757,6.1796,6.1663,6.1607,6.1595,6.1576,6.1816,6.2348,6.2465,6.1763,6.2426,6.2893,6.2581,6.2932,6.3789,6.4725,6.5385,6.5813,6.6515,6.6709,6.6627,6.6414,6.6044,6.5822,6.5634,6.5506,6.5413,6.5413,6.5413,6.5413,6.5413,6.5413,6.5413,6.5413,6.5413,6.5413,6.5413,6.5413,6.5383,6.5337,6.529,6.5234,6.512,6.5027,6.4967,6.4924,6.4935,6.4917,6.4917,6.4917,6.4917,6.4917,6.4917,6.4917,6.4917,6.4917,6.4955,6.5183,6.541,6.5798,6.6177,6.6746,6.739,6.7958,6.8451,6.9058,6.9446,6.9749,6.9787,6.9711,6.9787,6.9901,6.9901,6.9901,6.9901,6.9901,6.9901,6.9901,6.9901,6.9901,6.9901,5.7382,5.6599,5.6595,5.6628,5.6619,5.661,5.6605,5.6605,5.6605,5.6605,5.6605,5.6683,5.7034,5.7933,5.93,6.0119,6.0588,6.1094,6.1485,6.1719,6.1719,6.1719,6.1719,6.1719,6.1719,6.1719,6.1719,6.1719,6.1719,6.1719,6.1719,6.1719,6.1719,6.1719,6.1719,6.1719,6.1666,6.1602,6.1595,6.1575,6.1733,6.2387,6.227,6.2036,6.2348,6.2542,6.2192,6.2581,6.3517,6.4216,6.5034,6.5774,6.6515,6.6709,6.6707,6.6546,6.6277,6.5942,6.5743,6.5569,6.5398,6.5398,6.5413,6.5413,6.5413,6.5413,6.5413,6.5413,6.5413,6.5413,6.5413,6.5413,6.5406,6.5375,6.5329,6.5266,6.5161,6.5086,6.5019,6.4924,6.4926,6.4917,6.4917,6.4917,6.4917,6.4917,6.4917,6.4917,6.4993,6.5078,6.5221,6.5486,6.6016,6.6404,6.6897,6.7466,6.8034,6.8679,6.9133,6.9588,6.974,6.9901,6.9901,6.9863,6.9901,6.9901,6.9901,6.9901,6.9901,6.9901,6.9901,6.9901,6.9901,6.9901,6.9901,5.6952,5.6596,5.6593,5.6625,5.6613,5.6607,5.6605,5.6605,5.6605,5.6605,5.6722,5.7112,5.8011,5.9183,6.0159,6.0666,6.1094,6.1524,6.168,6.1719,6.1719,6.1719,6.1719,6.1719,6.1719,6.1719,6.1719,6.1719,6.1719,6.1719,6.1719,6.1719,6.1719,6.1719,6.1719,6.1719,6.1664,6.16,6.1575,6.1591,6.1692,6.1919,6.1997,6.1646,6.2465,6.2348,6.2153,6.2932,6.3634,6.4257,6.4917,6.5774,6.6476,6.6709,6.6707,6.6657,6.6457,6.6196,6.5937,6.5718,6.5549,6.5413,6.5383,6.5413,6.5413,6.5413,6.5413,6.5413,6.5413,6.5413,6.5413,6.5413,6.5413,6.5398,6.5368,6.529,6.521,6.5153,6.5078,6.4976,6.4917,6.4917,6.4917,6.4917,6.4917,6.4917,6.4917,6.4955,6.5183,6.5457,6.5684,6.5941,6.6556,6.7162,6.7693,6.8224,6.8641,6.9171,6.9408,6.9787,6.9825,6.9901,6.9901,6.9901,6.9901,6.9901,6.9901,6.9901,6.9901,6.9901,6.9901,6.9901,6.9901,6.9901,6.9901,5.66,5.6593,5.6592,5.6623,5.6606,5.6605,5.6605,5.6605,5.6605,5.6722,5.7151,5.7972,5.9261,6.0237,6.0627,6.1133,6.1641,6.1719,6.1719,6.1719,6.1719,6.1719,6.1719,6.1719,6.1719,6.1719,6.1719,6.1719,6.1719,6.1719,6.1719,6.1719,6.1719,6.1719,6.1719,6.1677,6.1667,6.1597,6.1595,6.1573,6.1607,6.1607,6.1646,6.1841,6.227,6.2581,6.227,6.3205,6.4023,6.4608,6.5034,6.5813,6.6515,6.6709,6.6709,6.6696,6.6526,6.638,6.6133,6.5886,6.5634,6.552,6.539,6.5413,6.5413,6.5413,6.5413,6.5413,6.5413,6.5413,6.5413,6.5413,6.5413,6.5413,6.5406,6.5321,6.5234,6.5177,6.5111,6.501,6.4924,6.4917,6.4917,6.4917,6.4917,6.4917,6.4917,6.4993,6.5448,6.595,6.648,6.685,6.7314,6.7958,6.8565,6.9058,6.9437,6.9598,6.9787,6.9901,6.9901,6.9901,6.9901,6.9901,6.9901,6.9901,6.9901,6.9901,6.9901,6.9901,6.9901,6.9901,6.9901,6.9901,6.9901,5.6597,5.6592,5.6592,5.6623,5.6605,5.6605,5.6605,5.6605,5.6605,5.7034,5.7894,5.9339,6.0119,6.0588,6.1172,6.1563,6.1719,6.1719,6.1719,6.1719,6.1719,6.1719,6.1719,6.1719,6.1719,6.1719,6.1719,6.1719,6.1719,6.1719,6.1719,6.1719,6.1719,6.1719,6.1718,6.1715,6.1664,6.1597,6.1595,6.1573,6.1571,6.1568,6.1568,6.1802,6.2387,6.2854,6.2854,6.3828,6.4413,6.5034,6.5385,6.5696,6.6359,6.6631,6.667,6.6699,6.6691,6.6533,6.6357,6.6023,6.5743,6.5646,6.5527,6.5413,6.5413,6.5413,6.5413,6.5413,6.5413,6.5413,6.5413,6.5413,6.5413,6.5413,6.5406,6.5352,6.5274,6.524,6.5128,6.5027,6.4958,6.4944,6.5078,6.5116,6.4993,6.4955,6.5296,6.5372,6.6177,6.6746,6.7504,6.7958,6.8262,6.883,6.9484,6.9825,6.9749,6.9711,6.9863,6.9901,6.9901,6.9901,6.9901,6.9901,6.9901,6.9901,6.9901,6.9901,6.9901,6.9901,6.9901,6.9901,6.9901,6.9901,6.9901,5.6595,5.6626,5.6626,5.6619,5.6605,5.6605,5.6605,5.6605,5.6605,5.7386,5.8635,5.9846,6.0705,6.1172,6.1446,6.1719,6.1719,6.1719,6.1719,6.1719,6.1719,6.1719,6.1719,6.1719,6.1719,6.1719,6.1719,6.1719,6.1719,6.1719,6.1719,6.1719,6.1719,6.1719,6.1718,6.1711,6.1657,6.1598,6.1569,6.1584,6.1571,6.1568,6.1568,6.1685,6.3049,6.3244,6.3283,6.48,6.4997,6.5075,6.5657,6.5969,6.6086,6.6437,6.667,6.6709,6.6709,6.6644,6.6526,6.6171,6.5872,6.5542,6.5443,6.5413,6.5413,6.5413,6.5413,6.5413,6.5413,6.5413,6.5413,6.5413,6.5413,6.5413,6.5398,6.5368,6.5298,6.5256,6.5136,6.5036,6.4958,6.4926,6.5154,6.5381,6.5192,6.5069,6.5448,6.5941,6.6783,6.7504,6.8224,6.8679,6.8944,6.9181,6.9787,6.9901,6.9901,6.9901,6.9901,6.9901,6.9901,6.9901,6.9901,6.9901,6.9901,6.9901,6.9901,6.9901,6.9901,6.9901,6.9901,6.9901,6.9901,6.9901,6.9901,5.6593,5.6621,5.6618,5.6613,5.6605,5.6605,5.6605,5.6605,5.6605,5.7542,5.9142,6.0237,6.1095,6.1602,6.1719,6.1719,6.1719,6.1719,6.1719,6.1719,6.1719,6.1719,6.1719,6.1719,6.1719,6.1719,6.1719,6.1719,6.1719,6.1719,6.1719,6.1719,6.1719,6.1719,6.1715,6.1706,6.1691,6.1597,6.1575,6.1591,6.1573,6.188,6.2036,6.2309,6.3634,6.4218,6.4371,6.5424,6.5696,6.5501,6.5657,6.6047,6.6047,6.6125,6.6592,6.6709,6.6709,6.6709,6.6612,6.6329,6.5941,6.5638,6.5435,6.5398,6.5413,6.5413,6.5413,6.5413,6.5413,6.5413,6.5413,6.5413,6.5413,6.5413,6.5413,6.5383,6.5298,6.5218,6.5136,6.5044,6.5119,6.5372,6.5684,6.6025,6.6291,6.6291,6.6783,6.7162,6.7617,6.83,6.8906,6.9257,6.9484,6.9673,6.9901,6.9901,6.9901,6.9901,6.9901,6.9901,6.9901,6.9901,6.9901,6.9901,6.9901,6.9901,6.9901,6.9901,6.9901,6.9901,6.9901,6.9901,6.9901,6.9901,6.9901,5.6628,5.6619,5.661,5.6606,5.6605,5.6605,5.6605,5.6644,5.68,5.7737,5.9338,6.086,6.1563,6.1719,6.1719,6.1719,6.1719,6.1719,6.1719,6.1719,6.1719,6.1719,6.1719,6.1719,6.1719,6.1719,6.1719,6.1719,6.1719,6.1719,6.1719,6.1719,6.1719,6.1719,6.1718,6.1706,6.1652,6.1597,6.1575,6.1595,6.1729,6.2192,6.2387,6.2815,6.4062,6.4683,6.4956,6.5891,6.6047,6.554,6.6086,6.6203,6.5618,6.6242,6.667,6.6709,6.6709,6.6709,6.6694,6.6316,6.597,6.5718,6.5534,6.545,6.5398,6.5413,6.5413,6.5413,6.5413,6.5413,6.5413,6.5413,6.5413,6.5413,6.5413,6.5383,6.5298,6.5218,6.5136,6.512,6.5633,6.6092,6.6404,6.6783,6.7238,6.7617,6.8148,6.8489,6.8641,6.8953,6.9446,6.956,6.9749,6.9787,6.9901,6.9901,6.9901,6.9901,6.9901,6.9901,6.9901,6.9901,6.9901,6.9901,6.9901,6.9901,6.9901,6.9901,6.9901,6.9901,6.9901,6.9901,6.9901,6.9901,6.9901,5.6625,5.6611,5.6607,5.6605,5.6605,5.6605,5.6605,5.68,5.7776,5.8869,6.0001,6.125,6.1719,6.1719,6.1719,6.1719,6.1719,6.1719,6.1719,6.1719,6.1719,6.1719,6.1719,6.1719,6.1719,6.1719,6.1719,6.1719,6.1719,6.1719,6.1719,6.1719,6.1719,6.1719,6.1718,6.1711,6.1664,6.16,6.1586,6.161,6.1653,6.1919,6.2153,6.2231,6.3789,6.4605,6.48,6.5969,6.6125,6.5618,6.6242,6.6242,6.5735,6.6242,6.667,6.6709,6.6709,6.6709,6.6612,6.6337,6.598,6.5779,6.5633,6.5506,6.5428,6.5421,6.5413,6.5413,6.5413,6.5413,6.5413,6.5413,6.5413,6.5413,6.5406,6.5368,6.5298,6.5218,6.5174,6.5272,6.5595,6.6877,6.7542,6.7769,6.8186,6.8413,6.883,6.9096,6.9294,6.9446,6.9749,6.9787,6.9863,6.9863,6.9901,6.9901,6.9901,6.9901,6.9901,6.9901,6.9901,6.9901,6.9901,6.9901,6.9901,6.9901,6.9901,6.9901,6.9901,6.9901,6.9901,6.9901,6.9901,6.9901,6.9901,5.662,5.6605,5.6605,5.6605,5.6605,5.6605,5.6761,5.723,5.8479,5.9572,6.0432,6.1289,6.1719,6.1719,6.1719,6.1719,6.1719,6.1719,6.1719,6.1719,6.1719,6.1719,6.1719,6.1719,6.1719,6.1719,6.1719,6.1719,6.1719,6.1719,6.1719,6.1719,6.1719,6.1719,6.1718,6.1715,6.1666,6.1605,6.1591,6.1576,6.1701,6.1919,6.2114,6.2503,6.3361,6.4294,6.48,6.5424,6.6047,6.5813,6.6008,6.6281,6.5969,6.6125,6.6631,6.6709,6.6709,6.6709,6.6618,6.6523,6.6234,6.6033,6.5779,6.5579,6.5509,6.5457,6.5398,6.5413,6.5413,6.5413,6.5413,6.5413,6.5413,6.5413,6.5406,6.5368,6.5266,6.5185,6.5149,6.5246,6.5974,6.7294,6.8527,6.8868,6.9171,6.9285,6.9437,6.9636,6.9787,6.9825,6.9901,6.9901,6.9901,6.9901,6.9901,6.9901,6.9901,6.9901,6.9901,6.9901,6.9901,6.9901,6.9901,6.9901,6.9901,6.9901,6.9901,6.9901,6.9901,6.9901,6.9901,6.9901,6.9901,6.9901,6.9901,5.6616,5.6607,5.6606,5.6606,5.6606,5.6606,5.7034,5.7855,5.8713,5.9611,6.0549,6.1407,6.1719,6.1719,6.1719,6.1719,6.1719,6.1719,6.1719,6.1719,6.1719,6.1719,6.1719,6.1719,6.1719,6.1719,6.1719,6.1719,6.1719,6.1719,6.1719,6.1719,6.1719,6.1719,6.1719,6.1716,6.1664,6.1605,6.1593,6.1573,6.1658,6.2192,6.2465,6.2854,6.3439,6.4332,6.4917,6.5462,6.5579,6.5774,6.6242,6.6047,6.6008,6.6281,6.6554,6.6709,6.6709,6.6709,6.6702,6.6618,6.6539,6.626,6.5773,6.5646,6.5552,6.5499,6.5405,6.5413,6.5413,6.5413,6.5413,6.5413,6.5413,6.5413,6.5413,6.5337,6.5218,6.5136,6.5069,6.5448,6.6327,6.7504,6.8792,6.9437,6.9332,6.9673,6.9673,6.9711,6.9863,6.9863,6.9901,6.9901,6.9901,6.9901,6.9901,6.9901,6.9901,6.9901,6.9901,6.9901,6.9901,6.9901,6.9901,6.9901,6.9901,6.9901,6.9901,6.9901,6.9901,6.9901,6.9901,6.9901,6.9901,6.9901,6.9901,5.6628,5.6626,5.6619,5.6617,5.6616,5.6608,5.7387,5.8674,5.9064,5.9884,6.1328,6.1563,6.1719,6.1719,6.1719,6.1719,6.1719,6.1719,6.1719,6.1719,6.1719,6.1719,6.1719,6.1719,6.1719,6.1719,6.1719,6.1719,6.1719,6.1719,6.1719,6.1719,6.1719,6.1719,6.1719,6.1719,6.1661,6.1605,6.1598,6.1651,6.1623,6.196,6.2426,6.2971,6.3088,6.3982,6.4917,6.5268,6.5501,6.6242,6.6515,6.6437,6.6476,6.6592,6.6709,6.6709,6.6709,6.6707,6.6696,6.6591,6.652,6.6454,6.6018,6.5711,6.5646,6.5563,6.5413,6.5413,6.5413,6.5413,6.5413,6.5413,6.5413,6.5413,6.5406,6.5337,6.5226,6.5153,6.5116,6.5405,6.6329,6.7314,6.8679,6.9096,6.9058,6.9598,6.9901,6.9901,6.9901,6.9901,6.9901,6.9901,6.9901,6.9901,6.9901,6.9901,6.9901,6.9901,6.9901,6.9901,6.9901,6.9901,6.9901,6.9901,6.9901,6.9901,6.9901,6.9901,6.9901,6.9901,6.9901,6.9901,6.9901,6.9901,6.9901,5.6592,5.6631,5.6628,5.6623,5.6658,5.6962,5.7855,5.8947,5.9103,6.0078,6.1602,6.1719,6.1719,6.1719,6.1719,6.1719,6.1719,6.1719,6.1719,6.1719,6.1719,6.1719,6.1719,6.1719,6.1719,6.1719,6.1719,6.1719,6.1719,6.1719,6.1719,6.1719,6.1719,6.1719,6.1719,6.1718,6.1668,6.1652,6.1675,6.181,6.1868,6.1807,6.2309,6.2971,6.2932,6.3478,6.4683,6.4956,6.5387,6.6164,6.6359,6.6709,6.6709,6.6709,6.6709,6.6709,6.6709,6.6709,6.6699,6.6618,6.6621,6.6543,6.6256,6.6039,6.5749,6.5638,6.5501,6.5413,6.5413,6.5413,6.5413,6.5413,6.5413,6.5413,6.5383,6.5344,6.5266,6.5185,6.5289,6.5463,6.6177,6.7087,6.7807,6.8262,6.8868,6.956,6.9901,6.9901,6.9901,6.9901,6.9901,6.9901,6.9901,6.9901,6.9901,6.9901,6.9901,6.9901,6.9901,6.9901,6.9901,6.9901,6.9901,6.9901,6.9901,6.9901,6.9901,6.9901,6.9901,6.9901,6.9901,6.9901,6.9901,6.9901,6.9901,5.6594,5.6594,5.6593,5.6628,5.6698,5.7393,5.8285,5.9103,5.922,6.0157,6.1524,6.1719,6.1719,6.1719,6.1719,6.1719,6.1719,6.1719,6.1719,6.1719,6.1719,6.1719,6.1719,6.1719,6.1719,6.1719,6.1719,6.1719,6.1719,6.1719,6.1719,6.1719,6.1719,6.1719,6.1719,6.1719,6.1711,6.1702,6.1724,6.1822,6.2188,6.2247,6.2311,6.3436,6.3047,6.262,6.3826,6.4371,6.4491,6.5385,6.6008,6.6476,6.6709,6.6709,6.6709,6.6709,6.6709,6.6709,6.6709,6.6649,6.6694,6.663,6.6513,6.623,6.5964,6.5692,6.5534,6.5398,6.5413,6.5413,6.5413,6.5413,6.5413,6.5413,6.5398,6.5321,6.5264,6.5174,6.52,6.5323,6.5562,6.6556,6.7655,6.8186,6.8679,6.9437,6.9901,6.9901,6.9901,6.9901,6.9901,6.9901,6.9901,6.9901,6.9901,6.9901,6.9901,6.9901,6.9901,6.9901,6.9901,6.9901,6.9901,6.9901,6.9901,6.9901,6.9901,6.9901,6.9901,6.9901,6.9901,6.9901,6.9901,6.9901,6.9901,5.66,5.6601,5.6596,5.6631,5.6706,5.7434,5.8324,5.9142,5.9845,6.0666,6.1563,6.1719,6.1719,6.1719,6.1719,6.1719,6.1719,6.1719,6.1719,6.1719,6.1719,6.1719,6.1719,6.1719,6.1719,6.1719,6.1719,6.1719,6.1719,6.1719,6.1719,6.1719,6.1719,6.1719,6.1719,6.1719,6.1715,6.171,6.1739,6.1716,6.1881,6.2065,6.2329,6.329,6.3244,6.34,6.4218,6.4413,6.4764,6.5346,6.5501,6.6008,6.6631,6.667,6.6709,6.6709,6.6709,6.6709,6.6709,6.6709,6.6709,6.6641,6.652,6.632,6.6064,6.5785,6.5579,6.5487,6.5413,6.5413,6.5413,6.5413,6.5413,6.5413,6.5413,6.5305,6.5223,6.5145,6.511,6.5142,6.5229,6.6101,6.7276,6.8072,6.8603,6.9133,6.9673,6.9901,6.9901,6.9901,6.9901,6.9901,6.9901,6.9901,6.9901,6.9901,6.9901,6.9901,6.9901,6.9901,6.9901,6.9901,6.9901,6.9901,6.9901,6.9901,6.9901,6.9901,6.9901,6.9901,6.9901,6.9901,6.9901,6.9901,6.9901,5.6601,5.6601,5.6597,5.6827,5.7294,5.8021,5.887,5.9729,6.0627,6.1252,6.168,6.1719,6.1719,6.1719,6.1719,6.1719,6.1719,6.1719,6.1719,6.1719,6.1719,6.1719,6.1719,6.1719,6.1719,6.1719,6.1719,6.1719,6.1719,6.1719,6.1719,6.1719,6.1719,6.1719,6.1719,6.1719,6.1719,6.1718,6.171,6.1652,6.158,6.1764,6.276,6.3719,6.3906,6.3984,6.414,6.4335,6.4491,6.5075,6.554,6.6125,6.6631,6.6709,6.6709,6.6709,6.6709,6.6709,6.6709,6.6709,6.6709,6.6641,6.6627,6.6475,6.6282,6.6002,6.5686,6.5556,6.5405,6.5413,6.5413,6.5413,6.5413,6.5413,6.5398,6.5337,6.5223,6.5074,6.5026,6.5011,6.5259,6.5836,6.6897,6.7579,6.8224,6.9399,6.9863,6.9901,6.9901,6.9901,6.9901,6.9901,6.9901,6.9901,6.9901,6.9901,6.9901,6.9901,6.9901,6.9901,6.9901,6.9901,6.9901,6.9901,6.9901,6.9901,6.9901,6.9901,6.9901,6.9901,6.9901,6.9901,6.9901,6.9901,6.9901,5.6601,5.6601,5.6597,5.7101,5.7958,5.8762,5.9572,6.0432,6.1289,6.168,6.168,6.1719,6.1719,6.1719,6.1719,6.1719,6.1719,6.1719,6.1719,6.1719,6.1719,6.1719,6.1719,6.1719,6.1719,6.1719,6.1719,6.1719,6.1719,6.1719,6.1719,6.1719,6.1719,6.1719,6.1719,6.1719,6.1719,6.1719,6.1713,6.1664,6.1644,6.1656,6.296,6.3645,6.3867,6.3361,6.375,6.3945,6.3945,6.4569,6.5385,6.6203,6.6592,6.6709,6.6709,6.6709,6.6709,6.6709,6.6709,6.6709,6.6709,6.6707,6.6709,6.6612,6.6396,6.6143,6.5866,6.5651,6.5516,6.5421,6.5421,6.5413,6.5413,6.5398,6.5383,6.5344,6.5177,6.5048,6.4979,6.4926,6.5276,6.5769,6.6442,6.7125,6.8129,6.9304,6.9863,6.9901,6.9901,6.9901,6.9901,6.9901,6.9901,6.9901,6.9901,6.9901,6.9901,6.9901,6.9901,6.9901,6.9901,6.9901,6.9901,6.9901,6.9901,6.9901,6.9901,6.9901,6.9901,6.9901,6.9901,6.9901,6.9901,6.9901,6.9901,5.6601,5.6601,5.6597,5.7101,5.7996,5.8762,5.9611,6.0471,6.1328,6.1719,6.1719,6.1719,6.1719,6.1719,6.1719,6.1719,6.1719,6.1719,6.1719,6.1719,6.1719,6.1719,6.1719,6.1719,6.1719,6.1719,6.1719,6.1719,6.1719,6.1719,6.1719,6.1719,6.1719,6.1719,6.1719,6.1719,6.1719,6.1719,6.1716,6.167,6.1655,6.1788,6.2192,6.2758,6.3088,6.301,6.3127,6.3127,6.3127,6.3634,6.4722,6.5852,6.6398,6.6631,6.6709,6.6709,6.6709,6.6709,6.6709,6.6709,6.6709,6.6709,6.6702,6.6627,6.6418,6.6256,6.5959,6.5705,6.5566,6.5435,6.5436,6.5421,6.5413,6.5375,6.5344,6.5274,6.5191,6.5057,6.4915,6.4924,6.5063,6.5644,6.6329,6.7067,6.7909,6.8953,6.9749,6.9787,6.9901,6.9901,6.9863,6.9901,6.9901,6.9901,6.9901,6.9901,6.9901,6.9901,6.9901,6.9901,6.9901,6.9901,6.9901,6.9901,6.9901,6.9901,6.9901,6.9901,6.9901,6.9901,6.9901,6.9901,6.9901,6.9901,6.9901]}]]